     2              OBSERVATION DATA    G (GPS)             RINEX VERSION / TYPE
ASRINEXO V2.9.9 LH AIUB 01-FEB- 1 16:34                     PGM / RUN BY / DATE
BERN ASHTECH Z-12                                           COMMENT
BIT 2 OF LLI (+4) FLAGS DATA COLLECTED UNDER "AS" CONDITION COMMENT
USNB                                                        MARKER NAME
                                                            OBSERVER / AGENCY
? ASHTECH Z-XII3 1D15                                       REC # / TYPE / VERS
? CHOKE RING                                                ANT # / TYPE
  1112162.9200 -4842869.7700  3985497.7300                  APPROX POSITION XYZ
        0.0000        0.0000        0.0000                  ANTENNA: DELTA H/E/N
     1     1                                                WAVELENGTH FACT L1/2
     5    C1    L1    L2    P1    P2                        # / TYPES OF OBSERV
  2000     5    25     0     0   30.000000                  TIME OF FIRST OBS
                                                            END OF HEADER
 00  5 25  0  0 30.0000000  0  8 17 09 21 26 03 29 23 15
  21026618.179   -19948282.306 9 -15327432.70247  21026621.288    21026629.8924
  20736104.374   -17601998.756 9 -13691143.57048  20736105.328    20736112.5044
  22915259.623   -10990432.630 8  -8550142.53346  22915265.154    22915274.0474
  23294474.845    -7789039.711 8  -5767827.03746  23294474.669    23294483.7664
  24584392.193    -1541381.319 7  -1195080.70244  24584392.008    24584403.2704
  22553778.523   -11454674.547 8  -8893677.81546  22553781.658    22553789.3824
  20827907.111   -21565375.297 9 -16791700.87648  20827910.022    20827917.3514
  23953024.167    -2189329.143 7  -1684052.99545  23953031.634    23953040.9314
 00  5 25  0  1  0.0000000  0  8 17 09 21 26 03 29 23 15
  21041345.884   -19870881.166 8 -15267120.17247  21041350.138    21041357.9404
  20735109.015   -17607221.431 9 -13695213.17748  20735111.520    20735118.8324
  22900312.009   -11068990.280 8  -8611356.23246  22900315.706    22900324.5604
  23312393.696    -7694870.294 8  -5694448.39146  23312395.882    23312404.0294
  24590553.782    -1508915.637 7  -1169782.79644  24590568.903    24590581.6124
  22540569.716   -11524073.740 8  -8947755.07946  22540574.919    22540582.7104
  20823700.256   -21587478.192 9 -16808923.91648  20823704.086    20823711.0764
  23933137.688    -2293844.874 7  -1765493.66545  23933142.843    23933152.6474
 00  5 25  0  1 30.0000000  0  8 17 09 21 26 03 29 23 15
  21056171.040   -19792984.273 9 -15206421.32647  21056173.802    21056181.3064
  20734238.766   -17611798.571 9 -13698779.77348  20734240.703    20734248.2984
  22885371.562   -11147510.995 8  -8672541.14046  22885374.389    22885383.3984
  23330318.480    -7600671.833 8  -5621047.11946  23330321.524    23330329.2754
  24596820.033    -1476032.219 7  -1144159.37844  24596829.686    24596838.4754
  22527409.584   -11593241.988 8  -9001652.33746  22527412.977    22527421.0754
  20819537.068   -21609362.183 9 -16825976.38648  20819539.529    20819546.7154
  23913290.759    -2398145.130 7  -1846766.54345  23913293.565    23913306.2694
 00  5 25  0  2  0.0000000  0  8 17 09 21 26 03 29 23 15
  21071088.245   -19714593.942 9 -15145337.98547  21071091.253    21071099.3224
  20733487.684   -17615730.215 9 -13701843.39848  20733492.220    20733499.7654
  22870439.668   -11225994.099 8  -8733696.73946  22870439.520    22870447.7674
  23348245.365    -7506445.679 8  -5547624.19546  23348251.736    23348259.4334
  24603162.224    -1442732.939 7  -1118211.93044  24603165.926    24603176.3564
  22514290.587   -11662178.986 8  -9055369.42546  22514294.213    22514302.5164
  20815414.457   -21631026.126 9 -16842857.39648  20815417.023    20815424.1934
  23893486.817    -2502227.041 7  -1927869.25945  23893488.126    23893498.5074
 00  5 25  0  2 30.0000000  0  8 17 09 21 26 03 29 23 15
  21086098.281   -19635712.416 9 -15083871.90747  21086101.643    21086109.7514
  20732862.966   -17619016.275 9 -13704403.96448  20732866.751    20732874.2434
  22855508.201   -11304438.634 8  -8794822.28846  22855511.436    22855519.7444
  23366182.844    -7412193.240 8  -5474180.79046  23366186.690    23366196.1214
  24609571.613    -1409020.001 7  -1091942.12144  24609581.152    24609590.4154
  22501216.409   -11730884.823 8  -9108906.37846  22501219.739    22501229.5184
  20811332.542   -21652469.185 9 -16859566.28448  20811336.410    20811343.6204
  23873716.653    -2606087.544 7  -2008799.34445  23873723.465    23873735.3734
 00  5 25  0  3  0.0000000  0  8 17 09 21 26 03 29 23 15
  21101202.363   -19556341.918 9 -15022024.80847  21101205.571    21101213.5834
  20732361.530   -17621656.621 9 -13706461.37748  20732364.560    20732372.0924
  22840589.901   -11382843.147 8  -8855916.65646  22840591.802    22840600.0734
  23384122.403    -7317915.986 8  -5400718.07946  23384128.020    23384136.0784
  24616071.555    -1374895.552 7  -1065351.65644  24616071.194    24616079.9024
  22488186.531   -11799359.061 8  -9162262.86846  22488189.784    22488198.4224
  20807295.135   -21673690.198 9 -16876102.14848  20807298.397    20807305.4404
  23854000.535    -2709723.961 7  -2089554.90445  23854001.067    23854013.3494
 00  5 25  0  3 30.0000000  0  8 17 09 21 26 03 29 23 15
  21116397.576   -19476484.572 9 -14959798.35447  21116401.817    21116410.2834
  20731981.068   -17623651.206 9 -13708015.61048  20731985.051    20731992.0104
  22825674.625   -11461206.661 8  -8916979.10246  22825679.120    22825688.1804
  23402067.503    -7223615.359 8  -5327237.07946  23402072.194    23402080.4784
  24622639.503    -1340361.721 7  -1038442.25244  24622644.418    24622658.0254
  22475195.333   -11867601.394 8  -9215438.63346  22475202.755    22475212.0484
  20803300.411   -21694687.878 9 -16892463.98648  20803302.716    20803309.7344
  23834318.734    -2813133.453 7  -2170133.63745  23834324.077    23834334.5894
 00  5 25  0  4  0.0000000  0  8 17 09 21 26 03 29 23 15
  21131686.175   -19396142.703 9 -14897194.35347  21131690.427    21131698.4224
  20731724.610   -17624999.996 9 -13709066.60548  20731728.310    20731735.1734
  22810771.165   -11539528.188 8  -8978008.84346  22810775.315    22810784.2614
  23420012.748    -7129292.730 8  -5253738.97445  23420021.108    23420030.0624
  24629286.484    -1305420.405 7  -1011215.24844  24629293.867    24629303.1964
  22462261.981   -11935611.853 8  -9268433.73746  22462261.726    22462270.6194
  20799346.535   -21715461.121 9 -16908650.94348  20799349.686    20799357.0624
  23814688.150    -2916312.732 7  -2250532.94545  23814690.391    23814699.1454
 00  5 25  0  4 30.0000000  0  8 17 09 21 26 03 29 23 15
  21147068.592   -19315318.571 9 -14834214.55947  21147071.247    21147079.0334
  20731591.478   -17625703.124 9 -13709614.48348  20731594.777    20731601.7434
  22795878.082   -11617806.464 8  -9039004.85346  22795879.194    22795887.9734
  23437970.047    -7034949.471 8  -5180224.76246  23437974.822    23437982.6254
  24636023.033    -1270073.888 7   -983672.44144  24636021.069    24636027.1324
  22449361.825   -12003389.958 8  -9321247.80346  22449364.312    22449371.4794
  20795436.178   -21736008.891 9 -16924662.20948  20795439.706    20795446.9474
  23795105.935    -3019259.837 7  -2330751.46745  23795099.904    23795110.7274
 00  5 25  0  5  0.0000000  0  8 17 09 21 26 03 29 23 15
  21162537.469   -19234014.480 9 -14770860.75447  21162542.731    21162550.5354
  20731579.554   -17625760.480 9 -13709659.17948  20731583.510    20731590.5324
  22780991.135   -11696040.394 8  -9099966.31946  22780991.998    22781000.0704
  23455929.230    -6940586.981 8  -5106695.60546  23455931.896    23455939.0624
  24642813.907    -1234324.219 6   -955815.59854  24642823.675    24642836.3924
  22436505.186   -12070935.686 8  -9373880.78446  22436510.147    22436518.1284
  20791570.067   -21756330.036 9 -16940496.88148  20791572.776    20791579.9324
  23775547.411    -3121971.639 7  -2410786.56145  23775552.431    23775565.4304
 00  5 25  0  5 30.0000000  0  8 17 09 21 26 03 29 23 15
  21178102.402   -19152232.573 9 -14707134.62547  21178105.233    21178112.8574
  20731689.792   -17625172.554 9 -13709201.04848  20731695.348    20731702.4504
  22766110.267   -11774228.650 8  -9160892.21446  22766113.133    22766121.6444
  23473891.095    -6846206.598 8  -5033152.48546  23473891.169    23473899.1514
  24649698.082    -1198173.082 7   -927645.77554                  24649707.9094
  22423694.847   -12138248.887 8  -9426332.56846  22423700.358    22423708.0924
  20787746.746   -21776423.330 9 -16956154.01248  20787749.024    20787756.0884
  23756053.441    -3224444.770 8  -2490635.60145  23756054.359    23756065.2464
 00  5 25  0  6  0.0000000  0  8 17 09 21 26 03 29 23 15
  21193754.858   -19069975.247 8 -14643038.05147  21193758.068    21193766.0084
  20731926.585   -17623939.333 9 -13708240.08748  20731930.342    20731937.4334
  22751239.579   -11852370.518 8  -9221781.97446  22751243.457    22751252.3094
  23491848.139    -6751809.571 8  -4959596.40745  23491854.224    23491861.5824
  24656654.905    -1161622.735 7   -899164.94944  24656662.021    24656665.7454
  22410933.425   -12205329.318 8  -9478602.98246  22410935.770    22410942.8504
  20783965.673   -21796287.738 9 -16971632.77848  20783969.096    20783976.4794
  23736594.210    -3326676.901 7  -2570297.12645  23736600.195    23736611.4594
 00  5 25  0  6 30.0000000  0  8 17 09 21 26 03 29 23 15
  21209495.640   -18987244.705 8 -14578572.73247  21209501.079    21209509.0164
  20732283.603   -17622060.784 9 -13706776.28248  20732287.824    20732294.8804
  22736377.532   -11930464.842 8  -9282634.71846  22736382.364    22736390.9234
  23509815.349    -6657397.416 8  -4886028.48746  23509820.970    23509828.5604
  24663679.491    -1124675.373 7   -870374.68444  24663689.738    24663697.3824
  22398208.440   -12272176.775 8  -9530691.86446  22398214.608    22398222.4574
  20780229.853   -21815921.995 9 -16986932.21048  20780232.999    20780240.0254
  23717187.764    -3428664.745 7  -2649768.02645  23717191.068    23717203.2764
 00  5 25  0  7  0.0000000  0  8 17 09 21 26 03 29 23 15
  21225333.535   -18904043.394 8 -14513740.57647  21225333.913    21225341.9864
  20732765.910   -17619537.122 9 -13704809.78648  20732767.515    20732775.0154
  22721527.383   -12008509.957 8  -9343449.04646  22721530.752    22721540.1974
  23527790.056    -6562971.382 8  -4812449.79945  23527789.499    23527797.4174
  24670791.901    -1087333.315 7   -841276.89944  24670792.892    24670806.3444
  22385535.761   -12338790.978 8  -9582598.98046  22385539.166    22385547.5004
  20776538.338   -21835325.023 9 -17002051.45748  20776540.410    20776547.7764
  23697830.051    -3530406.115 8  -2729047.16845  23697831.098    23697842.8094
 00  5 25  0  7 30.0000000  0  8 17 09 21 26 03 29 23 15
  21241255.634   -18820373.623 9 -14448543.41547  21241256.116    21241264.8044
  20733367.927   -17616368.551 9 -13702340.76548  20733370.624    20733377.9674
  22706685.916   -12086505.217 8  -9404224.53046  22706687.972    22706697.7804
  23545759.484    -6468532.832 8  -4738861.39345  23545760.279    23545768.4894
  24677972.197    -1049598.697 7   -811873.33744  24677975.791    24677986.1804
  22372903.110   -12405171.949 8  -9634324.38046  22372907.919    22372915.7834
  20772889.723   -21854495.870 9 -17016989.79348  20772892.356    20772899.7534
  23678514.851    -3631897.049 8  -2808130.92645  23678519.411    23678529.4824
 00  5 25  0  8  0.0000000  0  8 17 09 21 26 03 29 23 15
  21257263.991   -18736237.678 9 -14382982.98147  21257266.769    21257274.8874
  20734094.851   -17612555.348 9 -13699369.42748  20734096.429    20734103.6854
  22691854.760   -12164449.900 8  -9464960.57246  22691856.177    22691865.0034
  23563728.010    -6374083.072 8  -4665264.16746  23563733.610    23563741.3644
  24685221.603                                    24685228.986    24685239.4194
  22360317.664   -12471319.360 8  -9685867.77546  22360319.982    22360327.3794
  20769284.940   -21873433.243 9 -17031746.18348  20769288.429    20769296.2184
  23659253.661    -3733135.575 8  -2887017.94845  23659253.389    23659264.7184
 00  5 25  0  8 30.0000000  0  7 17 09 21 26 29 23 15
  21273364.090   -18651638.012 8 -14317061.21347  21273365.345    21273373.7474
  20734943.282   -17608097.944 9 -13695896.12648  20734944.797    20734951.8754
  22677028.831   -12242342.309 8  -9525655.93646  22677033.687    22677042.2814
  23581702.920    -6279623.356 8  -4591659.21145  23581708.606    23581717.1474
  22347766.124   -12537233.023 8  -9737229.03446  22347776.083    22347783.9374
  20765726.086   -21892135.850 9 -17046319.64148  20765729.737    20765737.1154
  23640035.129    -3834118.520 7  -2965705.94745  23640036.593    23640047.2964
 00  5 25  0  9  0.0000000  0  7 17 09 21 26 29 23 15
  21289546.573   -18566577.080 8 -14250780.01547  21289551.653    21289560.1244
  20735913.317   -17602996.231 9 -13691920.76348  20735915.645    20735922.5084
  22662220.430   -12320181.197 8  -9586309.59146  22662222.072    22662230.4324
  23599679.119    -6185155.030 8  -4518047.55545  23599684.445    23599693.7944
  22335278.162   -12602913.010 8  -9788408.19946  22335277.956    22335285.4094
  20762212.840   -21910602.834 9 -17060709.49248  20762215.939    20762223.0944
  23620859.973    -3934842.996 7  -3044192.43845  23620868.546    23620880.6214
 00  5 25  0  9 30.0000000  0  7 17 09 21 26 29 23 15
  21305820.343   -18481057.266 8 -14184141.24847  21305825.791    21305834.1944
  20737005.825   -17597250.738 9 -13687443.75548  20737008.521    20737015.9184
  22647414.558   -12397965.559 8  -9646920.74246  22647420.225    22647427.3254
  23617663.418    -6090679.283 8  -4444430.10145  23617663.078    23617672.4054
  22322819.864   -12668359.023 8  -9839405.05946  22322824.429    22322831.8674
  20758743.366   -21928832.884 9 -17074914.70648  20758746.567    20758753.8364
  23601744.024    -4035306.016 7  -3122475.25145  23601751.219    23601763.6564
 00  5 25  0 10  0.0000000  0  7 17 09 21 26 29 23 15
  21322183.152   -18395080.824 8 -14117146.68147  21322186.570    21322195.0204
  20738223.075   -17590861.911 9 -13682465.44648  20738224.363    20738232.0334
  22632624.880   -12475694.512 8  -9707488.74846  22632629.488    22632636.5114
  23635635.273    -5996197.484 8  -4370807.91146  23635643.047    23635651.5784
  22310411.531   -12733570.918 8  -9890219.48646  22310414.805    22310423.2874
  20755317.602   -21946824.874 9 -17088934.42148  20755322.448    20755329.9784
  23582677.548    -4135504.419 7  -3200551.71445  23582684.057    23582694.5984
 00  5 25  0 10 30.0000000  0  7 17 09 21 26 29 23 15
  21338626.966   -18308650.238 8 -14049798.23947  21338633.529    21338641.7754
  20739559.582   -17583829.935 9 -13676985.98948  20739562.593    20739569.5654
  22617845.393   -12553365.965 8  -9768011.93146  22617848.894    22617856.2944
  23653621.757    -5901710.878 8  -4297181.99246  23653622.642    23653631.9794
  22298048.906   -12798548.612 8  -9940851.42846  22298050.200    22298058.2594
  20751941.277   -21964577.685 9 -17102767.77648  20751944.292    20751952.0834
  23563665.430    -4235435.764 8  -3278420.15845  23563668.910    23563678.2704
 00  5 25  0 11  0.0000000  0  7 17 09 21 26 29 23 15
  21355163.748   -18221767.667 8 -13982097.57747  21355167.042    21355175.3314
  20741018.460   -17576155.530 9 -13671005.92848  20741023.234    20741029.9654
  22603077.999   -12630979.189 8  -9828489.74446  22603079.895    22603087.4464
  23671597.114    -5807220.673 8  -4223553.26445  23671602.703    23671612.7824
  22285722.600   -12863291.898 8  -9991300.71546  22285729.274    22285737.9004
  20748609.963   -21982090.138 9 -17116413.84048  20748611.839    20748619.2804
  23544698.502    -4335097.291 8  -3356078.34845  23544703.653    23544714.6004
 00  5 25  0 11 30.0000000  0  7 17 09 21 26 29 23 15
  21371782.286   -18134435.742 9 -13914046.77347  21371786.098    21371794.3024
  20742603.166   -17567838.942 9 -13664525.46648  20742605.734    20742613.0674
  22588318.610   -12708532.227 8  -9888920.64546  22588321.975    22588329.4234
  23689583.685    -5712727.995 8  -4149922.60545  23689585.020    23689592.9704
  22273450.092   -12927800.842 8 -10041567.38446  22273453.274    22273463.0614
  20745320.984   -21999361.025 9 -17129871.66648  20745325.443    20745332.8704
  23525786.656    -4434486.109 7  -3433523.99845  23525789.910    23525801.8364
 00  5 25  0 12  0.0000000  0  7 17 09 21 26 29 23 15
  21388485.092   -18046657.012 8 -13845647.80347  21388489.448    21388497.7414
  20744308.160   -17558880.764 9 -13657545.06848  20744310.495    20744317.6414
  22573572.099   -12786024.778 8  -9949304.38346  22573574.945    22573582.6674
  23707560.509    -5618234.310 8  -4076291.14145  23707566.217    23707574.6514
  22261220.825   -12992075.137 8 -10091651.22746  22261223.026    22261231.5044
  20742081.956   -22016389.310 9 -17143140.44448  20742084.986    20742092.2644
  23506925.308    -4533599.313 7  -3510754.93845  23506928.098    23506940.3494
 00  5 25  0 12 30.0000000  0  7 17 09 21 26 29 23 15
  21405274.541   -17958434.092 8 -13776902.72547  21405278.022    21405286.1064
  20746135.570   -17549281.440 9 -13650065.07148  20746137.080    20746144.4424
  22558839.805   -12863455.298 8 -10009639.80846  22558840.172    22558848.3644
  23725539.422    -5523740.761 8  -4002659.80845  23725547.622    23725556.1084
  22249034.542   -13056114.842 8 -10141552.26146  22249036.312    22249045.2004
  20738888.362   -22033173.863 9 -17156219.30248  20738890.809    20738897.9464
  23488117.326    -4632433.945 7  -3587768.85945  23488120.292    23488133.0234
 00  5 25  0 13  0.0000000  0  7 17 09 21 26 29 23 15
  21422146.482   -17869769.518 8 -13707813.49547  21422150.242    21422158.6154
  20748082.389   -17539041.699 9 -13642086.02548  20748085.987    20748092.9874
  22544112.644   -12940822.785 8 -10069926.16246  22544117.960    22544126.2664
  23743533.523    -5429248.588 8  -3929029.56645  23743529.179    23743537.3414
  22236889.019   -13119919.613 8 -10191270.23846  22236894.283    22236902.3974
  20735740.768   -22049713.396 9 -17169107.23948  20735743.489    20735750.8694
  23469364.112    -4730987.094 8  -3664563.46645  23469367.542    23469378.7394
 00  5 25  0 13 30.0000000  0  7 17 09 21 26 29 23 15
  21439102.003   -17780665.560 8 -13638381.90247  21439105.719    21439115.6644
  20750152.827   -17528161.819 9 -13633608.17248  20750155.970    20750163.4364
  22529403.183   -13018125.846 8 -10130162.32146  22529407.207    22529415.9914
  23761501.127    -5334758.929 8  -3855401.29945  23761509.343    23761518.8484
  22224797.374   -13183489.580 8 -10240805.27446  22224798.826    22224806.0414
  20732638.046   -22066006.716 9 -17181803.31948  20732642.936    20732650.3934
  23450667.777    -4829255.826 8  -3741136.42645  23450668.215    23450679.0244
 00  5 25  0 14  0.0000000  0  7 17 09 21 26 29 23 15
  21456142.425   -17691124.819 8 -13568609.94547  21456145.505    21456153.8914
  20752343.453   -17516642.668 9 -13624632.21547  20752347.540    20752355.0524
  22514707.382   -13095363.297 8 -10190347.31646  22514708.916    22514718.1724
  23779482.624    -5240273.017 8  -3781775.91145  23779489.197    23779498.9134
  22212742.035   -13246824.536 8 -10290157.15746  22212745.875    22212753.8654
  20729586.627   -22082052.648 9 -17194306.63048  20729589.319    20729596.9744
  23432021.706    -4927237.300 8  -3817485.59545  23432022.570    23432032.5814
 00  5 25  0 14 30.0000000  0  7 17 09 21 26 29 23 15
  21473264.200   -17601149.959 8 -13498499.72747  21473267.096    21473276.0354
  20754658.035   -17504484.788 9 -13615158.53847  20754661.463    20754668.3384
  22500023.174   -13172533.318 8 -10250479.73947  22500023.880    22500033.2984
  23797463.639    -5145791.967 8  -3708154.33345  23797468.357    23797477.7844
  22200735.324   -13309924.389 8 -10339325.86546  22200739.253    22200746.8244
  20726580.473   -22097850.168 9 -17206616.38048  20726583.624    20726590.8634
  23413426.567    -5024928.168 8  -3893608.06245  23413431.980    23413441.3814
 00  5 25  0 15  0.0000000  0  7 17 09 21 26 29 23 15
  21490468.305   -17510743.522 8 -13428053.19447  21490470.771    21490479.0174
  20757095.357   -17491688.540 9 -13605187.43247  20757096.797    20757103.6254
  22485347.084   -13249635.111 8 -10310558.98747  22485352.984    22485360.6594
  23815444.750    -5051317.078 8  -3634537.58345  23815448.486    23815455.0644
  22188772.805   -13372789.143 8 -10388311.37946  22188775.396    22188783.5754
  20723622.216   -22113398.078 9 -17218731.63848  20723624.376    20723631.8474
  23394890.092    -5122326.715 7  -3969503.05345  23394897.009    23394908.1924
 00  5 25  0 15 30.0000000  0  7 17 09 21 26 29 23 15
  21507750.616   -17419908.137 8 -13357272.43447  21507756.141    21507764.9464
  20759649.540   -17478254.811 9 -13594719.58648  20759653.300    20759660.0424
  22470691.228   -13326667.310 8 -10370584.01447  22470693.855    22470702.6944
  23833419.304    -4956849.375 8  -3560926.39645  23833423.952    23833432.7964
  22176852.737   -13435418.651 8 -10437113.55346  22176857.127    22176866.4064
  20720710.411   -22128695.089 9 -17230651.38948  20720713.634    20720721.1884
  23376416.402    -5219429.063 8  -4045167.12645  23376419.710    23376430.7654
 00  5 25  0 16  0.0000000  0  7 17 09 21 26 29 23 15
  21525117.101   -17328646.222 8 -13286159.28847  21525122.815    21525131.6614
  20762328.293   -17464184.240 9 -13583755.50047  20762330.271    20762337.5254
  22456044.922   -13403628.352 8 -10430553.58247  22456048.209    22456056.9564
  23851396.412    -4862390.061 8  -3487321.74345  23851398.969    23851408.0534
  22164981.623   -13497812.670 8 -10485732.23046  22164984.267    22164993.0494
  20717847.761   -22143740.014 9 -17242374.71548  20717850.747    20717858.3514
  23357988.859    -5316232.237 8  -4120598.02645  23357999.611    23358008.9484
 00  5 25  0 16 30.0000000  0  7 17 09 21 26 29 23 15
  21542570.959   -17236960.506 8 -13214715.93947  21542569.873    21542578.9474
  20765124.909   -17449477.400 9 -13572295.60748  20765128.881    20765136.0884
  22441412.561   -13480517.577 8 -10490467.19347  22441416.775    22441425.7864
  23869374.475    -4767940.368 8  -3413724.58345  23869373.360    23869381.2854
  22153152.820   -13559971.521 8 -10534167.69546  22153156.551    22153164.3924
  20715032.127   -22158531.872 9 -17253900.82948  20715035.857    20715043.3574
  23339635.089    -5412733.818 8  -4195794.12245  23339635.427    23339643.4204
 00  5 25  0 17  0.0000000  0  7 17 09 21 26 29 23 15
  21560093.569   -17144853.674 8 -13142944.44547  21560097.873    21560106.4584
  20768045.730   -17434135.051 9 -13560340.51248  20768048.605    20768056.0064
  22426799.719   -13557332.989 8 -10550323.33947  22426799.516    22426808.1594
  23887338.219    -4673501.207 8  -3340135.65545  23887343.991    23887351.9874
  22141368.279   -13621894.766 8 -10582419.54146  22141372.758    22141380.0164
  20712267.431   -22173069.491 9 -17265228.84748  20712269.909    20712276.9674
  23321328.079    -5508930.821 8  -4270752.95745  23321328.842    23321340.2314
 00  5 25  0 17 30.0000000  0  7 17 09 21 26 29 23 15
  21577703.937   -17052328.183 8 -13070846.71347  21577704.596    21577713.6104
  20771084.844   -17418157.946 9 -13547890.81348  20771088.804    20771096.3764
  22412192.671   -13634073.168 8 -10610120.83547  22412196.756    22412205.6544
  23905303.049    -4579074.048 8  -3266556.05545  23905312.146    23905320.6614
  22129627.740   -13683582.822 8 -10630488.13746  22129633.279    22129641.3444
  20709549.256   -22187351.435 9 -17276357.63448  20709551.765    20709559.3434
  23303082.560    -5604820.078 8  -4345471.76146  23303082.467    23303092.3114
 00  5 25  0 18  0.0000000  0  7 17 09 21 26 29 23 15
  21595389.018   -16959386.552 8 -12998424.71047  21595390.677    21595399.5394
  20774247.127   -17401547.053 9 -13534947.25548  20774249.697    20774257.1584
  22397604.442   -13710737.120 8 -10669858.89147  22397607.857    22397616.2904
  23923276.845    -4484659.747 8  -3192986.47345  23923279.272    23923287.3204
  22117936.868   -13745034.966 8 -10678372.92046  22117939.278    22117947.3434
  20706879.069   -22201376.512 9 -17287286.24048  20706882.720    20706890.1104
  23284888.509    -5700398.907 8  -4419948.71246  23284894.591    23284904.6774
 00  5 25  0 18 30.0000000  0  7 17 09 21 26 29 23 15
  21613152.609   -16866031.488 8 -12925680.54647  21613155.751    21613163.9574
  20777527.528   -17384303.038 9 -13521510.35648  20777531.035    20777538.2334
  22383032.800   -13787323.545 8 -10729536.59147  22383033.545    22383042.0924
  23941241.166    -4390259.467 8  -3119427.86145  23941243.034    23941252.0424
  22106288.037   -13806251.735 8 -10726074.27746  22106289.600    22106298.4174
  20704258.239   -22215143.764 9 -17298013.96248  20704262.935    20704270.1434
  23266759.328    -5795664.281 8  -4494181.40945  23266766.139    23266775.1424
 00  5 25  0 19  0.0000000  0  7 17 09 21 26 29 23 15
  21630995.516   -16772265.617 8 -12852616.29847  21630998.364    21631007.2434
  20780929.566   -17366427.106 9 -13507581.06047  20780932.531    20780940.0804
  22368470.397   -13863831.117 8 -10789152.82447  22368474.178    22368482.9034
  23959206.008    -4295874.357 8  -3045881.06745  23959204.141    23959212.8534
  22094681.189   -13867232.747 8 -10773591.91146  22094686.010    22094693.3164
  20701688.189   -22228652.137 9 -17308539.96248  20701692.215    20701700.0904
  23248695.070    -5890613.309 8  -4568167.68646  23248698.749    23248707.3404
 00  5 25  0 19 30.0000000  0  7 17 09 21 26 29 23 15
  21648919.374   -16678091.499 8 -12779233.92747  21648919.912    21648927.8874
  20784454.579   -17347919.989 9 -13493159.92347  20784454.755    20784461.9824
  22353930.550   -13940258.364 8 -10848706.52147  22353931.314    22353939.7424
  23977159.222    -4201505.528 8  -2972346.96245  23977161.198    23977170.5704
  22083124.157   -13927978.044 8 -10820925.87546  22083126.936    22083133.9094
  20699168.743   -22241900.280 9 -17318863.18048  20699171.299    20699179.1774
  23230689.675    -5985243.359 8  -4641905.35346  23230690.429    23230700.7814
 00  5 25  0 20  0.0000000  0  7 17 09 21 26 29 23 15
  21666911.979   -16583511.835 8 -12705535.53547  21666917.737    21666926.3254
  20788094.828   -17328782.313 9 -13478247.44747  20788096.133    20788103.7964
  22339399.716   -14016603.793 8 -10908196.45047  22339402.567    22339410.8904
  23995111.063    -4107153.925 8  -2898826.29145  23995115.622    23995124.4514
  22071606.681   -13988487.624 8 -10868076.16046  22071612.296    22071619.1714
  20696697.524   -22254886.938 9 -17328982.64048  20696700.165    20696707.9134
  23212740.351    -6079551.287 8  -4715391.99346  23212743.988    23212754.7594
 00  5 25  0 20 30.0000000  0  7 17 09 21 26 29 23 15
  21684990.127   -16488529.446 8 -12631523.34647  21684992.782    21685001.0974
  20791855.869   -17309015.391 9 -13462844.64747  20791858.269    20791865.2144
  22324888.407   -14092865.717 8 -10967621.29247  22324890.455    22324898.1694
  24013067.520    -4012820.596 8  -2825319.80545  24013066.922    24013074.9244
  22060138.785   -14048761.717 8 -10915042.95246  22060142.544    22060148.9384
  20694276.084   -22267610.944 9 -17338897.44648  20694278.835    20694286.1624
  23194858.149    -6173534.093 8  -4788625.26846  23194860.529    23194868.7374
 00  5 25  0 21  0.0000000  0  7 17 09 21 26 29 23 15
  21703138.445   -16393147.113 8 -12557199.50047  21703142.831    21703150.8864
  20795736.038   -17288620.308 9 -13446952.36647  20795739.187    20795745.9034
  22310392.038   -14169043.088 8 -11026980.25847  22310394.920    22310402.2314
  24031021.227    -3918506.649 8  -2751828.41745  24031014.223    24031021.8134
  22048713.564   -14108799.970 8 -10961825.96546  22048717.522    22048724.1164
  20691903.829   -22280071.165 9 -17348606.70748  20691907.869    20691915.3324
  23177033.756    -6267189.025 8  -4861603.15646  23177037.975    23177047.1224
 00  5 25  0 21 30.0000000  0  7 17 09 21 26 29 23 15
  21721364.897   -16297367.471 8 -12482566.06047  21721369.235    21721377.4524
  20799736.378   -17267597.840 9 -13430571.21547  20799739.583    20799746.5754
  22295909.948   -14245134.512 8 -11086272.27347  22295914.780    22295923.0094
  24048952.445    -3824213.201 8  -2678353.06445  24048958.605    24048966.2874
  22037332.309   -14168602.363 8 -11008425.17046  22037337.092    22037344.7964
  20689582.989   -22292266.262 9 -17358109.35248  20689587.264    20689594.2194
  23159278.128    -6360513.105 8  -4934323.14446  23159278.752    23159288.3764
 00  5 25  0 22  0.0000000  0  7 17 09 21 26 29 23 15
  21739663.743   -16201193.225 8 -12407625.17046  21739670.567    21739679.3984
  20803856.261   -17245948.926 9 -13413701.90847  20803859.268    20803866.3704
  22281448.422   -14321138.153 8 -11145495.87847  22281451.671    22281460.1654
  24066889.546    -3729941.303 7  -2604894.48545  24066895.295    24066905.3054
  22025998.253   -14228168.967 8 -11054840.66146  22026001.887    22026009.1374
  20687315.188   -22304195.216 9 -17367404.63748  20687317.444    20687324.1944
  23141584.237    -6453503.555 8  -5006783.14546  23141583.923    23141593.1154
 00  5 25  0 22 30.0000000  0  7 17 09 21 26 29 23 15
  21758042.167   -16104627.077 8 -12332378.89746  21758046.792    21758055.2894
  20808095.154   -17223674.525 9 -13396345.21847  20808097.799    20808105.1334
  22267003.642   -14397053.274 8 -11204650.50047  22267005.536    22267013.1744
  24084827.488    -3635691.840 7  -2531453.36545  24084831.034    24084839.8974
  22014705.227   -14287499.827 8 -11101072.45046  22014711.409    22014719.3984
  20685094.444   -22315856.701 9 -17376491.48548  20685098.129    20685105.5964
  23123945.437    -6546157.698 8  -5078981.11646  23123950.489    23123962.0264
 00  5 25  0 23  0.0000000  0  7 17 09 21 26 29 23 15
  21776493.999   -16007671.684 8 -12256829.29646  21776495.893    21776505.3274
  20812452.780   -17200775.885 9 -13378502.11547  20812455.231    20812462.1904
  22252573.112   -14472877.819 8 -11263734.54347  22252576.258    22252584.5254
  24102753.547    -3541465.993 7  -2458030.69045  24102761.395    24102771.3984
  22003461.458   -14346594.931 8 -11147120.54747  22003466.432    22003473.8204
  20682927.064   -22327249.517 9 -17385368.99548  20682930.479    20682937.5674
  23106382.077    -6638472.320 8  -5150914.45046  23106384.678    23106394.9324
 00  5 25  0 23 30.0000000  0  7 17 09 21 26 29 23 15
  21795020.414   -15910329.946 8 -12180978.66346  21795019.872    21795028.7524
  20816925.612   -17177253.601 9 -13360173.05147  20816931.123    20816938.5684
  22238162.149   -14548610.429 8 -11322746.91947  22238164.845    22238173.3584
  24120686.653    -3447264.617 8  -2384627.03345  24120689.913    24120696.2344
  21992263.839   -14405454.342 8 -11192984.98846  21992265.438    21992273.1294
  20680810.804   -22338372.567 9 -17394036.30648  20680813.517    20680820.9514
  23088881.357    -6730444.901 8  -5222581.37946  23088883.879    23088893.5884
 00  5 25  0 24  0.0000000  0  7 17 09 21 26 29 23 15
  21813609.041   -15812604.502 8 -12104829.02446  21813616.600    21813625.3244
  20821523.636   -17153109.120 9 -13341359.16947  20821526.058    20821533.1414
  22223769.156   -14624250.050 8 -11381686.85347  22223771.596    22223780.5304
  24138607.784    -3353088.966 8  -2311243.46845  24138611.247    24138618.8984
  21981105.343   -14464077.730 8 -11238665.50447  21981110.711    21981117.1904
  20678744.834   -22349224.777 9 -17402492.57048  20678748.358    20678755.4984
  23071441.774    -6822072.379 8  -5293979.28746  23071446.031    23071457.1664
 00  5 25  0 24 30.0000000  0  7 17 09 21 26 29 23 15
  21832283.835   -15714498.064 8 -12028382.49546  21832285.820    21832294.2874
  20826237.015   -17128343.950 9 -13322061.62947  20826238.571    20826245.5104
  22209392.972   -14699794.648 8 -11440552.74947  22209395.842    22209403.8054
  24156522.715    -3258939.701 8  -2237880.45045  24156527.084    24156534.9624
  21969995.851   -14522465.596 8 -11284162.50047  21969999.185    21970006.3524
  20676732.575   -22359804.840 9 -17410736.76248  20676735.016    20676742.4144
  23054075.843    -6913351.777 8  -5365105.94046  23054076.436    23054086.1334
 00  5 25  0 25  0.0000000  0  7 17 09 21 26 29 23 15
  21851017.933   -15616013.534 8 -11951641.35946  21851026.759    21851035.4024
  20831065.243   -17102959.137 9 -13302281.23547  20831069.004    20831076.0764
  22195035.879   -14775243.503 8 -11499344.06847  22195038.424    22195046.2044
  24174433.354    -3164817.928 8  -2164538.77445  24174436.619    24174445.7754
  21958929.799   -14580617.737 8 -11329475.82847  21958933.617    21958939.9534
  20674769.998   -22370111.620 9 -17418767.99148  20674773.601    20674781.0924
  23036772.040    -7004280.457 8  -5435959.45746  23036774.264    23036782.6404
 00  5 25  0 25 30.0000000  0  7 17 09 21 26 29 23 15
  21869837.348   -15517153.764 8 -11874607.82946  21869839.270    21869848.2554
  20836015.403   -17076955.468 9 -13282018.62147  20836017.607    20836024.1774
  22180696.128   -14850594.786 8 -11558059.32647  22180699.606    22180707.5644
  24192338.797    -3070724.702 8  -2091219.39445  24192341.654    24192352.3164
  21947908.312   -14638534.110 8 -11374605.42547  21947912.444    21947919.3364
  20672862.980   -22380143.770 9 -17426585.25648  20672864.710    20672871.5974
  23019533.872    -7094855.047 8  -5506536.91946  23019537.257    23019547.7344
 00  5 25  0 26  0.0000000  0  7 17 09 21 26 29 23 15
  21888716.755   -15417921.266 8 -11797283.87346  21888722.683    21888731.6794
  20841083.644   -17050334.380 9 -13261274.90647  20841083.317    20841089.9854
  22166376.190   -14925846.539 8 -11616697.03947  22166379.338    22166388.1124
  24210234.381    -2976661.032 8  -2017923.09045  24210242.952    24210251.3774
  21936928.174   -14696214.861 8 -11419551.41847  21936935.580    21936942.4154
  20671004.515   -22389900.177 9 -17434187.63448  20671007.959    20671015.1214
  23002368.109    -7185072.852 8  -5576836.34146  23002369.464    23002379.2394
 00  5 25  0 26 30.0000000  0  7 17 09 21 26 29 23 15
  21907678.093   -15318318.891 8 -11719671.71246  21907676.750    21907685.2514
  20846262.445   -17023097.391 9 -13240051.26447  20846265.982    20846273.5134
  22152074.575   -15000997.636 8 -11675256.33247  22152078.425    22152087.2814
  24228136.261    -2882627.704 7  -1944650.44145  24228136.858    24228144.1984
  21925999.094   -14753659.893 8 -11464313.72546  21926003.381    21926011.4864
  20669201.533   -22399379.695 9 -17441574.26248  20669204.208    20669211.4764
  22985268.777    -7274931.206 8  -5646855.73146  22985269.857    22985279.8694
 00  5 25  0 27  0.0000000  0  7 17 09 21 26 29 23 15
  21926697.378   -15218349.704 8 -11641773.71846  21926700.110    21926707.9914
  20851564.279   -16995245.565 9 -13218348.52847  20851566.165    20851573.5784
  22137793.809   -15076046.744 8 -11733736.13547  22137797.297    22137805.7594
  24246015.855    -2788625.804 7  -1871402.28245  24246022.786    24246032.9344
  21915112.248   -14810869.516 8 -11508892.59547  21915116.661    21915125.1484
  20667450.512   -22408581.188 9 -17448744.24448  20667453.220    20667460.2644
  22968238.470    -7364427.322 8  -5716592.87446  22968239.492    22968247.6954
 00  5 25  0 27 30.0000000  0  7 17 09 21 26 29 23 15
  21945787.643   -15118016.375 8 -11563591.95046  21945792.995    21945800.7864
  20856980.762   -16966780.104 9 -13196167.63247  20856983.371    20856990.2304
  22123530.082   -15150992.060 8 -11792135.05347  22123535.373    22123543.8154
  24263901.732    -2694656.129 7  -1798179.22345  24263905.596    24263914.8184
  21904272.109   -14867843.443 8 -11553287.83247  21904275.555    21904283.3584
  20665753.137   -22417503.406 9 -17455696.63648  20665755.338    20665762.5244
  22951271.048    -7453558.376 8  -5786045.62246  22951278.124    22951286.5694
 00  5 25  0 28  0.0000000  0  7 17 09 21 26 29 23 15
  21964951.432   -15017321.700 8 -11485128.60246  21964954.807    21964962.4754
  20862512.533   -16937702.356 9 -13173509.62947  20862516.616    20862523.5314
  22109290.523   -15225832.509 8 -11850452.24947  22109293.909    22109301.7894
  24281784.674    -2600719.702 7  -1724982.03345  24281780.402    24281790.8764
  21893476.510   -14924581.703 8 -11597499.42047  21893479.232    21893486.0354
  20664108.392   -22426145.023 9 -17462430.36148  20664110.656    20664118.2744
  22934389.381    -7542321.304 8  -5855211.46146  22934388.135    22934396.4834
 00  5 25  0 28 30.0000000  0  7 17 09 21 26 29 23 15
  21984186.220   -14916268.554 8 -11406385.94046  21984184.271    21984192.7034
  20868162.528   -16908013.458 9 -13150375.42547  20868166.020    20868173.4114
  22095070.004   -15300565.572 9 -11908685.75347  22095073.389    22095080.7244
  24299648.841    -2506817.355 7  -1651811.40445  24299650.579    24299658.3594
  21882724.260   -14981084.662 8 -11641527.66247  21882726.929    21882733.4624
  20662518.473   -22434504.991 9 -17468944.61348  20662520.008    20662527.5044
  22917565.423    -7630713.245 8  -5924088.22046  22917568.365    22917575.4004
 00  5 25  0 29  0.0000000  0  7 17 09 21 26 29 23 15
  22003479.206   -14814859.969 8 -11327366.32146  22003481.420    22003490.0064
  20873928.008   -16877714.940 9 -13126766.19347  20873931.770    20873939.0974
  22080867.725   -15375190.442 9 -11966834.96547  22080872.381    22080879.8204
  24317504.537    -2412950.107 7  -1578668.06845  24317512.596    24317520.5544
  21872014.977   -15037352.171 8 -11685372.45547  21872019.544    21872026.3524
  20660980.532   -22442582.049 9 -17475238.42748  20660982.945    20660990.3164
  22900816.000    -7718731.303 8  -5992673.68546  22900818.389    22900826.2264
 00  5 25  0 29 30.0000000  0  7 17 09 21 26 29 23 15
  22022838.435   -14713098.685 8 -11248071.87546  22022845.569    22022854.2804
  20879811.021   -16846808.377 9 -13102683.14747  20879813.154    20879820.1474
  22066689.773   -15449705.196 9 -12024898.36147  22066692.179    22066700.0234
  24335367.820    -2319118.876 7  -1505552.83645  24335368.322    24335377.8774
  21861354.753   -15093384.370 8 -11729033.86547  21861356.746    21861363.7804
  20659496.619   -22450374.460 9 -17481310.42248  20659500.166    20659507.4954
  22884134.772    -7806372.912 8  -6060965.83246  22884139.661    22884148.2284
 00  5 25  0 30  0.0000000  0  8 17 05 09 21 26 29 23 15
  22042273.281   -14610987.442 8 -11168504.70646  22042277.321    22042285.9914
  24526367.476      -64448.90117
  20885808.288   -16815295.151 9 -13078127.39347  20885810.269    20885817.0034
  22052531.009   -15524108.712 9 -12082875.07047  22052534.435    22052541.6394
  24353203.465    -2225324.270 7  -1432466.13745  24353217.109    24353225.4984
  21850735.063   -15149181.228 8 -11772511.87447  21850739.108    21850745.7154
  20658068.297   -22457881.784 9 -17487160.26848  20658071.431    20658078.7864
  22867531.328    -7893635.056 8  -6128962.25746  22867535.316    22867542.7634
 00  5 25  0 30 30.0000000  0  8 17 05 09 21 26 29 23 15
  22061770.180   -14508529.170 8 -11088667.16146  22061774.449    22061783.5434
  24511041.448     -145015.858 7    -92677.12154  24511041.546    24511055.3764
  20891918.572   -16783176.607 9 -13053099.95447  20891921.711    20891928.5944
  22038391.995   -15598399.018 8 -12140763.55947  22038397.056    22038404.3914
  24371047.361    -2131567.428 7  -1359408.89345  24371058.508    24371067.6644
  21840162.542   -15204742.775 8 -11815806.55747  21840165.725    21840173.5184
  20656693.577   -22465102.894 9 -17492787.09348  20656697.551    20656704.4084
  22850998.025    -7980514.759 8  -6196660.66346  22851001.334    22851009.9744
 00  5 25  0 31  0.0000000  0  8 17 05 09 21 26 29 23 15
  22081331.633   -14405726.741 8 -11008561.43646  22081337.430    22081345.9904
  24495726.936     -225530.871 7   -155415.85745  24495722.035    24495734.5034
  20898147.658   -16750454.160 9 -13027601.94247  20898148.869    20898155.8164
  22024277.032   -15672574.797 8 -12198562.82747  22024281.290    22024289.2634
  24388883.439    -2037849.285 7  -1286381.76945  24388890.850    24388900.7914
  21829633.461   -15260069.240 8 -11858918.05047  21829637.671    21829644.8024
  20655375.790   -22472036.666 9 -17498190.03848  20655378.283    20655385.1654
  22834537.803    -8067009.423 8  -6264059.07446  22834542.604    22834550.9774
 00  5 25  0 31 30.0000000  0  8 17 05 09 21 26 29 23 15
  22100959.299   -14302583.143 8 -10928189.87946  22100965.171    22100974.4214
  24480400.520     -305991.172 7   -218111.96545  24480410.488    24480423.6264
  20904486.002   -16717129.284 9 -13001634.48947  20904490.050    20904496.8274
  22010185.405   -15746634.361 8 -12256271.52347  22010187.992    22010195.7744
  24406714.555    -1944170.519 7  -1213385.39145  24406718.923    24406725.5694
  21819150.145   -15315160.558 8 -11901846.34147  21819153.771    21819161.0884
  20654111.100   -22478681.630 9 -17503367.93348  20654113.551    20654121.0714
  22818156.139    -8153116.093 8  -6331155.16646  22818156.888    22818165.2634
 00  5 25  0 32  0.0000000  0  8 17 05 09 21 26 29 23 15
  22120655.922   -14199101.212 8 -10847554.66746  22120656.976    22120665.9144
  24465104.507     -386393.602 7   -280763.04145  24465110.510    24465124.8574
  20910940.381   -16683203.446 9 -12975198.76747  20910945.476    20910952.6914
  21996113.510   -15820575.973 8 -12313888.33347  21996117.701    21996126.0344
  24424540.736    -1850532.050 7  -1140420.37345  24424538.089    24424545.4464
  21808712.036   -15370016.932 8 -11944591.53347  21808715.168    21808722.3044
  20652900.697   -22485036.659 9 -17508319.91348  20652903.996    20652911.4864
  22801841.285    -8238832.000 8  -6397946.71246  22801845.755    22801854.2204
 00  5 25  0 32 30.0000000  0  8 17 05 09 21 26 29 23 15
  22140405.239   -14095283.669 8 -10766657.94346  22140412.965    22140422.0114
  24449817.931     -466735.160 8   -343366.63245  24449820.602    24449832.1994
  20917512.859   -16648678.463 9 -12948296.17147  20917515.980    20917522.7024
  21982065.681   -15894397.999 9 -12371411.94247  21982069.677    21982077.6404
  24442338.951    -1756934.904 7  -1067487.54645  24442349.245    24442356.3804
  21798317.818   -15424638.315 8 -11987153.62347  21798320.574    21798327.7274
  20651749.610   -22491100.536 9 -17513045.02048  20651750.280    20651757.5114
  22785604.474    -8324154.337 8  -6464431.61146  22785609.514    22785619.1654
 00  5 25  0 33  0.0000000  0  8 17 05 09 21 26 29 23 15
  22160230.298   -13991133.420 8 -10685501.98446  22160232.146    22160240.8034
  24434543.135     -547013.065 8   -405920.65445  24434544.739    24434556.5914
  20924196.612   -16613555.723 9 -12920927.79147  20924199.350    20924206.3284
  21968040.435   -15968099.055 8 -12428841.28847  21968045.015    21968052.8174
  24460147.862    -1663379.703 7   -994587.45145  24460152.978    24460159.6414
  21787968.558   -15479024.889 8 -12029532.73447  21787970.973    21787978.5054
  20650648.998   -22496872.106 9 -17517542.33048  20650651.624    20650658.8854
  22769445.570    -8409080.150 8  -6530607.48246  22769448.236    22769458.2604
 00  5 25  0 33 30.0000000  0  8 17 05 09 21 26 29 23 15
  22180114.836   -13886653.570 8 -10604089.17946  22180114.255    22180122.4034
  24419278.337     -627224.311 7   -468422.73445  24419280.271    24419291.5694
  20930996.612   -16577836.849 9 -12893094.90147  20930996.580    20931003.5214
  21954037.853   -16041677.773 8 -12486175.30747  21954042.884    21954051.8414
  24477937.699    -1569867.230 7   -921720.61545  24477946.283    24477955.9754
  21777660.663   -15533176.641 8 -12071728.88547  21777666.260    21777674.0544
  20649606.019   -22502350.110 9 -17521810.91748  20649609.295    20649616.3684
  22753358.675    -8493606.674 8  -6596472.22046  22753363.741    22753373.8624
 00  5 25  0 34  0.0000000  0  8 17 05 09 21 26 29 23 15
  22200056.384   -13781847.190 8 -10522421.93746  22200058.243    22200066.6094
  24404028.656     -707366.064 8   -530870.72945  24404030.557    24404041.1754
  20937902.445   -16541523.338 9 -12864798.66547  20937906.476    20937913.5524
  21940061.282   -16115131.769 8 -12543412.15047  21940064.826    21940073.6244
  24495730.603    -1476398.569 7   -848887.84145  24495732.703    24495741.4264
  21767403.707   -15587093.860 8 -12113742.28047  21767406.716    21767413.1944
  20648619.116   -22507533.468 9 -17525849.88948  20648622.892    20648630.1164
  22737353.014    -8577731.102 8  -6662023.67446  22737353.732    22737365.1324
 00  5 25  0 34 30.0000000  0  8 17 05 09 21 26 29 23 15
  22220056.031   -13676716.986 8 -10440502.38846  22220063.295    22220072.7624
  24388790.454     -787435.071 8   -593261.98645  24388794.196    24388805.3074
  20944924.884   -16504616.920 9 -12836040.41847  20944929.751    20944936.7454
  21926108.953   -16188459.840 8 -12600550.84847  21926111.458    21926120.0564
  24513508.548    -1382974.344 7   -776089.81845  24513510.669    24513519.7114
  21757189.343   -15640776.611 8 -12155572.96547  21757190.924    21757197.5654
  20647690.025   -22512420.820 9 -17529658.22348  20647692.999    20647700.2544
  22721417.810    -8661450.507 8  -6727259.44546  22721423.466    22721433.8594
 00  5 25  0 35  0.0000000  0  8 17 05 09 21 26 29 23 15
  22240127.298   -13571265.902 8 -10358332.80546  22240130.270    22240138.9924
  24373576.180     -867428.404 8   -655594.24145  24373572.961    24373582.7794
  20952060.401   -16467119.147 9 -12806821.38847  20952065.336    20952072.4744
  21912177.526   -16261659.995 8 -12657589.89347  21912181.747    21912190.0814
  24531275.061    -1289595.333 7   -703326.97345  24531279.583    24531288.8964
  21747018.144   -15694224.954 8 -12197221.01547  21747020.483    21747027.1104
  20646817.411   -22517011.016 9 -17533234.99248  20646819.755    20646826.8174
  22705567.642    -8744762.294 8  -6792177.61246  22705569.924    22705579.2764
 00  5 25  0 35 30.0000000  0  8 17 05 09 21 26 29 23 15
  22260254.035   -13465496.819 8 -10275915.43946  22260257.330    22260267.0154
  24358356.544     -947343.093 8   -717865.20945  24358363.993    24358375.7874
  20959307.954   -16429031.661 9 -12777142.83147  20959312.874    20959319.9874
  21898273.700   -16334730.918 9 -12714528.23747  21898277.312    21898284.8844
  24549041.156    -1196262.431 7   -630600.09545  24549040.638    24549048.9184
  21736890.649   -15747438.814 8 -12238686.35647  21736894.741    21736900.7654
  20645997.779   -22521303.043 9 -17536579.43348  20646002.823    20646009.9264
  22689791.539    -8827663.861 8  -6856776.16846  22689794.314    22689803.6264
 00  5 25  0 36  0.0000000  0  8 17 05 09 21 26 29 23 15
  22280441.359   -13359412.757 8 -10193252.60546  22280444.856    22280454.0174
  24343161.570    -1027176.007 7   -780072.48545  24343172.098    24343183.1144
  20966666.142   -16390355.974 9 -12747005.92847  20966672.669    20966679.7474
  21884391.865   -16407671.080 9 -12771364.68447  21884397.248    21884404.8174
  24566782.100    -1102976.367 7   -557909.64545  24566792.577    24566800.3904
  21726808.493   -15800418.623 8 -12279969.28747  21726811.924    21726819.7454
  20645241.358   -22525295.898 9 -17539690.74448  20645243.294    20645250.3974
  22674090.927    -8910152.158 8  -6921052.60846  22674096.560    22674107.0454
 00  5 25  0 36 30.0000000  0  8 17 05 09 21 26 29 23 15
  22300690.513   -13253016.757 8 -10110346.71246  22300691.521    22300700.0464
  24327989.048    -1106924.026 7   -842213.61345  24327996.571    24328009.8784
  20974139.499   -16351094.001 9 -12716412.19847  20974143.706    20974151.6204
  21870538.348   -16480478.329 9 -12828097.57847  21870542.715    21870550.0114
  24584531.940    -1009737.944 7   -485256.36745  24584535.730    24584543.8014
  21716770.398   -15853164.152 8 -12321069.66947  21716775.131    21716782.2054
  20644537.749   -22528988.530 9 -17542568.10048  20644540.408    20644547.7694
  22658478.989    -8992224.438 8  -6985004.91346  22658480.136    22658487.9404
 00  5 25  0 37  0.0000000  0  8 17 05 09 21 26 29 23 15
  22320988.695   -13146311.774 8 -10027200.05846  22320995.923    22321005.8594
  24312830.752    -1186584.407 7   -904286.43645  24312837.774    24312848.9014
  20981722.919   -16311247.297 9 -12685362.83347  20981726.821    20981734.0274
  21856713.691   -16553150.899 9 -12884725.51047  21856713.680    21856721.0754
  24602263.689     -916547.867 7   -412640.81145  24602268.630    24602277.3924
  21706778.710   -15905675.691 8 -12361987.73147  21706782.282    21706790.7944
  20643890.854   -22532379.275 9 -17545210.22448  20643894.884    20643902.5054
  22642936.438    -9073878.226 8  -7048631.12246  22642941.061    22642950.1974
 00  5 25  0 37 30.0000000  0  8 17 05 09 21 26 29 23 15
  22341360.353   -13039300.638 8  -9943814.85746  22341360.222    22341369.4654
  24297689.781    -1266154.156 8   -966288.64745  24297695.821    24297706.8834
  20989415.031   -16270817.920 9 -12653859.43547  20989419.794    20989427.2614
  21842907.347   -16625687.333 9 -12941247.36647  21842910.215    21842918.2284
  24619989.607     -823406.954 7   -340063.46545  24619992.689    24620001.2744
  21696831.760   -15957953.443 8 -12402723.63647  21696834.285    21696841.4824
  20643304.748   -22535467.130 9 -17547616.32648  20643307.560    20643314.7914
  22627483.783    -9155110.675 8  -7111929.01746  22627482.795    22627492.6384
 00  5 25  0 38  0.0000000  0  8 17 05 09 21 26 29 23 15
  22361777.263   -12931986.409 8  -9860193.45746  22361781.513    22361791.7894
  24282569.396    -1345630.310 7  -1028217.88945  24282571.533    24282584.1464
  20997219.432   -16229807.641 9 -12621903.38647  20997223.778    20997231.2384
  21829129.484   -16698085.950 9 -12997661.84947  21829133.061    21829141.0644
  24637702.019     -730315.815 7   -267524.93445  24637708.840    24637716.8154
  21686926.654   -16009997.498 8 -12443277.41647  21686930.418    21686938.1844
  20642774.295   -22538250.921 9 -17549785.51148  20642777.900    20642785.0094
  22612098.839    -9235918.962 8  -7174896.37946  22612104.776    22612114.3624
 00  5 25  0 38 30.0000000  0  8 17 05 09 21 26 29 23 15
  22382253.630   -12824372.009 8  -9776338.17846  22382260.291    22382269.4574
  24267462.150    -1425009.832 7  -1090071.86345  24267465.712    24267476.9034
  21005135.442   -16188217.970 9 -12589495.85347  21005137.867    21005145.4104
  21815380.437   -16770345.097 9 -13053967.63147  21815382.354    21815390.2284
  24655415.692     -637275.402 7   -195025.94345  24655413.647    24655421.6274
  21677063.425   -16061807.801 8 -12483649.05247  21677070.703    21677078.8104
  20642303.181   -22540729.231 9 -17551716.66248  20642306.103    20642313.3694
  22596805.168    -9316300.323 8  -7237531.10446  22596809.435    22596818.5834
 00  5 25  0 39  0.0000000  0  8 17 05 09 21 26 29 23 15
  22402796.812   -12716460.352 8  -9692251.24546  22402795.451    22402804.5294
  24252375.799    -1504289.487 8  -1151848.05545  24252379.896    24252391.5984
  21013159.960   -16146050.820 9 -12556638.34947  21013162.785    21013169.6614
  21801654.259   -16842463.453 9 -13110163.72447  21801658.766    21801666.6824
  24673110.166     -544286.339 7   -122567.00045  24673108.277    24673116.5564
  21667253.635   -16113384.641 8 -12523838.76347  21667255.799    21667263.6594
  20641889.596   -22542901.129 9 -17553409.03448  20641892.758    20641900.0264
  22581588.915    -9396252.066 8  -7299831.06746  22581594.387    22581604.2354
 00  5 25  0 39 30.0000000  0  8 17 05 09 21 26 29 23 15
  22423384.023   -12608254.456 8  -9607935.03346  22423385.544    22423395.8814
  24237310.878    -1583466.435 7  -1213544.20645  24237312.048    24237323.8124
  21021291.288   -16103307.892 9 -12523332.19047  21021296.217    21021303.6664
  21787957.718   -16914438.799 9 -13166248.38647  21787961.834    21787970.0934
  24690787.482     -451349.299 7    -50148.54745  24690792.478    24690802.3824
  21657482.806   -16164728.175 8 -12563846.68847  21657485.995    21657492.6034
  20641534.223   -22544765.701 9 -17554861.93748  20641537.825    20641545.4774
  22566461.781    -9475771.298 8  -7361794.02746  22566462.333    22566471.1044
 00  5 25  0 40  0.0000000  0  8 17 05 09 21 26 29 23 15
  22444029.229   -12499757.277 8  -9523391.88346  22444032.536    22444041.1954
  24222266.858    -1662537.735 8  -1275158.01245  24222265.063    24222278.1824
  21029534.900   -16059991.226 9 -12489578.93347  21029539.078    21029546.7894
  21774290.935   -16986269.449 9 -13222220.27147  21774293.241    21774300.9164
  24708460.114     -358465.160 7     22228.67645  24708468.919    24708476.9944
  21647755.604   -16215838.242 8 -12603672.69147  21647759.724    21647768.1374
  20641239.160   -22546321.699 9 -17556074.39248  20641242.245    20641249.0344
  22551413.455    -9554855.571 8  -7423418.08046  22551412.702    22551421.5104
 00  5 25  0 40 30.0000000  0  8 17 05 09 21 26 29 23 15
  22464733.106   -12390971.786 8  -9438624.05046  22464733.718    22464743.0504
  24207234.220    -1741500.391 8  -1336687.14445  24207239.588    24207251.3224
  21037888.037   -16016102.720 9 -12455380.10747  21037890.943    21037898.3244
  21760650.271   -17057953.560 9 -13278077.97747  21760652.062    21760660.2334
  24726130.863     -265634.562 7     94564.13245  24726134.515    24726143.9544
  21638074.795   -16266715.318 8 -12643317.14547  21638078.766    21638086.0944
  20641002.000   -22547568.001 9 -17557045.53048  20641004.882    20641012.1654
  22536444.536    -9633501.910 8  -7484700.89846  22536447.635    22536455.5104
 00  5 25  0 41  0.0000000  0  8 17 05 09 21 26 29 23 15
  22485478.312   -12281900.920 8  -9353633.84646  22485489.099    22485498.8954
  24192227.495    -1820351.218 8  -1398129.16245  24192235.097    24192245.4024
  21046348.949   -15971644.288 9 -12420737.17047  21046351.279    21046358.3624
  21747035.638   -17129488.876 9 -13333819.75347  21747039.736    21747047.0354
  24743769.550     -172858.193 7    166857.35945  24743789.072    24743796.0164
  21628438.826   -16317359.590 8 -12682780.18547  21628441.524    21628449.0144
  20640824.416   -22548503.287 9 -17557774.30348  20640826.612    20640834.0984
  22521560.656    -9711707.813 8  -7545640.53746  22521564.380    22521574.0964
 00  5 25  0 41 30.0000000  0  8 17 05 09 21 26 29 23 15
  22506296.832   -12172547.669 8  -9268423.59146  22506298.806    22506307.2324
  24177245.659    -1899087.151 8  -1459481.68845  24177250.566    24177262.7144
  21054914.349   -15926617.765 9 -12385651.56747  21054919.391    21054926.4154
  21733452.748   -17200874.295 9 -13389444.71947  21733455.650    21733462.7984
  24761427.430      -80136.688 7    239107.83345  24761431.561    24761440.7914
  21618847.048   -16367771.043 8 -12722061.81347  21618848.585    21618855.9994
  20640703.634   -22549126.576 9 -17558259.96848  20640707.939    20640715.4134
  22506767.433    -9789470.479 8  -7606234.76546  22506767.045    22506776.5684
 00  5 25  0 42  0.0000000  0  8 17 05 09 21 26 29 23 15
  22527153.071   -12062915.095 8  -9182995.68946  22527160.973    22527170.4264
  24162292.349    -1977705.403 8  -1520742.49345  24162291.550    24162301.7114
  21063591.764   -15881025.063 9 -12350124.78247  21063595.368    21063602.6154
  21719896.206   -17272107.731 9 -13444951.25047  21719900.160    21719907.5904
  24779052.872       12529.169 7    311314.93344  24779067.155    24779075.7844
  21609295.140   -16417949.999 8 -12761162.27547  21609299.398    21609307.2114
  20640645.489   -22549436.619 9 -17558501.55448  20640649.011    20640656.3024
  22492052.103    -9866787.318 8  -7666481.61746  22492054.301    22492062.8264
 00  5 25  0 42 30.0000000  0  7 17 05 09 21 29 23 15
  22548074.342   -11953006.262 8  -9097352.55846  22548076.401    22548085.8244
  24147352.615    -2056202.758 8  -1581909.07345  24147352.960    24147364.6114
  21072372.648   -15834868.104 9 -12314158.32347  21072378.829    21072385.7274
  21706370.790   -17343187.371 9 -13500337.95847  21706374.060    21706381.5434
  21599790.622   -16467896.291 8 -12800081.42047  21599794.958    21599802.9774
  20640647.381   -22549432.299 9 -17558498.19848  20640650.060    20640657.3144
  22477424.170    -9943655.574 8  -7726378.92946  22477427.964    22477434.4904
 00  5 25  0 43  0.0000000  0  7 17 05 09 21 29 23 15
  22569046.397   -11842824.000 8  -9011496.33346  22569044.189    22569052.3074
  24132433.766    -2134576.146 8  -1642979.08245  24132438.833    24132450.0454
  21081266.770   -15788148.891 9 -12277753.73847  21081269.432    21081276.4414
  21692873.631   -17414111.802 9 -13555603.71847  21692877.053    21692885.8464
  21590332.112   -16517610.355 8 -12838819.63647  21590334.793    21590342.2014
  20640707.451   -22549112.446 9 -17558248.95148  20640710.676    20640718.3224
  22462884.834   -10020072.886 8  -7785924.85546  22462884.704    22462894.3574
 00  5 25  0 43 30.0000000  0  7 17 05 09 21 29 23 15
  22590055.619   -11732371.438 8  -8925429.48746  22590061.812    22590070.5934
  24117549.547    -2212822.774 8  -1703950.30845  24117548.644    24117559.7974
  21090262.401   -15740869.267 9 -12240912.47047  21090266.337    21090273.1814
  21679406.082   -17484878.905 9 -13610746.87447  21679410.606    21679418.7694
  21580915.150   -16567092.275 8 -12877376.94847  21580918.975    21580925.8124
  20640828.520   -22548475.884 9 -17557752.90948  20640831.441    20640839.3474
  22448425.263   -10096036.216 8  -7845117.01046  22448429.995    22448439.4534
 00  5 25  0 44  0.0000000  0  7 17 05 09 21 29 23 15
  22611132.641   -11621651.605 8  -8839154.38246  22611131.279    22611140.8514
  24102682.583    -2290939.386 8  -1764820.20445  24102683.542    24102694.8494
  21099365.771   -15693031.503 9 -12203636.29647  21099369.423    21099376.4884
  21665969.134   -17555487.405 9 -13665766.45547  21665973.744    21665982.4344
  21571543.608   -16616342.105 8 -12915753.41047  21571546.596    21571554.5554
  20641010.403   -22547521.642 9 -17557009.33948  20641013.520    20641020.6734
  22434060.102   -10171542.862 8  -7903953.32846  22434061.413    22434068.8174
 00  5 25  0 44 30.0000000  0  7 17 05 09 21 29 23 15
  22632248.208   -11510667.449 8  -8752673.30946  22632250.022    22632260.5804
  24087839.818    -2368923.067 8  -1825586.53245  24087844.280    24087855.1944
  21108575.070   -15644637.496 9 -12165926.68047  21108578.385    21108585.7104
  21652566.817   -17625934.959 9 -13720660.61147  21652568.330    21652576.1484
  21562212.800   -16665359.964 8 -12953949.10447  21562218.899    21562226.1204
  20641253.111   -22546248.604 9 -17556017.36648  20641255.561    20641263.1534
  22419778.578   -10246590.379 8  -7962431.85746  22419780.714    22419788.1524
 00  5 25  0 45  0.0000000  0  7 17 05 09 21 29 23 15
  22653421.349   -11399422.110 8  -8665988.74846  22653420.354    22653429.9274
  24073018.399    -2446770.688 8  -1886246.82645  24073029.093    24073041.2344
  21117887.078   -15595689.246 9 -12127785.18847  21117893.040    21117900.4744
  21639190.716   -17696219.745 9 -13775427.94347  21639193.424    21639201.3744
  21552932.863   -16714146.347 9 -12991964.44247  21552935.791    21552942.4854
  20641555.158   -22544655.603 9 -17554776.04548  20641558.758    20641566.3734
  22405584.198   -10321176.148 8  -8020550.58146  22405586.612    22405594.6214
 00  5 25  0 45 30.0000000  0  7 17 05 09 21 29 23 15
  22674633.031   -11287918.587 8  -8579102.98046  22674639.634    22674647.1574
  24058247.054    -2524479.083 8  -1946798.61645  24058242.495    24058253.4354
  21127311.018   -15546188.603 9 -12089213.25047  21127312.503    21127319.7874
  21625850.395   -17766340.095 9 -13830067.13547  21625850.654    21625857.8394
  21543693.004   -16762701.260 9 -13029799.42147  21543695.747    21543702.5434
  20641920.901   -22542741.420 9 -17553284.46948  20641923.342    20641930.5024
  22391480.096   -10395297.674 8  -8078307.58246  22391481.718    22391490.3054
 00  5 25  0 46  0.0000000  0  7 17 05 09 21 29 23 15
  22695897.357   -11176159.754 8  -8492018.25446  22695906.027    22695914.2754
  24043473.174    -2602045.283 8  -2007239.62345  24043481.705    24043492.0244
  21136833.762   -15496138.102 9 -12050212.86047  21136836.191    21136844.4634
  21612534.333   -17836294.206 9 -13884576.80547  21612538.515    21612546.2794
  21534493.297   -16811024.763 9 -13067454.09347  21534500.307    21534506.2364
  20642345.924   -22540505.110 9 -17551541.88848  20642348.554    20642355.8654
  22377463.296   -10468952.558 8  -8135700.94846  22377465.712    22377473.9844
 00  5 25  0 46 30.0000000  0  7 17 05 09 21 29 23 15
  22717213.498   -11064148.898 8  -8404737.16546  22717221.180    22717229.6454
  24028749.635    -2679466.405 7  -2067567.58745  24028749.343    24028760.4804
  21146459.235   -15445539.496 9 -12010785.38947  21146464.993    21146473.0974
  21599254.092   -17906080.117 9 -13938955.38947  21599258.643    21599266.3464
  21525344.020   -16859117.192 9 -13104928.71647  21525348.549    21525355.0074
  20642833.026   -22537945.571 9 -17549547.43348  20642835.692    20642842.8904
  22363532.928   -10542137.950 8  -8192728.46046  22363539.138    22363547.3674
 00  5 25  0 47  0.0000000  0  7 17 05 09 21 29 23 15
  22738578.675   -10951888.987 8  -8317261.99345  22738582.530    22738591.0724
  24014038.993    -2756739.359 7  -2127780.03345  24014043.145    24014055.9934
  21156190.219   -15394395.011 9 -11970932.54047  21156198.029    21156205.4734
  21586009.440   -17975695.941 9 -13993201.44347  21586011.149    21586018.4854
  21516235.943   -16906978.516 9 -13142223.25147  21516240.559    21516247.6464
  20643383.780   -22535061.675 9 -17547300.22948  20643384.481    20643391.8614
  22349699.842   -10614851.384 8  -8249388.22946  22349702.304    22349709.4614
 00  5 25  0 47 30.0000000  0  7 17 05 09 21 29 23 15
  22759994.873   -10839383.003 8  -8229595.11346  22759991.739    22760002.2224
  23999369.057    -2833861.197 7  -2187874.77945  23999368.236    23999378.6364
  21166030.877   -15342706.947 9 -11930656.13247  21166033.934    21166040.9364
  21572791.562   -18045140.109 9 -14047313.72947  21572796.509    21572803.8374
  21507174.547   -16954609.177 9 -13179338.03747  21507176.994    21507183.5774
  20643991.002   -22531852.289 9 -17544799.39648  20643995.142    20644002.5484
  22335955.434   -10687090.124 8  -8305678.12146  22335955.520    22335963.9264
 00  5 25  0 48  0.0000000  0  7 17 05 09 21 29 23 15
  22781444.414   -10726633.891 8  -8141738.76846  22781447.987    22781457.2914
  23984720.054    -2910828.726 7  -2247849.30345  23984721.685    23984730.6164
  21175968.035   -15290477.160 9 -11889957.59747  21175973.110    21175980.1334
  21559611.715   -18114410.350 9 -14101290.49147  21559614.929    21559622.2334
  21498154.014   -17002009.104 9 -13216273.02647  21498157.179    21498163.5954
  20644666.045   -22528316.280 9 -17542044.06348  20644668.274    20644675.2444
  22322294.900   -10758851.756 8  -8361596.23746  22322300.090    22322308.8394
 00  5 25  0 48 30.0000000  0  7 17 05 09 21 29 23 15
  22802945.851   -10613644.711 8  -8053695.35146  22802949.302    22802958.1164
  23970105.587    -2987638.986 7  -2307701.25445  23970103.162    23970116.6804
  21186009.640   -15237707.907 9 -11848838.69847  21186014.437    21186021.5754
  21546463.967   -18183504.944 9 -14155130.38147  21546466.184    21546474.3774
  21489176.856   -17049178.648 9 -13253028.48947  21489180.539    21489187.0494
  20645401.645   -22524452.633 9 -17539033.42148  20645403.573    20645410.5404
  22308733.118   -10830133.548 8  -8417140.43346  22308735.264    22308744.0994
 00  5 25  0 49  0.0000000  0  7 17 05 09 21 29 23 15
  22824493.561   -10500418.450 8  -7965467.22346  22824496.050    22824504.4234
  23955511.703    -3064289.042 7  -2367428.37445  23955517.741    23955530.8894
  21196153.776   -15184401.443 9 -11807301.20047  21196158.028    21196165.2504
  21533347.834   -18252421.775 9 -14208831.75047  21533351.476    21533359.5794
  21480245.024   -17096117.874 9 -13289604.48847  21480248.449    21480255.1114
  20646198.507   -22520260.109 9 -17535766.51848  20646201.559    20646208.5464
  22295259.275   -10900933.194 8  -8472308.93546  22295262.424    22295270.8344
 00  5 25  0 49 30.0000000  0  7 17 05 09 21 29 23 15
  22846084.205   -10386958.329 8  -7877056.85546  22846086.800    22846095.8024
  23940950.756    -3140775.931 7  -2427028.30845  23940963.408    23940973.4714
  21206402.153   -15130559.845 9 -11765346.71347  21206404.062    21206411.5644
  21520265.617   -18321159.326 9 -14262393.43047  21520270.365    21520279.3244
  21471355.497   -17142827.216 9 -13326001.35347  21471359.884    21471366.6674
  20647058.820   -22515737.889 9 -17532242.71048  20647061.882    20647069.0704
  22281880.304   -10971247.914 8  -8527099.56546  22281882.591    22281891.1084
 00  5 25  0 50  0.0000000  0  7 17 05 09 21 29 23 15
  22867711.898   -10273267.266 8  -7788466.51446  22867721.190    22867730.2684
  23926434.012    -3217096.294 7  -2486498.56845  23926437.769    23926451.4324
  21216748.299   -15076185.307 9 -11722976.94747  21216751.585    21216758.5384
  21507221.659   -18389715.780 9 -14315813.99147  21507224.797    21507233.4104
  21462512.482   -17189306.657 9 -13362219.07547  21462515.264    21462521.5394
  20647982.573   -22510884.806 9 -17528461.08048  20647985.457    20647992.3404
  22268592.299   -11041075.233 8  -8581510.38746  22268594.848    22268603.1364
 00  5 25  0 50 30.0000000  0  7 17 05 09 21 29 23 15
  22889393.080   -10159348.162 8  -7699698.51146  22889398.977    22889408.3004
  23911954.002    -3293247.144 7  -2545836.67745  23911948.574    23911960.2334
  21227197.373   -15021280.037 9 -11680193.61647  21227199.824    21227207.3374
  21494212.876   -18458088.992 9 -14369091.78847  21494214.092    21494222.1134
  21453710.819   -17235556.354 9 -13398257.77447  21453714.461    21453720.6294
  20648969.498   -22505699.678 9 -17524420.71748  20648972.187    20648978.8974
  22255397.156   -11110412.786 8  -8635539.55946  22255400.588    22255408.8644
 00  5 25  0 51  0.0000000  0  7 17 05 09 21 29 23 15
  22911112.831   -10045204.250 8  -7610755.30045  22911120.337    22911129.5074
  23897471.176    -3369225.428 7  -2605040.32945  23897488.770    23897501.0554
  21237746.201   -14965846.272 9 -11636998.48247  21237748.751    21237755.4984
  21481235.616   -18526276.977 9 -14422225.25547  21481238.678    21481246.4564
  21444953.591   -17281576.477 9 -13434117.57847  21444957.232    21444963.7194
  20650018.202   -22500181.507 9 -17520120.83248  20650021.921    20650029.0474
  22242293.283   -11179258.184 8  -8689185.25346  22242299.399    22242307.6854
 00  5 25  0 51 30.0000000  0  7 17 05 09 21 29 23 15
  22932881.134    -9930838.704 8  -7521639.40545  22932883.027    22932892.1604
  23883071.476    -3445027.976 7  -2664107.08445  23883066.763    23883076.3114
  21248390.330   -14909886.294 9 -11593393.29847  21248397.502    21248404.5164
  21468296.241   -18594278.045 9 -14475213.05347  21468298.258    21468306.6364
  21436238.205   -17327367.411 9 -13469798.78247  21436243.069    21436250.1314
  20651133.880   -22494329.161 9 -17515560.56848  20651135.923    20651142.8134
  22229291.058   -11247608.887 8  -8742445.48146  22229292.710    22229300.2384
 00  5 25  0 52  0.0000000  0  7 17 05 09 21 29 23 15
  22954682.827    -9816254.544 8  -7432353.15545  22954687.942    22954696.8554
  23868667.842    -3520652.010 7  -2723034.68645  23868674.366    23868684.1494
  21259139.425   -14853402.557 9 -11549380.00047  21259145.248    21259152.8204
  21455389.216   -18662090.034 9 -14528053.53047  21455393.864    21455402.1724
  21427568.406   -17372929.420 9 -13505301.62647  21427572.570    21427579.5924
  20652308.138   -22488141.701 9 -17510739.15848  20652312.693    20652320.2474
  22216376.691   -11315462.455 8  -8795318.33146  22216380.317    22216389.5684
 00  5 25  0 52 30.0000000  0  7 17 05 09 21 29 23 15
  22976526.474    -9701454.862 8  -7342898.95445  22976533.294    22976543.2314
  23854302.042    -3596094.133 7  -2781820.65245  23854318.518    23854328.6514
  21269985.885   -14796397.451 9 -11504960.42547  21269992.625    21270000.1284
  21442523.081   -18729711.027 9 -14580745.16647  21442526.107    21442534.4864
  21418944.694   -17418262.514 9 -13540626.11847  21418946.454    21418952.8434
  20653551.314   -22481617.946 9 -17505655.70348  20653554.555    20653561.7974
  22203560.391   -11382816.402 8  -8847801.86246  22203563.298    22203572.6544
 00  5 25  0 53  0.0000000  0  7 17 05 09 21 29 23 15
  22998412.842    -9586442.324 8  -7253278.92545  22998418.744    22998429.8234
  23839999.535    -3671351.885 7  -2840462.87045  23839995.863    23840008.1884
  21280935.165   -14738873.082 9 -11460136.22847  21280939.554    21280946.9884
  21429691.313   -18797138.892 9 -14633286.31147  21429695.351    21429703.3954
  21410360.572   -17463366.755 9 -13575772.25247  21410363.068    21410369.8134
  20654855.925   -22474756.791 9 -17500309.35248  20654860.243    20654867.2194
  22190837.614   -11449668.315 8  -8899894.20046  22190841.567    22190849.8894
 00  5 25  0 53 30.0000000  0  7 17 05 09 21 29 23 15
  23020342.744    -9471220.159 8  -7163495.54945  23020345.442    23020355.7174
  23825711.841    -3746421.798 8  -2898958.74645  23825712.444    23825721.3394
  21291983.077   -14680831.621 9 -11414909.13247  21291984.963    21291991.5584
  21416897.122   -18864372.034 9 -14685675.73947  21416901.208    21416909.4904
  21401819.239   -17508242.896 9 -13610740.64647  21401823.180    21401830.1124
  20656226.485   -22467557.490 9 -17494699.50148  20656230.150    20656237.0104
  22178215.284   -11516015.655 8  -8951593.39146  22178217.030    22178224.1284
 00  5 25  0 54  0.0000000  0  7 17 05 09 21 29 23 15
  23042304.961    -9355791.630 7  -7073551.35345  23042310.741    23042321.5514
  23811460.045    -3821300.760 8  -2957305.86245  23811464.052    23811474.2124
  21303124.948   -14622275.252 9 -11369280.80947  21303127.888    21303134.1084
  21404141.568   -18931408.414 9 -14737911.85647  21404144.506    21404152.5384
  21393324.164   -17552890.413 9 -13645530.90247  21393327.462    21393334.0894
  20657661.571   -22460018.819 9 -17488825.21648  20657664.693    20657671.9304
  22165682.462   -11581856.292 8  -9002897.75846  22165687.305    22165695.4454
 00  5 25  0 54 30.0000000  0  7 17 05 09 21 29 23 15
  23064308.760    -9240159.769 8  -6983448.75345  23064313.721    23064325.4414
  23797245.034    -3895985.817 8  -3015501.87945  23797249.225    23797258.9384
  21314365.020   -14563206.538 9 -11323253.23647  21314367.967    21314375.1174
  21391421.533   -18998245.842 9 -14789992.94547  21391425.769    21391434.0774
  21384871.805   -17597310.097 9 -13680143.61447  21384874.319    21384881.5114
  20659160.850   -22452139.894 9 -17482685.79048  20659163.927    20659171.2074
  22153254.807   -11647187.925 8  -9053805.46146  22153255.395    22153263.1044
 00  5 25  0 55  0.0000000  0  7 17 05 09 21 29 23 15
  23086349.510    -9124327.475 8  -6893189.94845  23086357.460    23086366.7964
  23783073.616    -3970473.930 8  -3073544.41345  23783076.299    23783086.2334
  21325706.317   -14503627.725 9 -11276828.18347  21325705.299    21325712.8484
  21378742.180   -19064882.735 9 -14841917.78047  21378745.068    21378753.0834
  21376461.312   -17641501.896 9 -13714578.77147  21376464.814    21376472.2574
  20660723.957   -22443919.620 9 -17476280.38948  20660728.097    20660735.4414
  22140911.522   -11712007.936 8  -9104314.52846  22140918.986    22140928.2254
 00  5 25  0 55 30.0000000  0  7 17 05 09 21 29 23 15
  23108437.946    -9008297.870 8  -6802777.40245  23108436.999    23108446.9264
  23768937.395    -4044762.083 8  -3131431.14845  23768938.728    23768949.1054
  21337135.648   -14443541.285 9 -11230007.58947  21337139.502    21337147.0534
  21366099.404   -19131317.281 9 -14893684.92747  21366103.083    21366110.4064
  21368092.348   -17685466.104 8 -13748836.58047  21368098.126    21368106.4224
  20662356.303   -22435356.979 9 -17469608.20748  20662357.716    20662364.6104
  22128681.278   -11776313.940 8  -9154423.03946  22128682.561    22128691.0524
 00  5 25  0 56  0.0000000  0  7 17 05 09 21 29 23 15
  23130552.958    -8892074.106 8  -6712213.55945  23130553.361    23130562.8534
  23754837.619    -4118847.371 8  -3189159.79345  23754841.069    23754851.2724
  21348667.253   -14382949.943 9 -11182793.54547  21348669.377    21348676.7994
  21353497.084   -19197546.764 9 -14945292.26447  21353500.452    21353507.7194
  21359771.533   -17729202.749 9 -13782917.06047  21359775.587    21359783.7204
  20664047.446   -22426450.963 9 -17462668.45048  20664051.952    20664059.7124
  22116540.700   -11840103.495 8  -9204129.14546  22116543.535    22116551.9464
 00  5 25  0 56 30.0000000  0  7 17 05 09 21 29 23 15
  23152699.802    -8775658.971 8  -6621500.57345  23152706.717    23152716.9734
  23740769.955    -4192726.657 8  -3246727.94945  23740782.094    23740792.4974
  21360296.049   -14321855.714 9 -11135187.64347  21360295.189    21360302.6464
  21340934.994   -19263569.377 9 -14996738.42947  21340937.344    21340943.8324
  21351492.167   -17772712.451 9 -13816820.72247  21351496.240    21351503.8604
  20665810.950   -22417200.552 9 -17455460.33948  20665812.606    20665819.9614
  22104500.313   -11903374.341 8  -9253431.06246  22104503.570    22104512.3964
 00  5 25  0 57  0.0000000  0  7 17 05 09 21 29 23 15
  23174889.903    -8659055.635 8  -6530640.95845  23174895.428    23174905.7314
  23726764.135    -4266396.873 8  -3304133.18945  23726763.028    23726772.2014
  21372011.626   -14260260.921 9 -11087191.68747  21372016.569    21372023.5864
  21328411.377   -19329383.299 9 -15048021.98947  21328413.408    21328419.5364
  21343256.917   -17815995.185 9 -13850547.51347  21343259.534    21343267.0614
  20667635.469   -22407604.756 9 -17447983.10848  20667638.458    20667645.6434
  22092560.307   -11966124.503 8  -9302327.23446  22092562.496    22092571.8104
 00  5 25  0 57 30.0000000  0  7 17 05 09 21 29 23 15
  23197113.546    -8542267.048 8  -6439637.00345  23197119.371    23197130.0124
  23712779.005    -4339855.048 8  -3361373.18845  23712785.133    23712793.9944
  21383831.384   -14198168.169 9 -11038807.73147  21383833.099    21383839.6634
  21315926.384   -19394986.271 9 -15099141.17047  21315929.158    21315935.6904
  21335063.097   -17859051.048 9 -13884097.50947  21335066.737    21335073.7674
  20669526.507   -22397662.492 9 -17440235.88548  20669530.396    20669537.7674
  22080718.126   -12028351.385 8  -9350815.65146  22080721.070    22080731.0444
 00  5 25  0 58  0.0000000  0  7 17 05 09 21 29 23 15
  23219375.534    -8425296.309 8  -6348491.14646  23219378.740    23219389.7514
  23698847.983    -4413098.196 8  -3418445.65445  23698846.358    23698856.9304
  21395739.803   -14135579.708 9 -10990037.49347  21395743.022    21395749.4934
  21303481.789   -19460376.953 9 -15150094.90747  21303485.406    21303492.6824
  21326913.063   -17901880.449 9 -13917471.04847  21326916.236    21326923.4814
  20671485.733   -22387372.764 9 -17432217.92648  20671488.950    20671495.9134
  22068976.982   -12090052.673 8  -9398894.50846  22068979.481    22068989.1984
 00  5 25  0 58 30.0000000  0  7 17 05 09 21 29 23 15
  23241664.206    -8308146.651 8  -6257205.82946  23241671.766    23241682.1644
  23684947.375    -4486123.264 8  -3475348.16445  23684950.078    23684960.2464
  21407745.727   -14072497.988 9 -10940882.90347  21407747.186    21407753.3914
  21291079.674   -19525552.867 9 -15200881.29747  21291082.527    21291090.4434
  21318806.452   -17944483.591 9 -13950668.26247  21318809.019    21318816.4574
  20673509.281   -22376734.685 9 -17423928.51047  20673513.125    20673519.9794
  22057337.062   -12151226.215 8  -9446562.14046  22057338.722    22057348.2694
 00  5 25  0 59  0.0000000  0  7 17 05 09 21 29 23 15
  23263997.910    -8190820.924 8  -6165783.33246  23263998.533    23264008.3544
  23671098.517    -4558927.321 8  -3532078.47445  23671097.196    23671105.8894
  21419839.304   -14008925.827 9 -10891346.14747  21419844.328    21419851.4214
  21278716.325   -19590511.979 9 -15251498.76047  21278721.202    21278729.1214
  21310740.860   -17986860.582 9 -13983689.29447  21310745.010    21310752.7924
  20675600.750   -22365747.315 9 -17415366.91847  20675604.024    20675610.9524
  22045796.783   -12211869.774 8  -9493816.83446  22045799.388    22045808.0664
 00  5 25  0 59 30.0000000  0  7 17 05 09 21 29 23 15
  23286355.937    -8073322.251 8  -6074226.07046  23286358.104    23286368.0624
  23657267.271    -4631507.221 8  -3588634.12045  23657284.034    23657296.3304
  21432032.253   -13944865.327 9 -10841428.87647  21432034.456    21432041.9794
  21266400.004   -19655252.019 9 -15301945.52447  21266402.051    21266409.2134
  21302721.443   -18029011.835 9 -14016534.42047  21302724.401    21302731.6844
  20677757.700   -22354409.786 9 -17406532.48447  20677761.454    20677768.7024
  22034357.283   -12271981.068 8  -9540656.74147  22034360.100    22034368.6084
 00  5 25  1  0  0.0000000  0  7 17 05 09 21 29 23 15
  23308746.432    -7955653.792 8  -5982536.49546  23308750.126    23308759.9414
  23643517.252    -4703859.993 8  -3645012.76645  23643516.224    23643526.1994
  21444313.682   -13880318.823 9 -10791132.89847  21444317.087    21444324.6904
  21254120.766   -19719771.457 9 -15352220.35947  21254124.297    21254131.6834
  21294742.596   -18070937.306 9 -14049203.59347  21294746.270    21294753.6264
  20679983.388   -22342721.006 9 -17397424.34847  20679985.892    20679992.7354
  22023020.455   -12331557.901 8  -9587080.19947  22023023.010    22023031.7814
 00  5 25  1  0 30.0000000  0  7 17 05 09 21 29 23 15
  23331171.215    -7837818.532 8  -5890716.96246  23331173.285    23331183.5564
  23629787.888    -4775982.590 7  -3701212.07145  23629791.616    23629802.0004
  21456689.323   -13815288.954 9 -10740460.26447  21456692.031    21456699.5664
  21241885.451   -19784068.259 9 -15402321.72147  21241888.661    21241896.3144
  21286807.749   -18112637.304 9 -14081697.06647  21286811.319    21286817.6794
  20682273.360   -22330679.948 9 -17388041.70347  20682277.119    20682283.9064
  22011784.959   -12390598.259 8  -9633085.62547  22011787.697    22011796.2214
 00  5 25  1  1  0.0000000  0  7 17 05 09 21 29 23 15
  23353623.662    -7719819.552 8  -5798769.87846  23353628.544    23353638.1594
  23616115.826    -4847871.878 8  -3757229.59245  23616112.346    23616121.4194
  21469153.992   -13749778.442 9 -10689413.09647  21469158.100    21469165.6304
  21229695.008   -19848140.031 9 -15452247.74147  21229696.898    21229703.6274
  21278914.841   -18154112.182 9 -14114015.14347  21278918.527    21278924.8554
  20684632.023   -22318285.757 9 -17378383.89347  20684635.637    20684642.8054
  22000651.324   -12449099.889 8  -9678671.27346  22000655.059    22000663.0414
 00  5 25  1  1 30.0000000  0  7 17 05 09 21 29 23 15
  23376110.340    -7601659.964 8  -5706697.60945  23376113.120    23376122.6134
  23602472.779    -4919524.887 8  -3813062.95945  23602476.530    23602485.6834
  21481713.007   -13683789.725 9 -10637993.30847  21481715.413    21481722.7254
  21217542.906   -19911985.262 9 -15501997.25647  21217547.314    21217554.0394
  21271065.418   -18195362.170 9 -14146157.94947  21271068.754    21271075.7504
  20687056.887   -22305537.541 9 -17368450.22347  20687061.431    20687068.5844
  21989622.293   -12507060.633 8  -9723835.42246  21989625.464    21989634.1224
 00  5 25  1  2  0.0000000  0  7 17 05 09 21 29 23 15
  23398623.493    -7483342.881 8  -5614502.65645  23398627.691    23398638.1164
  23588887.023    -4990938.629 8  -3868709.90845  23588886.133    23588896.7144
  21494360.314   -13617325.390 9 -10586202.92347  21494362.992    21494370.7734
  21205437.802   -19975601.664 9 -15551568.46747  21205441.333    21205448.3174
  21263259.683   -18236387.433 9 -14178125.65647  21263262.120    21263268.9644
  20689552.810   -22292434.244 9 -17358239.85247  20689554.730    20689561.9364
  21978694.031   -12564478.371 8  -9768576.46246  21978699.251    21978707.6534
 00  5 25  1  2 30.0000000  0  7 17 05 09 21 29 23 15
  23421162.163    -7364871.201 8  -5522187.22445  23421173.252    23421182.7604
  23575333.036    -5062110.176 8  -3924168.13845  23575342.369    23575353.4764
  21507095.802   -13550387.680 8 -10534043.67347  21507100.680    21507108.1614
  21193377.542   -20038986.946 9 -15600959.57747  21193379.442    21193386.6824
  21255493.454   -18277188.103 9 -14209918.34947  21255497.470    21255504.3254
  20692113.646   -22278975.056 9 -17347752.17647  20692116.045    20692123.4674
  21967873.953   -12621350.931 8  -9812892.67546  21967876.744    21967885.7234
 00  5 25  1  3  0.0000000  0  7 17 05 09 21 29 23 15
  23443738.161    -7246247.942 8  -5429753.67345  23443745.804    23443755.3394
  23561841.334    -5133036.644 8  -3979435.38845  23561845.810    23561855.5614
  21519923.203   -13482979.260 9 -10481517.62247  21519928.245    21519935.6544
  21181357.106   -20102139.052 9 -15650168.96347  21181361.744    21181369.3154
  21247772.266   -18317764.683 9 -14241536.46247  21247776.111    21247782.5074
  20694740.784   -22265159.036 9 -17336986.45947  20694744.885    20694752.6184
  21957158.281   -12677676.181 8  -9856782.43346  21957158.649    21957166.2824
 00  5 25  1  3 30.0000000  0  7 17 05 09 21 29 23 15
  23466346.184    -7127476.247 8  -5337204.46945  23466347.403    23466358.4204
  23548389.437    -5203714.844 8  -4034509.20045  23548397.246    23548404.8254
  21532842.528   -13415102.793 9 -10428626.84847  21532844.566    21532851.8224
  21169385.696   -20165056.359 9 -15699195.40647  21169389.012    21169396.6854
  21240092.508   -18358117.129 9 -14272979.88447  21240097.086    21240104.0514
  20697441.459   -22250985.339 9 -17325942.02347  20697442.544    20697449.8684
  21946542.155   -12733451.999 8  -9900244.05646  21946544.697    21946552.9474
 00  5 25  1  4  0.0000000  0  7 17 05 09 21 29 23 15
  23488972.657    -7008559.025 8  -5244541.85645  23488976.543    23488987.7554
  23534991.684    -5274141.621 7  -4089387.10345  23534994.420    23535003.1464
  21545846.714   -13346760.763 9 -10375373.32547  21545850.016    21545856.9444
  21157457.790   -20227736.277 9 -15748036.88147  21157461.434    21157468.4364
  21232458.372   -18398245.879 9 -14304249.00147  21232461.317    21232467.9784
  20700203.748   -22236453.055 9 -17314618.20647  20700207.752    20700215.3474
  21936033.967   -12788676.480 8  -9943276.06846  21936035.229    21936043.8124
 00  5 25  1  4 30.0000000  0  7 17 05 09 21 29 23 15
  23511631.270    -6889499.430 8  -5151768.32745  23511632.974    23511644.0054
  23521641.290    -5344314.097 8  -4144066.84845  23521640.263    23521650.8474
  21558938.011   -13277955.759 9 -10321759.03847  21558943.220    21558950.0754
  21145575.828   -20290176.573 9 -15796691.62847  21145578.475    21145586.9244
  21224863.965   -18438151.057 9 -14335343.92547  21224867.381    21224874.4264
  20703038.646   -22221561.190 9 -17303014.13547  20703041.372    20703049.1054
  21925628.183   -12843347.272 8  -9985876.64446  21925631.609    21925640.0404
 00  5 25  1  5  0.0000000  0  7 17 05 09 21 29 23 15
  23534306.882    -6770300.586 8  -5058886.29645  23534316.328    23534327.5594
  23508330.610    -5414229.187 8  -4198546.01445  23508335.990    23508345.8104
  21572118.142   -13208690.217 9 -10267785.88247  21572123.682    21572131.4474
  21133738.070   -20352375.453 9 -15845158.26947  21133742.663    21133750.5424
  21217311.288   -18477832.812 9 -14366264.73447  21217316.114    21217323.3014
  20705941.981   -22206308.976 9 -17291129.28748  20705944.290    20705951.5334
  21915329.860   -12897462.592 8 -10028044.36447  21915334.030    21915342.7344
 00  5 25  1  5 30.0000000  0  7 17 05 09 21 29 23 15
  23557023.697    -6650965.433 8  -4965898.04645  23557025.279    23557035.5384
  23495085.060    -5483883.995 8  -4252822.41745  23495082.897    23495091.1894
  21585388.374   -13138966.965 9 -10213456.06347  21585391.966    21585398.4644
  21121950.028   -20414330.602 9 -15893434.98647  21121953.398    21121960.6764
  21209802.636   -18517291.685 9 -14397011.88947  21209807.357    21209814.3224
  20708911.872   -22190695.520 9 -17278962.96848  20708915.434    20708922.5934
  21905140.483   -12951020.401 8 -10069777.67147  21905142.627    21905151.0464
 00  5 25  1  6  0.0000000  0  7 17 05 09 21 29 23 15
  23579757.192    -6531497.052 8  -4872805.96245  23579759.343    23579770.4414
  23481861.752    -5553275.638 8  -4306893.72445  23481876.088    23481887.2294
  21598740.251   -13068788.577 9 -10158771.58347  21598746.299    21598753.2174
  21110205.973   -20476040.172 9 -15941520.33147  21110210.223    21110218.2664
  21202337.291   -18556527.495 9 -14427585.20747  21202340.691    21202348.2004
  20711954.077   -22174719.808 9 -17266514.36748  20711955.445    20711962.7844
  21895053.854   -13004018.690 8 -10111074.99147  21895056.897    21895066.6524
 00  5 25  1  6 30.0000000  0  7 17 05 09 21 29 23 15
  23602508.930    -6411898.218 7  -4779612.26645  23602517.307    23602529.6894
  23468719.007    -5622401.133 8  -4360757.63045  23468722.637    23468732.5014
  21612183.324   -12998157.599 9 -10103734.45247  21612186.555    21612193.4654
  21098510.817   -20537501.821 9 -15989412.50247  21098514.147    21098522.3184
  21194912.899   -18595540.754 9 -14457985.12647  21194916.885    21194924.0524
  20715060.306   -22158380.966 9 -17253782.80147  20715064.472    20715071.5784
  21885074.648   -13056455.646 8 -10151934.91047  21885079.018    21885087.2384
 00  5 25  1  7  0.0000000  0  7 17 05 09 21 29 23 15
  23625295.148    -6292172.060 7  -4686319.35445  23625299.785    23625313.1204
  23455621.775    -5691257.712 8  -4414411.99845  23455619.416    23455630.0334
  21625711.393   -12927076.548 9 -10048346.61747  21625713.541    21625719.6764
  21086862.288   -20598714.128 9 -16037110.38047  21086866.081    21086873.6284
  21187532.833   -18634331.635 9 -14488211.75847  21187535.320    21187541.7624
  20718241.016   -22141678.427 9 -17240767.84847  20718242.808    20718250.0084
  21875208.027   -13108329.231 8 -10192355.85247  21875208.284    21875215.1274
 00  5 25  1  7 30.0000000  0  7 17 05 09 21 29 23 15
  23648103.557    -6172321.640 7  -4592929.59045  23648108.224    23648119.8834
  23442567.943    -5759842.096 8  -4467854.29645  23442567.546    23442577.4184
  21639320.215   -12855548.184 9  -9992610.24047  21639324.743    21639331.4174
  21075261.286   -20659674.828 9 -16084612.20447  21075265.662    21075273.0634
  21180192.573   -18672900.214 9 -14518265.14047  21180195.898    21180202.6554
  20721488.546   -22124611.172 9 -17227468.68347  20721490.827    20721497.5824
  21865442.507   -13159637.377 8 -10232336.19247  21865444.983    21865451.8044
 00  5 25  1  8  0.0000000  0  7 17 05 09 21 29 23 15
  23670940.154    -6052350.073 7  -4499445.45645  23670938.121    23670949.3504
  23429562.589    -5828151.406 8  -4521082.25845  23429569.300    23429578.7194
  21653017.632   -12783575.074 9  -9936527.31047  21653020.646    21653027.5484
  21063709.857   -20720381.266 9 -16131915.89847  21063714.129    21063721.0324
  21172894.616   -18711247.100 9 -14548145.79447  21172898.651    21172905.6944
  20724805.286   -22107178.337 9 -17213884.64947  20724808.239    20724815.5514
  21855787.279   -13210378.246 8 -10271874.49047  21855789.165    21855796.8044
 00  5 25  1  8 30.0000000  0  7 17 05 09 21 29 23 15
  23693787.854    -5932260.503 7  -4405869.37345  23693790.173    23693801.3004
  23416614.085    -5896182.589 8  -4574093.52145  23416622.898    23416632.5544
  21666798.457   -12711159.717 8  -9880099.76647  21666800.928    21666807.3014
  21052207.448   -20780831.574 9 -16179020.00747  21052210.604    21052218.0604
  21165641.218   -18749372.166 9 -14577853.59647  21165643.782    21165650.3834
  20728191.046   -22089379.036 9 -17200015.06147  20728194.887    20728202.6154
  21846236.551   -13260549.846 8 -10310969.21447  21846241.123    21846248.9904
 00  5 25  1  9  0.0000000  0  7 17 05 09 21 29 23 15
  23716666.324    -5812055.858 7  -4312203.61545  23716666.137    23716675.7674
  23403725.829    -5963932.828 8  -4626885.82145  23403730.982    23403741.1474
  21680662.293   -12638304.938 8  -9823329.82647  21680664.446    21680671.6274
  21040753.089   -20841023.388 9 -16225922.68847  21040756.475    21040764.1484
  21158426.310   -18787275.924 9 -14607388.97847  21158431.101    21158437.4004
  20731649.134   -22071212.608 9 -17185859.40447  20731652.125    20731659.3574
  21836799.448   -13310150.310 8 -10349618.90547  21836802.896    21836810.5754
 00  5 25  1  9 30.0000000  0  7 17 05 09 21 29 23 15
  23739559.891    -5691739.111 8  -4218450.51445  23739561.953    23739571.1634
  23390883.721    -6031398.920 8  -4679456.74445  23390892.031    23390902.4594
  21694609.298   -12565013.379 8  -9766219.53647  21694611.048    21694618.6574
  21029348.920   -20900955.117 9 -16272622.73147  21029352.005    21029359.7314
  21151256.403   -18824958.371 9 -14636751.90047  21151260.226    21151266.5284
  20735175.794   -22052678.334 9 -17171417.11947  20735179.084    20735186.3864
  21827469.297   -13359177.840 8 -10387822.15747  21827473.187    21827480.8244
 00  5 25  1 10  0.0000000  0  7 17 05 09 21 29 23 15
  23762480.656    -5571313.162 8  -4124612.30345  23762478.417    23762487.0884
  23378101.160    -6098578.321 8  -4731804.24545  23378107.120    23378118.0344
  21708638.757   -12491287.611 8  -9708770.87847  21708640.605    21708648.0394
  21017994.679   -20960624.123 9 -16319118.02547  21017996.865    21018004.8234
  21144128.852   -18862419.868 9 -14665942.65347  21144131.662    21144137.8984
  20738774.237   -22033775.153 9 -17156687.35947  20738776.405    20738783.3874
  21818249.566   -13407630.673 8 -10425577.56147  21818252.464    21818260.3074
 00  5 25  1 10 30.0000000  0  7 17 05 09 21 29 23 15
  23785408.534    -5450781.385 7  -4030691.63845  23785413.411    23785424.6884
  23365379.601    -6165468.055 8  -4783926.01245  23365378.907    23365388.8604
  21722745.310   -12417130.384 8  -9650986.02547  21722752.534    21722759.8774
  21006689.028   -21020028.433 9 -16365407.06047  21006692.381    21006700.2974
  21137039.413   -18899660.726 9 -14694961.46547  21137044.566    21137051.1144
  20742439.812   -22014502.385 9 -17141669.63747  20742443.716    20742450.8814
  21809138.134   -13455506.864 8 -10462883.65247  21809142.089    21809149.6284
 00  5 25  1 11  0.0000000  0  7 17 05 09 21 29 23 15
  23808368.724    -5330146.803 7  -3936690.85945  23808370.749    23808380.4184
  23352708.629    -6232065.130 8  -4835819.76345  23352707.273    23352716.6314
  21736947.108   -12342544.200 8  -9592866.94547  21736945.595    21736952.7824
  20995435.542   -21079165.795 9 -16411488.11347  20995439.597    20995446.4504
  21129997.878   -18936681.147 9 -14723808.51447  21129999.862    21130006.4574
  20746180.226   -21994859.183 9 -17126363.23547  20746181.626    20746189.2244
  21800139.595   -13502804.793 8 -10499739.16747  21800141.261    21800148.9914
 00  5 25  1 11 30.0000000  0  7 17 05 09 21 29 23 15
  23831337.498    -5209412.231 7  -3842612.13745  23831345.833    23831355.4994
  23340091.496    -6298366.531 8  -4887483.09745  23340089.417    23340099.3534
  21751215.804   -12267531.661 8  -9534415.61247  21751220.108    21751228.4754
  20984235.061   -21138034.036 9 -16457359.46347  20984237.159    20984244.4834
  21122993.603   -18973481.234 9 -14752483.87747  21122997.559    21123003.4114
  20749986.718   -21974844.854 9 -17110767.66147  20749990.292    20749997.3874
  21791248.353   -13549522.620 8 -10536142.65747  21791251.792    21791259.4904
 00  5 25  1 12  0.0000000  0  7 17 05 09 21 29 23 15
  23854339.914    -5088580.589 7  -3748457.79245  23854339.674    23854348.7984
  23327528.864    -6364369.403 8  -4938913.81145  23327529.503    23327539.0414
  21765573.220   -12192095.491 8  -9475634.21447  21765574.718    21765582.5874
  20973083.795   -21196631.622 9 -16503019.88847  20973086.454    20973093.8104
  21116032.410   -19010061.234 9 -14780987.76047  21116036.737    21116042.9054
  20753866.553   -21954458.607 9 -17094882.28947  20753869.368    20753876.4624
  21782466.990   -13595658.556 8 -10572092.68947  21782471.777    21782479.7124
 00  5 25  1 12 30.0000000  0  7 17 05 09 21 29 23 15
  23877331.905    -4967654.851 7  -3654230.12645  23877350.215    23877360.2874
  23315021.498    -6430070.980 8  -4990109.76445  23315026.069    23315036.3964
  21780003.211   -12116238.660 8  -9416525.03747  21780009.962    21780017.9134
  20961982.964   -21254956.258 9 -16548467.62547  20961987.003    20961995.1304
  21109114.405   -19046421.600 9 -14809320.51047  21109117.488    21109123.5824
  20757818.392   -21933699.596 9 -17078706.43547  20757819.849    20757826.8804
  21773799.400   -13641210.683 8 -10607587.82847  21773803.395    21773810.8034
 00  5 25  1 13  0.0000000  0  7 17 05 09 21 29 23 15
  23900376.274    -4846637.955 7  -3559931.45345  23900379.526    23900390.8194
  23302579.777    -6495468.149 8  -5041068.51446  23302583.142    23302591.6724
  21794522.831   -12039963.861 8  -9357090.15747  21794525.151    21794533.0274
  20950938.045   -21313005.405 9 -16593700.71847  20950941.101    20950948.7244
  21102235.412   -19082562.321 9 -14837482.06847  21102239.504    21102246.4254
  20761837.888   -21912567.120 9 -17062239.57847  20761841.326    20761848.6294
  21765242.977   -13686177.808 8 -10642627.11447  21765246.820    21765254.0604
 00  5 25  1 13 30.0000000  0  7 17 05 09 21 29 23 15
  23923427.390    -4725532.860 7  -3465564.07045  23923425.225    23923436.0044
  23290190.317    -6560558.179 8  -5091787.89946  23290196.455    23290205.7904
  21809114.382   -11963273.738 8  -9297331.62447  21809118.372    21809126.1344
  20939943.737   -21370776.926 9 -16638717.47147  20939947.022    20939954.7944
  21095402.036   -19118483.630 9 -14865472.68447  21095404.065    21095410.8074
  20765930.646   -21891060.479 9 -17045481.15547  20765933.683    20765941.1114
  21756799.234   -13730558.147 8 -10677209.17847  21756801.314    21756809.1534
 00  5 25  1 14  0.0000000  0  7 17 05 09 21 29 23 15
  23946494.577    -4604342.844 7  -3371130.55044  23946487.268    23946498.1224
  23277861.120    -6625338.106 8  -5142265.68146  23277868.953    23277878.2984
  21823789.087   -11886170.993 8  -9237251.58847  21823791.153    21823798.8214
  20929002.344   -21428269.071 9 -16683516.52947  20929006.824    20929014.5314
  21088605.756   -19154186.219 9 -14893292.88947  21088610.166    21088616.9294
  20770094.658   -21869178.938 9 -17028430.61147  20770097.649    20770105.2084
  21748463.249   -13774349.793 8 -10711332.50447  21748467.974    21748476.0564
 00  5 25  1 14 30.0000000  0  7 17 05 09 21 29 23 15
  23969572.372    -4483070.706 7  -3276633.04745  23969562.959    23969576.2174
  23265598.463    -6689805.025 8  -5192499.56546  23265602.253    23265611.0924
  21838534.754   -11808658.243 8  -9176852.07147  21838541.049    21838548.7674
  20918118.241   -21485478.915 9 -16728095.60847  20918120.520    20918127.7244
  21081855.632   -19189669.648 9 -14920942.28747  21081857.803    21081864.4284
  20774330.786   -21846921.742 9 -17011087.36947  20774333.142    20774340.6444
  21740241.443   -13817551.184 8 -10744995.91447  21740246.883    21740255.2224
 00  5 25  1 15  0.0000000  0  7 17 05 09 21 29 23 15
  23992653.253    -4361719.708 7  -3182074.01945  23992657.074    23992668.4014
  23253392.752    -6753956.049 8  -5242487.27246  23253394.480    23253402.8074
  21853361.767   -11730738.374 8  -9116135.29947  21853368.594    21853376.1134
  20907285.468   -21542404.832 9 -16772453.44147  20907287.789    20907294.9664
  21075145.183   -19224934.613 9 -14948421.43547  21075147.494    21075153.7074
  20778637.082   -21824288.308 9 -16993450.96247  20778640.499    20778647.8654
  21732133.973   -13860160.737 8 -10778198.13147  21732137.997    21732146.6084
 00  5 25  1 15 30.0000000  0  7 17 05 09 21 29 23 15
  24015765.925    -4240292.531 7  -3087455.60745  24015763.741    24015775.7724
  23241241.434    -6817788.013 8  -5292226.39446  23241246.338    23241256.0924
  21868273.266   -11652413.855 8  -9055103.19047  21868273.299    21868281.0544
  20896507.496   -21599044.670 9 -16816588.37247  20896509.903    20896517.0934
  21068473.731   -19259981.282 9 -14975730.52747  21068478.400    21068484.5814
  20783015.416   -21801277.934 9 -16975520.83947  20783018.905    20783026.3444
  21724142.360   -13902176.957 8 -10810938.01547  21724143.402    21724152.0674
 00  5 25  1 16  0.0000000  0  7 17 05 09 21 29 23 15
  24038888.473    -4118792.088 7  -2992780.18345  24038885.770    24038896.3504
  23229157.153    -6881298.379 8  -5341714.90746  23229160.157    23229170.1944
  21883249.666   -11573687.490 8  -8993757.96847  21883254.668    21883262.5024
  20885782.875   -21655396.367 9 -16860498.80247  20885786.176    20885793.6194
  21061844.940   -19294809.887 9 -15002869.67847  21061850.321    21061856.9074
  20787466.728   -21777890.016 9 -16957296.55647  20787469.503    20787477.3034
  21716258.853   -13943598.121 8 -10843214.21747  21716261.029    21716268.1984
 00  5 25  1 16 30.0000000  0  7 17 05 09 21 29 23 15
  24062007.103    -3997221.564 7  -2898050.11345  24062020.527    24062031.7544
  23217126.254    -6944484.460 8  -5390950.72046  23217136.683    23217145.6534
  21898309.171   -11494562.184 8  -8932101.89047  21898311.687    21898319.0734
  20875115.670   -21711457.547 9 -16904182.84047  20875117.955    20875125.7954
  21055259.172   -19329420.532 9 -15029839.01147  21055263.706    21055270.7694
  20791989.573   -21754124.009 9 -16938777.78947  20791992.404    20791999.8774
  21708488.210   -13984422.584 8 -10875025.44947  21708492.290    21708499.9784
 00  5 25  1 17  0.0000000  0  7 17 05 09 21 29 23 15
  24085168.115    -3875583.814 7  -2803267.67244  24085164.214    24085178.1004
  23205169.685    -7007343.286 8  -5439931.54345  23205175.273    23205183.2714
  21913440.849   -11415040.648 8  -8870137.04747  21913444.062    21913452.2224
  20864501.270   -21767226.014 9 -16947638.76047  20864505.583    20864513.2694
  21048713.945   -19363813.416 9 -15056638.63847  21048718.297    21048725.7974
  20796584.187   -21729978.677 9 -16919963.26847  20796586.872    20796594.3704
  21700834.352   -14024649.036 8 -10906370.71447  21700837.700    21700845.2114
 00  5 25  1 17 30.0000000  0  7 17 05 09 21 29 23 15
  24108322.449    -3753881.898 7  -2708435.27444  24108326.226    24108337.7114
  23193271.101    -7069871.867 8  -5488655.04346  23193276.911    23193285.1064
  21928650.194   -11335125.445 8  -8807865.50247  21928651.571    21928659.1434
  20853946.854   -21822699.744 9 -16990865.05947  20853949.470    20853956.9244
  21042213.089   -19397988.942 9 -15083268.91147  21042214.980    21042222.4104
  20801248.764   -21705453.494 9 -16900852.82347  20801253.938    20801261.0604
  21693294.045   -14064275.914 8 -10937248.78047  21693296.833    21693304.6394
 00  5 25  1 18  0.0000000  0  6 05 09 21 29 23 15
  23181434.701    -7132067.470 8  -5537119.07446  23181441.069    23181450.6324
  21943931.664   -11254819.465 8  -8745289.40547  21943932.939    21943940.6724
  20843447.822   -21877876.065 9 -17033859.58447  20843449.801    20843457.2444
  21035747.694   -19431947.251 9 -15109729.88847  21035752.882    21035760.4154
  20805989.774   -21680547.628 9 -16881445.55447  20805993.503    20806000.4854
  21685866.251   -14103301.900 8 -10967658.62147  21685870.386    21685877.7824
 00  5 25  1 18 30.0000000  0  6 05 09 21 29 23 15
  23169667.678    -7193927.196 8  -5585321.39146  23169669.315    23169679.3224
  21959286.927   -11174125.459 8  -8682410.99947  21959288.642    21959296.0964
  20833002.592   -21932753.538 9 -17076621.21648  20833006.995    20833014.6114
  21029330.297   -19465688.852 9 -15136022.06047  21029332.828    21029340.0244
  20810801.667   -21655260.916 9 -16861741.62147  20810805.548    20810812.5394
  21678556.984   -14141725.529 8 -10997599.09147  21678559.288    21678566.4814
 00  5 25  1 19  0.0000000  0  6 05 09 21 29 23 15
  23157958.448    -7255448.353 8  -5633259.88445  23157961.653    23157971.5194
  21974715.642   -11093046.047 8  -8619232.26447  21974717.786    21974724.4774
  20822618.109   -21987329.479 9 -17119147.90847  20822621.303    20822628.8124
  21022949.601   -19499213.549 9 -15162145.20047  21022953.323    21022959.8024
  20815687.776   -21629592.691 9 -16841740.48647  20815689.954    20815697.0864
  21671357.949   -14179545.079 8 -11027068.85947  21671362.234    21671368.9744
 00  5 25  1 19 30.0000000  0  6 05 09 21 29 23 15
  23146316.439    -7316628.219 8  -5680932.42445  23146318.945    23146328.9834
  21990215.192   -11011583.917 8  -8555755.31547  21990218.877    21990226.9704
  20812290.282   -22041601.631 9 -17161437.89147  20812293.741    20812301.4084
  21016613.883   -19532521.715 9 -15188099.57247  21016615.628    21016621.3784
  20820644.075   -21603541.932 9 -16821441.16147  20820647.224    20820654.3234
  21664275.674   -14216759.384 8 -11056067.01547  21664279.765    21664287.8624
 00  5 25  1 20  0.0000000  0  6 05 09 21 29 23 15
  23134740.015    -7377463.907 8  -5728336.77945  23134742.581    23134752.0284
  22005793.101   -10929741.979 8  -8491982.44647  22005793.883    22005799.7964
  20802020.880   -22095568.152 9 -17203489.72847  20802024.251    20802031.6364
  21010315.168   -19565613.821 9 -15213885.64047  21010318.365    21010323.8954
  20825673.119   -21577108.570 9 -16800843.83947  20825677.243    20825685.1544
  21657308.876   -14253366.777 8 -11084592.26047  21657312.780    21657322.2374
 00  5 25  1 20 30.0000000  0  6 05 09 21 29 23 15
  23123231.080    -7437952.667 8  -5775470.83346  23123233.698    23123241.1494
  22021436.198   -10847522.997 8  -8427915.71647  22021439.232    22021446.3144
  20791810.336   -22149227.292 9 -17245302.04747  20791813.491    20791820.5254
  21004058.242   -19598489.719 9 -15239503.22347  21004061.943    21004067.9514
  20830777.087   -21550291.633 9 -16779947.62047  20830780.211    20830787.8884
  21650458.931   -14289366.049 8 -11112643.63947  21650462.530    21650471.4584
 00  5 25  1 21  0.0000000  0  6 05 09 21 29 23 15
  23111783.014    -7498091.541 8  -5822332.23745  23111789.133    23111797.8354
  22037150.698   -10764929.987 8  -8363557.52746  22037155.827    22037162.4864
  20781658.252   -22202576.045 9 -17286872.50847  20781661.795    20781668.6344
  20997843.559   -19631149.740 9 -15264952.57747  20997846.606    20997853.0064
  20835954.063   -21523090.575 9 -16758751.97047  20835956.663    20835964.2334
  21643724.224   -14324756.024 8 -11140220.25447  21643728.420    21643736.7534
 00  5 25  1 21 30.0000000  0  6 05 09 21 29 23 15
  23100405.174    -7557877.770 8  -5868918.83645  23100412.117    23100420.7564
  22052940.711   -10681965.560 8  -8298909.90147  22052943.592    22052950.9424
  20771565.946   -22255612.166 9 -17328199.35448  20771569.225    20771576.1134
  20991668.583   -19663594.293 9 -15290234.02247  20991672.745    20991678.7374
  20841203.116   -21495504.875 9 -16737256.62347  20841205.960    20841213.5694
  21637107.982   -14359535.491 8 -11167321.14347  21637110.385    21637118.1974
 00  5 25  1 22  0.0000000  0  6 05 09 21 29 23 15
  23089095.733    -7617308.709 8  -5915228.58945  23089101.638    23089111.3624
  22068796.358   -10598632.338 8  -8233974.95146  22068800.795    22068808.2984
  20761534.020   -22308333.800 9 -17369281.10648  20761536.427    20761543.7044
  20985536.532   -19695823.530 9 -15315347.70547  20985540.045    20985545.8314
  20846525.675   -21467533.997 9 -16715461.11647  20846528.538    20846536.1364
  21630606.362   -14393702.996 8 -11193945.17747  21630609.465    21630615.9734
 00  5 25  1 22 30.0000000  0  6 05 09 21 29 23 15
  23077859.454    -7676381.741 8  -5961259.45745  23077860.175    23077869.9044
  22084722.051   -10514933.009 8  -8168754.69047  22084728.603    22084736.3994
  20751559.545   -22360739.095 9 -17410116.39448  20751563.790    20751571.2814
  20979443.861   -19727837.574 9 -15340293.72647  20979448.002    20979454.5984
  20851922.222   -21439177.385 9 -16693365.08647  20851924.713    20851932.1574
  21624220.676   -14427257.342 9 -11220091.43247  21624224.170    21624230.3264
 00  5 25  1 23  0.0000000  0  7 17 05 09 21 29 23 15
  24363736.637      116088.43117
  23066682.224    -7735093.990 8  -6007009.18745  23066687.734    23066697.7024
  22100721.082   -10430870.555 8  -8103251.56347  22100725.356    22100732.6404
  20741649.288   -22412825.567 9 -17450703.28948  20741652.347    20741659.7704
  20973392.730   -19759636.474 9 -15365072.08847  20973396.517    20973403.5794
  20857389.843   -21410434.560 9 -16670968.06347  20857394.006    20857402.1114
  21617953.545   -14460197.181 8 -11245758.84247  21617955.908    21617962.1894
 00  5 25  1 23 30.0000000  0  7 17 05 09 21 29 23 15
  24386975.424      238331.265 7    159632.24554  24386987.720    24387000.1574
  23055587.769    -7793442.753 8  -6052475.68946  23055584.890    23055594.4674
  22116787.650   -10346447.852 8  -8037467.64747  22116790.527    22116797.8294
  20731799.174   -22464590.485 9 -17491039.57148  20731801.819    20731808.8734
  20967380.726   -19791220.600 9 -15389683.07447  20967386.198    20967393.0444
  20862934.420   -21381304.981 9 -16648269.64747  20862937.052    20862945.1134
  21611800.457   -14492521.329 8 -11270946.48247  21611803.945    21611811.8134
 00  5 25  1 24  0.0000000  0  7 17 05 09 21 29 23 15
  24410250.229      360600.274 7    254906.60444  24410251.319    24410266.2244
  23044547.477    -7851425.532 8  -6097657.00246  23044550.547    23044559.1384
  22132918.787   -10261667.614 8  -7971405.10046  22132923.302    22132931.1494
  20722010.951   -22516032.133 9 -17531123.97048  20722012.904    20722019.8654
  20961413.005   -19822590.414 9 -15414127.09047  20961416.985    20961423.9534
  20868550.799   -21351787.940 9 -16625269.32847  20868554.184    20868561.6374
  21605766.856   -14524228.813 8 -11295653.61847  21605770.591    21605778.3464
 00  5 25  1 24 30.0000000  0  8 17 05 09 21 29 23 15 25
  24433522.648      482892.477 7    350198.97644  24433525.108    24433536.8734
  23033582.970    -7909039.374 8  -6142550.84446  23033587.382    23033596.8784
  22149121.125   -10176532.206 8  -7905065.81146  22149124.375    22149131.8554
  20712282.285   -22567148.527 9 -17570954.94448  20712285.437    20712293.0944
  20955483.976   -19853745.995 9 -15438404.16047  20955487.670    20955494.8904
  20874241.656   -21321883.034 9 -16601966.79147  20874244.843    20874252.4244
  21599851.118   -14555318.523 9 -11319879.38047  21599854.429    21599862.8474
  24728447.595    -2768742.43617  -2135253.05955  24728459.206    24728468.8274
 00  5 25  1 25  0.0000000  0  8 17 05 09 21 29 23 15 25
  24456790.709      605204.963 7    445507.20344  24456801.670    24456806.7984
  23022689.423    -7966281.515 8  -6187155.03946  23022694.596    23022703.7624
  22165387.718   -10091044.754 8  -7838452.21846  22165392.237    22165399.4544
  20702618.401   -22617937.023 9 -17610530.38948  20702620.973    20702627.9524
  20949598.081   -19884687.273 9 -15462514.25547  20949600.252    20949607.3474
  20880005.892   -21291589.815 9 -16578361.68347  20880009.588    20880017.4164
  21594053.729   -14585789.293 9 -11343622.85947  21594056.377    21594064.3954
  24708662.021    -2872734.091 7  -2216285.35545  24708669.077    24708679.6644
 00  5 25  1 25 30.0000000  0  8 17 05 09 21 29 23 15 25
  24480066.466      727534.733 7    540828.89744  24480079.588    24480092.0254
  23011872.924    -8023149.338 8  -6231467.54646  23011873.283    23011882.5894
  22181720.153   -10005208.178 8  -7771566.56546  22181726.271    22181733.2854
  20693016.737   -22668396.124 9 -17649849.17548  20693018.985    20693026.2954
  20943749.688   -19915414.728 9 -15486457.70747  20943752.525    20943760.0534
  20885847.610   -21260907.639 9 -16554453.48647  20885848.565    20885855.8864
  21588373.109   -14615639.736 8 -11366882.95547  21588375.870    21588383.8744
  24688895.378    -2976627.941 7  -2297241.43445  24688899.045    24688908.8714
 00  5 25  1 26  0.0000000  0  8 17 05 09 21 29 23 15 25
  24503359.349      849879.96517    636162.74544  24503358.725    24503372.9664
  23001118.985    -8079640.203 8  -6275486.34346  23001122.740    23001131.6184
  22198124.446    -9919025.099 8  -7704410.99046  22198125.901    22198133.9084
  20683476.286   -22718523.134 9 -17688909.15948  20683479.781    20683487.4144
  20937942.515   -19945928.712 9 -15510234.81547  20937946.246    20937953.2724
  20891755.910   -21229836.183 9 -16530241.94847  20891760.985    20891768.3144
  21582811.782   -14644868.900 8 -11389658.91447  21582813.707    21582822.0164
  24669152.475    -3080422.152 7  -2378119.91045  24669147.557    24669158.5914
 00  5 25  1 26 30.0000000  0  7 05 09 21 29 23 15 25
  22990436.518    -8135751.296 8  -6319209.19046  22990445.905    22990454.3964
  22214586.271    -9832498.136 8  -7636987.39647  22214592.258    22214599.6194
  20674000.039   -22768316.007 9 -17727708.79548  20674004.405    20674012.6104
  20932178.686   -19976229.244 9 -15533845.63547  20932180.642    20932187.0964
  20897747.049   -21198375.091 9 -16505726.82847  20897747.988    20897755.1894
  21577365.718   -14673475.581 8 -11411949.82247  21577369.552    21577378.1204
  24649413.066    -3184115.016 7  -2458919.39645  24649414.357    24649426.1254
 00  5 25  1 27  0.0000000  0  7 05 09 21 29 23 15 25
  22979835.215    -8191480.108 8  -6362634.16246  22979840.029    22979849.2714
  22231117.443    -9745630.362 8  -7569298.23647  22231122.706    22231130.2044
  20664589.799   -22817772.484 9 -17766246.31048  20664592.980    20664600.9354
  20926451.371   -20006316.719 9 -15557290.40847  20926454.739    20926461.4754
  20903806.752   -21166523.945 9 -16480907.82747  20903809.273    20903816.3454
  21572040.174   -14701458.809 8 -11433754.95047  21572044.674    21572053.4634
  24629692.939    -3287704.706 7  -2539638.47145  24629702.661    24629712.0584
 00  5 25  1 27 30.0000000  0  7 05 09 21 29 23 15 25
  22969301.922    -8246824.036 8  -6405759.23146  22969308.619    22969318.1354
  22247713.809    -9658424.468 8  -7501345.60947  22247717.316    22247724.5414
  20655243.234   -22866890.288 9 -17804519.92648  20655246.469    20655254.2204
  20920766.672   -20036191.104 9 -15580569.16447  20920770.203    20920776.3284
  20909940.959   -21134281.835 9 -16455784.12047  20909944.643    20909951.9514
  21566836.720   -14728817.520 8 -11455073.43047  21566838.401    21566845.6924
  24610019.843    -3391189.485 7  -2620275.80545  24610010.158    24610019.5154
 00  5 25  1 28  0.0000000  0  7 05 09 21 29 23 15 25
  22958848.774    -8301780.353 8  -6448582.24546  22958850.814    22958859.4164
  22264372.054    -9570883.428 8  -7433131.82147  22264376.235    22264383.7374
  20645961.322   -22915667.073 9 -17842527.80448  20645964.476    20645972.0744
  20915123.486   -20065852.761 9 -15603682.12347  20915126.039    20915132.1004
  20916150.514   -21101648.692 9 -16430355.73947  20916154.161    20916161.6414
  21561747.660   -14755550.941 8 -11475904.65747  21561751.004    21561759.0714
  24590322.162    -3494567.746 7  -2700830.16445  24590337.613    24590346.6114
 00  5 25  1 28 30.0000000  0  7 05 09 21 29 23 15 25
  22948466.191    -8356346.540 8  -6491101.28746  22948467.665    22948475.3854
  22281095.121    -9483009.805 8  -7364658.85947  22281097.933    22281104.5054
  20636743.064   -22964101.129 9 -17880268.62048  20636747.926    20636755.1994
  20909518.474   -20095301.613 9 -15626629.25147  20909521.665    20909528.0224
  20922434.711   -21068623.987 9 -16404622.21947  20922438.885    20922446.0674
  21556779.437   -14781658.190 8 -11496247.98747  21556782.913    21556791.0234
  24570680.867    -3597837.432 7  -2781299.93045  24570685.859    24570694.8864
 00  5 25  1 29  0.0000000  0  7 05 09 21 29 23 15 25
  22938151.134    -8410520.000 8  -6533314.28846  22938157.981    22938168.3324
  22297882.301    -9394806.217 8  -7295928.82247  22297883.103    22297890.0734
  20627594.532   -23012190.222 9 -17917740.62848  20627596.864    20627604.1514
  20903953.591   -20124538.402 9 -15649411.16447  20903957.977    20903964.3014
  20928795.389   -21035207.464 9 -16378583.38647  20928797.796    20928805.4224
  21551932.439   -14807138.393 8 -11516102.68447  21551935.138    21551942.8254
  24551057.059    -3700996.844 7  -2861683.73745  24551056.341    24551064.6234
 00  5 25  1 29 30.0000000  0  7 05 09 21 29 23 15 25
  22927921.457    -8464298.177 8  -6575219.30346  22927924.399    22927933.1974
  22314725.991    -9306275.449 8  -7226943.79746  22314729.582    22314736.3684
  20618508.561   -23059931.819 9 -17954941.82648  20618511.947    20618519.5354
  20898432.237   -20153562.973 9 -15672027.72847  20898435.055    20898441.2554
  20935229.142   -21001398.481 9 -16352238.71347  20935231.606    20935238.8244
  21547204.155   -14831990.599 9 -11535468.03647  21547206.383    21547214.2384
  24531433.174    -3804044.346 7  -2941980.40245  24531448.167    24531455.0354
 00  5 25  1 30  0.0000000  0  7 05 09 21 29 23 15 25
  22917762.737    -8517678.534 8  -6616814.32746  22917766.953    22917775.0154
  22331635.570    -9217420.452 8  -7157706.16946  22331637.821    22331645.1514
  20609490.178   -23107324.171 9 -17991870.87548  20609493.251    20609500.8454
  20892949.445   -20182375.403 9 -15694478.97047  20892951.513    20892958.4704
  20941737.650   -20967196.827 9 -16325588.12447  20941739.856    20941747.2704
  21542593.175   -14856214.037 8 -11554343.44147  21542595.792    21542604.3224
  24511863.143    -3906978.248 7  -3022188.52745  24511859.280    24511868.4284
 00  5 25  1 30 30.0000000  0  7 05 09 21 29 23 15 25
  22907681.713    -8570658.344 8  -6658097.23546  22907684.772    22907692.9114
  22348603.552    -9128243.947 8  -7088218.03646  22348607.382    22348614.4224
  20600538.020   -23154364.845 9 -18028525.92548  20600541.742    20600549.1494
  20887506.265   -20210976.095 9 -15716765.22047  20887508.855    20887515.6994
  20948318.675   -20932602.076 9 -16298631.20047  20948322.744    20948330.5774
  21538103.990   -14879807.712 9 -11572728.12547  21538106.250    21538114.6104
  24492283.589    -4009796.422 7  -3102306.46445  24492292.528    24492302.8654
 00  5 25  1 31  0.0000000  0  7 05 09 21 29 23 15 25
  22897674.265    -8623235.002 8  -6699066.01846  22897679.742    22897688.2084
  22365631.472    -9038748.897 8  -7018481.65746  22365637.089    22365644.9314
  20591653.272   -23201051.935 9 -18064905.53448  20591657.739    20591664.6254
  20882104.991   -20239365.309 9 -15738886.70347  20882106.989    20882113.2814
  20954977.288   -20897613.953 9 -16271367.82247  20954981.019    20954988.1374
  21533734.087   -14902770.980 8 -11590621.56747  21533736.533    21533744.4234
  24472755.196    -4112497.705 7  -3182333.36245  24472750.247    24472759.9874
 00  5 25  1 31 30.0000000  0  8 05 09 21 29 30 23 15 25
  22887750.896    -8675406.040 8  -6739718.71246  22887752.295    22887761.4834
  22382720.657    -8948938.120 8  -6948499.19646  22382727.545    22382736.1834
  20582838.787   -23247382.630 9 -18101007.35948  20582841.173    20582848.7554
  20876740.554   -20267543.067 9 -15760843.42347  20876744.995    20876751.5524
  23948552.236      -96715.35717
  20961712.149   -20862231.897 9 -16243797.40047  20961714.059    20961721.3024
  21529484.562   -14925103.044 8 -11608023.16847  21529486.770    21529494.1794
  24453226.462    -4215080.049 7  -3262267.52945  24453228.225    24453238.7404
 00  5 25  1 32  0.0000000  0  8 05 09 21 29 30 23 15 25
  22877901.982    -8727168.945 8  -6780053.32846  22877901.326    22877910.7804
  22399877.656    -8858814.334 8  -6878272.81946  22399877.398    22399884.5724
  20574091.465   -23293354.886 9 -18136829.88348  20574093.353    20574100.0344
  20871420.237   -20295509.628 9 -15782635.50847  20871423.061    20871429.9704
  23930801.447     -190050.232 7   -136475.80754  23930790.040    23930800.7294
  20968518.527   -20826455.611 9 -16215919.77047  20968521.822    20968529.6174
  21525353.217   -14946802.942 8 -11624932.18247  21525357.023    21525365.4614
  24433733.889    -4317541.308 8  -3342107.40045  24433730.609    24433741.2914
 00  5 25  1 32 30.0000000  0  8 05 09 21 29 30 23 15 25
  22868126.826    -8778521.054 8  -6820067.85846  22868128.748    22868138.0334
  22417084.189    -8768380.291 8  -6807804.70046  22417087.060    22417094.7404
  20565410.915   -23338966.797 9 -18172371.63148  20565413.455    20565420.3004
  20866137.897   -20323265.198 9 -15804263.24247  20866141.761    20866148.1434
  23913052.447     -283303.851 7   -209140.91844  23913049.073    23913057.0084
  20975400.355   -20790284.804 9 -16187734.74347  20975404.753    20975412.6674
  21521343.492   -14967870.129 9 -11641348.16447  21521348.993    21521356.3054
  24414255.686    -4419880.036 7  -3421851.80245  24414256.373    24414266.6954
 00  5 25  1 33  0.0000000  0  8 05 09 21 29 30 23 15 25
  22858432.651    -8829459.940 8  -6859760.43346  22858436.150    22858444.4664
  22434349.811    -8677638.713 8  -6737096.99246  22434354.448    22434361.9284
  20556799.200   -23384216.247 9 -18207630.96448  20556802.389    20556809.4554
  20860894.954   -20350809.968 9 -15825726.68447  20860900.033    20860906.6614
  23895317.063     -376473.132 7   -281740.22044  23895315.361    23895326.0734
  20982359.661   -20753719.168 9 -16159242.06447  20982363.440    20982370.8794
  21517456.775   -14988303.780 9 -11657270.48747  21517460.370    21517467.7894
  24394799.004    -4522094.528 7  -3501499.36745  24394804.888    24394814.9504
 00  5 25  1 33 30.0000000  0  8 05 09 21 29 30 23 15 25
  22848823.245    -8879983.141 8  -6899129.08146  22848822.269    22848830.2974
  22451678.303    -8586592.493 8  -6666151.85846  22451680.524    22451687.5304
  20548258.705   -23429101.170 9 -18242606.22448  20548261.115    20548268.2654
  20855695.605   -20378144.041 9 -15847025.95847  20855698.210    20855704.8564
  23877596.987     -469555.102 7   -354271.47945  23877604.239    23877612.7324
  20989394.307   -20716758.497 9 -16130441.56147  20989396.925    20989404.2164
  21513689.504   -15008103.229 9 -11672698.62547  21513692.683    21513700.3954
  24375383.546    -4624183.277 7  -3581048.92545  24375377.738    24375389.1004
 00  5 25  1 34  0.0000000  0  8 05 09 21 29 30 23 15 25
  22839283.655    -8930088.318 8  -6938172.00246  22839287.675    22839296.4804
  22469060.933    -8495244.450 8  -6594971.60446  22469063.606    22469070.4044
  20539786.451   -23473619.242 9 -18277295.64848  20539789.781    20539797.1154
  20850533.047   -20405267.728 9 -15868161.28747  20850536.807    20850543.5034
  23859906.488     -562546.534 7   -426732.20245  23859906.888    23859915.6324
  20996502.412   -20679402.452 9 -16101332.97147  20996505.265    20996513.0444
  21510044.025   -15027267.866 9 -11687632.10547  21510045.283    21510054.2454
  24355966.601    -4726144.123 7  -3660498.83345  24355975.122    24355983.5964
 00  5 25  1 34 30.0000000  0  8 05 09 21 29 30 23 15 25
  22829832.392    -8979772.843 8  -6976887.16246  22829833.193    22829841.7314
  22486499.659    -8403597.123 8  -6523558.03546  22486503.325    22486510.3554
  20531383.725   -23517767.841 9 -18311697.16448  20531388.536    20531396.0624
  20845412.378   -20432180.892 9 -15889132.53147  20845415.321    20845421.9494
  23842226.758     -655444.345 8   -499119.99945  23842229.122    23842239.1694
  21003687.479   -20641650.709 9 -16071916.05447  21003689.160    21003696.8094
  21506517.192   -15045797.011 9 -11702070.39247  21506519.145    21506528.0834
  24336592.572    -4827975.641 7  -3739848.02945  24336598.330    24336607.8844
 00  5 25  1 35  0.0000000  0  8 05 09 21 29 30 23 15 25
  22820451.201    -9029034.441 8  -7015272.71146  22820458.634    22820466.8224
  22503994.006    -8311653.390 8  -6451913.63746  22503999.090    22504007.3624
  20523054.460   -23561545.343 9 -18345809.49048  20523058.228    20523065.3784
  20840331.011   -20458883.939 9 -15909940.03447  20840333.732    20840340.7114
  23824569.849     -748245.311 8   -571432.32145  23824569.328    23824580.5174
  21010946.445   -20603502.924 9 -16042190.48447  21010948.515    21010956.2124
  21503109.909   -15063690.159 8 -11716013.11047  21503114.566    21503123.2034
  24317239.613    -4929676.117 7  -3819095.09545  24317244.577    24317254.4184
 00  5 25  1 35 30.0000000  0  8 05 09 21 29 30 23 15 25
  22811161.094    -9077870.550 8  -7053326.75546  22811164.537    22811173.7244
  22521547.696    -8219415.953 8  -6380040.29946  22521551.804    22521559.4654
  20514795.010   -23604949.523 9 -18379630.90348  20514798.408    20514805.2984
  20835288.773   -20485377.350 9 -15930584.22447  20835292.280    20835299.0404
  23806923.913     -840946.505 7   -643666.87145  23806928.686    23806938.8324
  21018278.965   -20564959.036 9 -16012156.27647  21018283.018    21018290.8194
  21499827.691   -15080946.729 9 -11729459.78547  21499830.823    21499839.2194
  24297916.760    -5031243.887 7  -3898238.75745  24297916.588    24297927.0764
 00  5 25  1 36  0.0000000  0  8 05 09 21 29 30 23 15 25
  22801951.991    -9126278.968 8  -7091047.57246  22801953.329    22801962.2364
  22539156.048    -8126887.533 8  -6307940.25446  22539158.738    22539167.2614
  20506606.867   -23647978.146 9 -18413159.67948  20506610.291    20506617.3224
  20830287.495   -20511660.967 9 -15951064.94147  20830290.757    20830297.5164
  23789300.623     -933545.045 7   -715821.47045  23789309.202    23789317.9114
  21025689.613   -20526018.944 9 -15981813.39847  21025693.514    21025700.6084
  21496666.239   -15097566.352 8 -11742410.15847  21496668.031    21496676.2844
  24278602.732    -5132677.458 7  -3977277.80845  24278613.816    24278625.3214
 00  5 25  1 36 30.0000000  0  8 05 09 21 29 30 23 15 25
  22792820.852    -9174257.004 8  -7128432.98546  22792823.971    22792832.3844
  22556818.284    -8034071.324 8  -6235615.96546  22556820.810    22556829.0424
  20498490.641   -23690629.394 9 -18446394.38548  20498494.335    20498501.1174
  20825325.785   -20537735.132 9 -15971382.46647  20825328.407    20825335.6314
  23771699.056    -1026037.625 7   -787893.47645  23771707.162    23771717.5874
  21033176.974   -20486682.324 9 -15951161.50247  21033179.186    21033186.3574
  21493621.745   -15113548.519 8 -11754863.78347  21493626.377    21493634.9554
  24259330.142    -5233974.629 7  -4056210.62445  24259338.157    24259347.9504
 00  5 25  1 37  0.0000000  0  8 05 09 21 29 30 23 15 25
  22783772.522    -9221802.466 8  -7165481.39546  22783775.269    22783783.9644
  22574538.245    -7940969.763 8  -6163069.23646  22574538.159    22574546.3554
  20490447.474   -23732901.016 9 -18479333.22248  20490450.152    20490457.4464
  20820402.936   -20563600.001 9 -15991536.95047  20820406.788    20820413.7484
  23754124.002    -1118420.944 8   -859880.33345  23754127.269    23754136.5424
  21040737.922   -20446948.962 9 -15920200.47947  21040740.117    21040747.2414
  21490701.544   -15128892.582 8 -11766820.19347  21490706.749    21490714.6474
  24240086.217    -5335133.258 7  -4135035.50245  24240087.790    24240098.0694
 00  5 25  1 37 30.0000000  0  8 05 09 21 29 30 23 15 25
  22774811.345    -9268912.731 8  -7202190.61146  22774811.080    22774819.4724
  22592302.776    -7847585.593 8  -6090302.33246  22592308.412    22592316.2744
  20482474.302   -23774790.540 9 -18511974.36648  20482478.740    20482485.8664
  20815519.820   -20589255.389 9 -16011528.16747  20815525.015    20815531.3624
  23736565.129    -1210692.462 8   -931780.08345  23736569.145    23736578.4804
  21048375.208   -20406818.370 9 -15888929.94547  21048377.010    21048383.9454
  21487905.753   -15143598.134 9 -11778279.06847  21487908.718    21487916.4094
  24220858.644    -5436152.216 7  -4213751.53945  24220864.899    24220875.9824
 00  5 25  1 38  0.0000000  0  8 05 09 21 29 30 23 15 25
  22765926.878    -9315585.695 8  -7238559.11046  22765929.178    22765937.9554
  22610126.855    -7753921.624 8  -6017317.40846  22610131.780    22610139.3774
  20474576.036   -23816295.894 9 -18544316.21448  20474580.625    20474587.6514
  20810679.928   -20614701.715 9 -16031356.45647  20810682.949    20810689.4324
  23719028.583    -1302848.332 8  -1003589.70145  23719031.112    23719041.4624
  21056085.520   -20366290.450 9 -15857349.74147  21056088.973    21056096.3594
  21485229.080   -15157664.886 9 -11789240.18047  21485231.635    21485239.4984
  24201670.789    -5537029.980 8  -4292357.56145  24201671.113    24201678.9524
 00  5 25  1 38 30.0000000  0  8 05 09 21 29 30 23 15 25
  22757128.843    -9361818.867 8  -7274584.86746  22757130.736    22757139.8214
  22628002.146    -7659980.743 8  -5944116.75346  22628008.046    22628016.5064
  20466753.176   -23857414.571 9 -18576356.75348  20466755.903    20466762.8304
  20805875.362   -20639939.169 9 -16051021.98347  20805879.871    20805886.7974
  23701518.194    -1394885.988 8  -1075307.21745  23701516.748    23701527.3674
  21063872.796   -20325365.294 9 -15825460.03147  21063876.667    21063884.0384
  21482671.388   -15171092.552 8 -11799703.29747  21482676.264    21482684.9794
  24182502.354    -5637764.888 8  -4370852.26345  24182500.876    24182507.8524
 00  5 25  1 39  0.0000000  0  8 05 09 21 29 30 23 15 25
  22748414.658    -9407609.969 8  -7310266.22946  22748417.281    22748426.2734
  22645934.553    -7565765.531 8  -5870702.25946  22645937.652    22645944.2644
  20459001.789   -23898144.843 9 -18608094.58848  20459005.396    20459012.5414
  20801113.731   -20664967.845 9 -16070524.82647  20801117.541    20801123.9164
  23684020.717    -1486802.046 8  -1146929.97445  23684027.668    23684035.6454
  21071738.705   -20284042.510 9 -15793260.45647  21071740.147    21071747.4844
  21480239.650   -15183880.608 8 -11809668.02047  21480242.935    21480251.5944
  24163356.580    -5738354.946 8  -4449234.10345  24163359.241    24163366.8054
 00  5 25  1 39 30.0000000  0  8 05 09 21 29 30 23 15 25
  22739785.160    -9452956.727 8  -7345601.32346  22739788.302    22739796.8674
  22663915.555    -7471278.702 8  -5797076.16246  22663916.421    22663924.9424
  20451325.332   -23938484.968 9 -18639528.45748  20451328.779    20451336.1144
  20796389.244   -20689788.080 9 -16089865.26547  20796394.109    20796400.6234
  23666559.580    -1578593.377 8  -1218455.58645  23666558.947    23666568.2574
  21079672.712   -20242322.016 9 -15760750.99847  21079679.158    21079687.1024
  21477930.542   -15196028.796 9 -11819134.14547  21477931.789    21477939.7034
  24144241.833    -5838798.284 8  -4527501.59545  24144245.378    24144253.1054
 00  5 25  1 40  0.0000000  0  8 05 09 21 29 30 23 15 25
  22731239.109    -9497856.833 8  -7380588.35146  22731243.575    22731253.2504
  22681949.466    -7376522.927 8  -5723240.40646  22681948.473    22681956.0834
  20443723.986   -23978432.769 9 -18670656.61748  20443726.752    20443733.6854
  20791706.840   -20714399.685 9 -16109043.09248  20791710.812    20791717.3484
  23649113.238    -1670257.121 8  -1289881.77045  23649115.696    23649125.0564
  21087690.112   -20200203.823 9 -15727931.67547  21087693.770    21087701.6214
  21475737.426   -15207536.691 9 -11828101.35047  21475741.192    21475750.0794
  24125152.937    -5939093.745 8  -4605653.89645  24125158.013    24125168.0444
 00  5 25  1 40 30.0000000  0  8 05 09 21 29 30 23 15 25
  22722782.911    -9542308.152 8  -7415225.69846  22722785.110    22722794.0704
  22700023.568    -7281501.130 8  -5649197.39746  22700030.307    22700038.4784
  20436197.190   -24017986.203 9 -18701477.50548  20436199.962    20436206.9304
  20787063.743   -20738803.019 9 -16128058.60948  20787067.071    20787073.5904
  23631697.184    -1761789.843 8  -1361205.78645  23631697.392    23631707.0344
  21095782.513   -20157687.771 9 -15694802.33347  21095784.411    21095792.1574
  21473669.122   -15218404.161 8 -11836569.51947  21473673.135    21473681.1614
  24106097.214    -6039239.703 7  -4683689.68045  24106101.568    24106110.0094
 00  5 25  1 41  0.0000000  0  8 05 09 21 29 30 23 15 25
  22714408.531    -9586308.409 8  -7449511.60746  22714411.616    22714420.4894
  22718162.988    -7186215.953 8  -5574949.19646  22718163.254    22718171.0404
  20428745.602   -24057142.255 9 -18731988.66448  20428748.775    20428756.4474
  20782461.466   -20762998.438 9 -16146912.14448  20782462.929    20782469.2804
  23614299.302    -1853188.643 8  -1432425.48545  23614304.377    23614315.0484
  21103949.990   -20114773.729 9 -15661362.85247  21103950.984    21103958.6334
  21471723.645   -15228630.686 9 -11844538.24847  21471727.610    21471734.9454
  24087066.131    -6139234.017 8  -4761607.28645  24087072.957    24087082.7434
 00  5 25  1 41 30.0000000  0  8 05 09 21 29 30 23 15 25
  22706126.202    -9629855.329 8  -7483444.25246  22706125.822    22706133.3364
  22736339.417    -7090670.162 8  -5500497.88946  22736344.549    22736351.6684
  20421370.652   -24095899.635 9 -18762189.23648  20421373.606    20421381.2044
  20777894.441   -20786985.701 9 -16165603.50748  20777898.407    20777904.4644
  23596932.774    -1944450.220 8  -1503538.24845  23596938.415    23596947.4774
  21112189.299   -20071461.453 9 -15627613.06847  21112192.535    21112200.6934
  21469901.404   -15238216.117 9 -11852007.41947  21469903.543    21469911.0524
  24068065.943    -6239075.143 7  -4839405.55445  24068073.898    24068083.4024
 00  5 25  1 42  0.0000000  0  8 05 09 21 29 30 23 15 25
  22697926.578    -9672946.279 8  -7517021.54746  22697925.613    22697933.6724
  22754576.254    -6994866.348 8  -5425845.49646  22754575.684    22754583.2124
  20414072.081   -24134255.740 9 -18792077.10248  20414074.760    20414082.0144
  20773371.114   -20810765.120 9 -16184132.87048  20773373.225    20773379.5074
  23579605.452    -2035571.187 8  -1574541.44245  23579598.110    23579607.1404
  21120507.639   -20027750.863 9 -15593552.92247  21120510.863    21120518.4044
  21468197.293   -15247160.329 9 -11858976.93847  21468201.496    21468208.2874
  24049104.757    -6338761.581 8  -4917083.25745  24049104.138    24049113.3444
 00  5 25  1 42 30.0000000  0  8 05 09 21 29 30 23 15 25
  22689810.022    -9715579.063 8  -7550241.85546  22689812.637    22689821.4814
  22772855.903    -6898807.453 8  -5350994.40446  22772854.913    22772862.0854
  20406848.771   -24172208.601 9 -18821650.76248  20406852.373    20406859.9684
  20768883.607   -20834336.938 9 -16202500.49148  20768887.718    20768894.3404
  23562278.126    -2126548.879 8  -1645433.01545  23562285.490    23562294.4484
  21128900.883   -19983641.986 9 -15559182.35347  21128904.733    21128912.0474
  21466615.988   -15255463.224 8 -11865446.72847  21466620.894    21466628.6074
  24030165.118    -6438291.745 8  -4994639.16845  24030164.362    24030173.6924
 00  5 25  1 43  0.0000000  0  8 05 09 21 29 30 23 15 25
  22681783.169    -9757751.716 8  -7583103.59146  22681787.924    22681796.1064
  22791180.670    -6802496.337 8  -5275946.71746  22791182.446    22791190.7474
  20399704.517   -24209756.328 9 -18850908.72948  20399707.496    20399714.7394
  20764437.908   -20857701.179 9 -16220706.42548  20764441.800    20764448.2224
  23544998.360    -2217379.652 8  -1716210.08645  23545001.533    23545010.2814
  21137372.128   -19939134.665 9 -15524501.33947  21137373.657    21137381.9784
  21465161.379   -15263124.821 9 -11871416.81147  21465163.101    21465171.3724
  24011246.413    -6537663.599 8  -5072071.75245  24011254.953    24011263.6474
 00  5 25  1 43 30.0000000  0  8 05 09 21 29 30 23 15 25
  22673848.996    -9799461.966 8  -7615604.99646  22673850.740    22673858.6164
  22809550.500    -6705935.719 8  -5200704.66046  22809557.647    22809564.4304
  20392637.943   -24246896.640 9 -18879849.21248  20392639.848    20392646.7874
  20760032.053   -20880858.059 9 -16238750.76048  20760034.957    20760041.5154
  23527739.822    -2308060.656 8  -1786870.45445  23527744.360    23527753.4464
  21145915.920   -19894228.857 9 -15489509.80547  21145919.032    21145927.2714
  21463823.891   -15270144.952 8 -11876887.06047  21463827.395    21463835.8464
  23992366.583    -6636875.882 7  -5149379.99445  23992374.469    23992384.8704
 00  5 25  1 44  0.0000000  0  8 05 09 21 29 30 23 15 25
  22665999.949    -9840707.564 8  -7647744.32746  22666001.743    22666009.5284
  22827977.790    -6609128.054 8  -5125270.07046  22827979.375    22827986.0924
  20385645.992   -24283627.824 9 -18908470.88248  20385649.756    20385657.1484
  20755665.195   -20903807.554 9 -16256633.43848  20755667.653    20755674.1614
  23510516.534    -2398589.012 8  -1857411.89945  23510517.846    23510527.1794
  21154541.863   -19848924.695 9 -15454207.90947  21154540.639    21154548.0634
  21462612.362   -15276523.444 9 -11881857.33047  21462614.408    21462621.6094
  23973521.590    -6735926.761 8  -5226562.43345  23973526.895    23973536.1114
 00  5 25  1 44 30.0000000  0  8 05 09 21 29 30 23 15 25
  22658236.226    -9881486.853 8  -7679520.40446  22658241.429    22658249.4464
  22846441.946    -6512076.122 8  -5049645.11246  22846448.118    22846454.1434
  20378735.358   -24319947.429 9 -18936771.86348  20378738.701    20378745.6974
  20751335.373   -20926549.938 9 -16274354.75448  20751339.868    20751346.2984
  23493320.103    -2488961.459 8  -1927831.84445  23493319.888    23493329.9164
  21163234.862   -19803222.085 9 -15418595.46847  21163237.307    21163244.5454
  21461518.319   -15282260.291 8 -11886327.59247  21461521.856    21461528.6464
  23954706.192    -6834814.506 8  -5303617.79445  23954709.496    23954717.8344
 00  5 25  1 45  0.0000000  0  8 05 09 21 29 30 23 15 25
  22650568.429    -9921797.191 8  -7710930.93146  22650570.552    22650578.3594
  22864960.272    -6414782.507 8  -4973831.88046  22864962.135    22864968.6514
  20371902.420   -24355853.328 9 -18964750.47748  20371905.957    20371913.1194
  20747047.531   -20949085.095 9 -16291914.58748  20747051.671    20747058.1044
  23476146.137    -2579174.666 8  -1998127.70046  23476153.559    23476163.2614
  21172005.062   -19757121.146 9 -15382672.69147  21172009.742    21172017.7984
  21460548.754   -15287355.489 8 -11890297.87747  21460551.637    21460559.3554
  23935920.029    -6933537.808 8  -5380545.01745  23935922.982    23935931.2204
 00  5 25  1 45 30.0000000  0  8 05 09 21 29 30 23 15 25
  22642988.556    -9961636.791 8  -7741974.72246  22642989.226    22642996.9644
  22883515.840    -6317249.980 8  -4897832.46546  22883522.099    22883527.9674
  20365149.782   -24391343.937 9 -18992405.46848  20365152.368    20365159.6104
  20742799.177   -20971413.335 9 -16309313.11348  20742802.514    20742808.8574
  23459011.498    -2669225.533 8  -2068297.06046  23459017.751    23459026.0704
  21180854.873   -19710621.742 9 -15346439.40747  21180858.608    21180866.3834
  21459700.720   -15291809.169 8 -11893768.28647  21459704.318    21459712.3334
  23917163.145    -7032094.783 8  -5457342.63045  23917167.992    23917177.5534
 00  5 25  1 46  0.0000000  0  8 05 09 21 29 30 23 15 25
  22635493.370   -10001003.625 8  -7772650.16346  22635497.265    22635506.1464
  22902121.237    -6219481.538 8  -4821649.20146  22902127.051    22902133.1674
  20358475.406   -24426417.159 9 -19019735.25948  20358478.058    20358485.2034
  20738589.861   -20993534.927 9 -16326550.68248  20738592.814    20738599.1584
  23441903.721    -2759110.883 8  -2138337.45046  23441911.836    23441921.8374
  21189779.603   -19663723.970 9 -15309895.70247  21189783.065    21189790.7164
  21458979.556   -15295621.177 9 -11896738.68647  21458980.213    21458987.5344
  23898437.507    -7130483.948 8  -5534009.46845  23898445.478    23898452.9584
 00  5 25  1 46 30.0000000  0  8 05 09 21 29 30 23 15 25
  22628091.505   -10039895.257 8  -7802955.29946  22628096.675    22628105.5844
  22920777.253    -6121479.793 8  -4745284.12646  22920776.250    22920781.6634
  20351879.289   -24461070.492 9 -19046737.84348  20351884.102    20351891.0004
  20734419.677   -21015449.863 9 -16343627.22648  20734422.957    20734429.3224
  23424843.048    -2848827.734 8  -2208246.57446  23424839.515    23424849.4064
  21198779.036   -19616427.784 9 -15273041.54547  21198783.104    21198790.2364
  21458373.713   -15298791.534 8 -11899209.09247  21458375.907    21458384.4584
  23879757.408    -7228703.976 8  -5610544.53045  23879754.359    23879761.8644
 00  5 25  1 47  0.0000000  0  8 05 09 21 29 30 23 15 25
  22620784.292   -10078309.788 8  -7832888.63246  22620786.883    22620795.1444
  22939465.996    -6023247.413 8  -4668739.36346  22939468.171    22939473.5544
  20345367.069   -24495301.972 9 -19073411.72748  20345369.863    20345377.0364
  20730287.779   -21037158.080 9 -16360542.69948  20730291.903    20730298.4094
  23407796.554    -2938372.826 8  -2278021.84546  23407800.639    23407809.2854
  21207857.048   -19568733.411 9 -15235877.12347  21207859.325    21207866.9274
  21457890.033   -15301320.390 8 -11901179.61847  21457894.376    21457903.2884
  23861091.053    -7326752.863 8  -5686946.23045  23861095.842    23861104.3004
 00  5 25  1 47 30.0000000  0  8 05 09 21 29 30 23 15 25
  22613561.851   -10116245.242 8  -7862448.71146  22613567.478    22613576.2334
  22958200.256    -5924786.904 8  -4592016.85646  22958205.145    22958209.8014
  20338932.545   -24529109.701 9 -19099755.38648  20338936.238    20338943.3544
  20726195.658   -21058660.126 9 -16377297.56048  20726199.836    20726206.2734
  23390789.230    -3027742.797 8  -2347660.71046  23390792.888    23390801.4164
  21217006.191   -19520640.829 9 -15198402.40847  21217010.745    21217018.7074
  21457534.954   -15303208.041 8 -11902650.50947  21457535.907    21457544.5194
  23842457.766    -7424628.844 7  -5763213.12645  23842469.753    23842479.8744
 00  5 25  1 48  0.0000000  0  8 05 09 21 29 30 23 15 25
  22606440.169   -10153699.596 8  -7891633.88846  22606440.484    22606449.2664
  22976981.689    -5826100.881 8  -4515118.60946  22976984.118    22976990.0674
  20332581.009   -24562491.662 9 -19125767.29748  20332584.180    20332590.9954
  20722143.250   -21079955.693 9 -16393891.50548  20722147.323    20722153.9124
  23373816.266    -3116934.400 8  -2417160.52446  23373820.713    23373829.7194
  21226235.482   -19472149.938 9 -15160617.32047  21226238.396    21226246.5594
  21457295.785   -15304454.654 8 -11903621.88647  21457298.377    21457308.0854
  23823876.868    -7522330.783 8  -5839344.47045  23823878.766    23823886.2214
 00  5 25  1 48 30.0000000  0  8 05 09 21 29 30 23 15 25
  22599398.535   -10190670.743 8  -7920442.50546  22599404.424    22599414.0494
  22995804.840    -5727192.190 8  -4438046.93546  22995805.582    22995811.7594
  20326311.384   -24595445.842 9 -19151445.88748  20326313.114    20326320.1254
  20718130.363   -21101044.938 9 -16410324.67948  20718133.981    20718140.9714
  23356880.450    -3205944.896 8  -2486519.22346  23356881.963    23356891.9214
  21235537.868   -19423260.841 9 -15122521.92747  21235542.030    21235549.5344
  21457182.265   -15305060.259 9 -11904093.80047  21457183.001    21457192.4664
  23805306.816    -7619856.597 7  -5915338.57345  23805319.509    23805327.4334
 00  5 25  1 49  0.0000000  0  8 05 09 21 29 30 23 15 25
  22592458.541   -10227156.736 8  -7948873.09546  22592461.282    22592470.9194
  23014663.210    -5628063.291 8  -4360803.55046  23014669.405    23014675.1264
  20320120.624   -24627970.130 9 -19176789.47348  20320123.673    20320131.2324
  20714157.397   -21121928.130 9 -16426597.28148  20714160.178    20714167.0054
  23339970.780    -3294770.874 8  -2555734.12346  23339978.974    23339988.9684
  21244919.380   -19373973.821 9 -15084116.49347  21244920.907    21244928.6454
  21457185.590   -15305025.106 8 -11904066.41147  21457190.000    21457197.7184
  23786800.692    -7717204.821 8  -5991194.28645  23786795.007    23786802.3474
 00  5 25  1 49 30.0000000  0  8 05 09 21 29 30 23 15 25
  22585605.554   -10263155.564 8  -7976924.15446  22585611.375    22585620.3894
  23033579.452    -5528717.177 8  -4283390.91246  23033573.832    23033579.9584
  20314014.351   -24660062.724 9 -19201796.66148  20314016.808    20314024.2204
  20710221.845   -21142605.135 9 -16442709.19748  20710225.676    20710232.3594
  23323110.561    -3383409.132 8  -2624802.76246  23323111.843    23323120.8774
  21254372.605   -19324288.749 9 -15045400.85547  21254375.616    21254382.9304
  21457313.767   -15304349.651 8 -11903540.06147  21457318.351    21457326.6954
  23768294.028    -7814374.041 8  -6066910.50745  23768302.467    23768312.0714
 00  5 25  1 50  0.0000000  0  8 05 09 21 29 30 23 15 25
  22578855.563   -10298665.137 8  -8004593.93346  22578854.036    22578862.7874
  23052515.147    -5429156.414 8  -4205811.02746  23052519.821    23052525.3334
  20307990.168   -24691721.641 9 -19226465.95548  20307992.362    20307999.8134
  20706325.428   -21163076.196 9 -16458660.64348  20706330.050    20706336.6914
  23306279.913    -3471856.706 8  -2693722.80846  23306281.007    23306290.0564
  21263903.330   -19274206.076 9 -15006375.42447  21263906.219    21263913.4014
  21457567.404   -15303033.982 8 -11902514.86747  21457568.762    21457576.8734
  23749844.755    -7911362.711 8  -6142486.01945  23749847.086    23749855.7954
 00  5 25  1 50 30.0000000  0  8 05 09 21 29 30 23 15 25
  22572184.171   -10333683.827 8  -8031881.18546  22572190.637    22572199.0444
  23071507.002    -5329383.588 8  -4128065.92046  23071506.100    23071511.4244
  20302046.450   -24722944.955 9 -19250795.81348  20302050.606    20302057.9204
  20702471.106   -21183341.538 9 -16474451.82048  20702473.921    20702480.1924
  23289481.951    -3560110.204 8  -2762491.65146  23289486.279    23289495.5754
  21273509.132   -19223725.859 9 -14967040.18847  21273511.719    21273519.5434
  21457937.137   -15301078.662 8 -11900991.21947  21457940.712    21457949.7264
  23731418.188    -8008169.310 8  -6217919.67545  23731426.543    23731433.8584
 00  5 25  1 51  0.0000000  0  8 05 09 21 29 30 23 15 25
  22565612.746   -10368209.693 8  -8058784.42746  22565619.989    22565629.1184
  23090523.101    -5229401.130 8  -4050157.38246  23090532.122    23090537.6964
  20296189.438   -24753730.188 9 -19274784.30648  20296192.412    20296199.7684
  20698652.955   -21203400.979 9 -16490082.53848  20698656.484    20698663.2084
  23272726.814    -3648166.530 8  -2831106.84046  23272729.494    23272739.1334
  21283191.063   -19172848.363 9 -14927395.39847  21283193.040    21283201.0344
  21458429.086   -15298483.819 8 -11898969.26347  21458434.105    21458443.2084
  23713034.645    -8104791.969 8  -6293209.98045  23713040.079    23713046.6654
 00  5 25  1 51 30.0000000  0  8 05 09 21 29 30 23 15 25
  22559140.868   -10402240.843 8  -8085302.24846  22559144.573    22559153.3874
  23109593.343    -5129211.952 8  -3972087.87946  23109596.534    23109603.2994
  20290415.177   -24784075.589 9 -19298430.05048  20290417.729    20290425.3684
  20694875.394   -21223254.722 9 -16505552.98348  20694878.486    20694885.1434
  23256017.155    -3736022.635 8  -2899565.99846  23256011.191    23256019.7924
  21292949.185   -19121573.700 9 -14887441.13847  21292950.753    21292958.2674
  21459046.275   -15295249.753 8 -11896449.19047  21459049.023    21459057.9324
  23694684.852    -8201229.308 8  -6368355.91445  23694687.594    23694696.3334
 00  5 25  1 52  0.0000000  0  8 05 09 21 29 30 23 15 25
  22552761.895   -10435775.170 8  -8111432.89446  22552762.975    22552771.9114
  23128696.576    -5028818.651 8  -3893859.28046  23128700.464    23128707.3444
  20284724.644   -24813979.117 9 -19321731.48348  20284727.054    20284734.7174
  20691134.397   -21242902.867 9 -16520863.20048  20691139.261    20691145.9504
  23239329.506    -3823675.010 8  -2967866.44246  23239331.767    23239340.0294
  21302782.599   -19069901.968 9 -14847177.47247  21302783.932    21302791.2884
  21459783.655   -15291376.893 8 -11893431.37247  21459786.698    21459795.1844
  23676357.099    -8297480.071 8  -6443356.43145  23676371.028    23676380.9824
 00  5 25  1 52 30.0000000  0  8 05 09 21 29 30 23 15 25
  22546474.493   -10468810.769 8  -8137174.90546  22546476.611    22546485.2694
  23147834.584    -4928223.870 8  -3815473.70546  23147842.866    23147849.9464
  20279116.624   -24843439.258 9 -19344687.42848  20279121.146    20279128.3394
  20687437.077   -21262345.454 9 -16536013.28048  20687440.005    20687446.1964
  23222687.299    -3911120.945 8  -3036006.00546  23222691.144    23222699.7164
  21312690.702   -19017833.276 9 -14806604.49047  21312691.772    21312699.5374
  21460641.773   -15286865.766 8 -11889916.21547  21460645.010    21460654.5004
  23658099.593    -8393542.602 8  -6518210.24945  23658091.427    23658101.2884
 00  5 25  1 53  0.0000000  0  8 05 09 21 29 30 23 15 25
  22540286.081   -10501345.987 8  -8162526.99346  22540285.562    22540294.0924
  23167021.498    -4827430.286 8  -3736933.22746  23167023.600    23167029.8144
  20273596.739   -24872454.019 9 -19367296.33948  20273599.892    20273607.2994
  20683776.283   -21281582.577 9 -16551003.20548  20683779.280    20683785.4124
  23206085.254    -3998357.214 8  -3103982.18346  23206089.346    23206099.1394
  21322672.471   -18965367.960 9 -14765722.45147  21322676.119    21322683.4624
  21461623.340   -15281716.950 8 -11885904.12947  21461625.332    21461634.0314
  23639839.445    -8489415.173 8  -6592916.06545  23639848.393    23639856.6484
 00  5 25  1 53 30.0000000  0  8 05 09 21 29 30 23 15 25
  22534186.054   -10533379.034 8  -8187487.83246  22534189.230    22534198.8194
  23186230.713    -4726440.280 8  -3658239.54846  23186240.586    23186247.8554
  20268161.301   -24901021.191 9 -19389556.45948  20268163.743    20268171.0084
  20680153.913   -21300614.341 9 -16565833.13148  20680157.745    20680163.8034
  23189525.611    -4085380.569 8  -3171792.43746  23189529.939    23189538.5804
  21332731.481   -18912506.087 9 -14724531.38447  21332735.413    21332742.1594
  21462722.485   -15275930.924 9 -11881395.53647  21462726.086    21462734.6894
  23621640.761    -8585096.060 8  -6667472.49945  23621640.958    23621649.1594
 00  5 25  1 54  0.0000000  0  8 05 09 21 29 30 23 15 25
  22528179.797   -10564908.218 8  -8212056.03746  22528189.713    22528198.5504
  23205484.955    -4625256.832 8  -3579395.33646  23205494.324    23205503.2684
  20262808.183   -24929139.309 9 -19411466.69248  20262813.034    20262820.2024
  20676573.001   -21319440.611 9 -16580502.93048  20676575.515    20676581.1834
  23173006.865    -4172187.692 8  -3239434.22846  23173011.215    23173019.9794
  21342864.436   -18859248.204 9 -14683031.75047  21342869.717    21342877.3714
  21463945.681   -15269508.197 9 -11876390.79847  21463949.012    21463957.0844
  23603476.063    -8680583.671 8  -6741878.32746  23603469.747    23603478.5404
 00  5 25  1 54 30.0000000  0  8 05 09 21 29 30 23 15 25
  22522284.566   -10595931.613 8  -8236230.09346  22522286.148    22522294.2744
  23224783.019    -4523882.367 8  -3500402.25746  23224787.089    23224793.4904
  20257545.351   -24956806.167 9 -19433025.27548  20257548.433    20257555.4594
  20673026.910   -21338061.823 9 -16595012.93948  20673031.691    20673037.8264
  23156531.824    -4258775.430 8  -3306905.03546  23156533.770    23156543.1914
  21353075.675   -18805594.512 9 -14641223.71547  21353080.010    21353087.8024
  21465288.979   -15262449.274 8 -11870890.32847  21465291.899    21465299.7144
  23585322.195    -8775876.899 8  -6816132.69845  23585335.736    23585344.6544
 00  5 25  1 55  0.0000000  0  8 05 09 21 29 30 23 15 25
  22516477.324   -10626447.587 8  -8260008.76446  22516479.113    22516487.3174
  23244115.958    -4422319.346 8  -3421262.23746  23244113.268    23244121.0304
  20252367.245   -24984020.132 9 -19454230.96248  20252369.877    20252377.2514
  20669524.514   -21356477.690 9 -16609362.95048  20669527.159    20669533.6154
  23140096.065    -4345140.764 8  -3374202.54246  23140098.974    23140108.5004
  21363363.301   -18751545.162 9 -14599107.34147  21363365.433    21363372.6254
  21466753.106   -15254754.568 9 -11864894.45047  21466756.267    21466764.4884
  23567237.310    -8870974.295 8  -6890234.43346  23567239.787    23567247.9184
 00  5 25  1 55 30.0000000  0  8 05 09 21 29 30 23 15 25
  22510766.592   -10656454.386 8  -8283390.66446  22510769.588    22510778.1434
  23263469.952    -4320570.584 8  -3341977.47846  23263475.171    23263482.9954
  20247276.425   -25010778.578 9 -19475081.70948  20247278.340    20247285.2324
  20666058.222   -21374688.354 9 -16623553.05848  20666061.527    20666068.3194
  23123703.171    -4431280.565 8  -3441324.33146  23123707.939    23123715.2524
  21373724.585   -18697100.611 9 -14556683.03247  21373725.625    21373733.2874
  21468339.309   -15246424.811 9 -11858403.73647  21468341.501    21468349.8864
  23549182.168    -8965874.020 8  -6964182.15746  23549181.540    23549189.1864
 00  5 25  1 56  0.0000000  0  8 05 09 21 29 30 23 15 25
  22505155.687   -10685950.189 8  -8306374.40046  22505155.958    22505164.9204
  23282867.758    -4218638.106 8  -3262549.44746  23282871.895    23282880.3704
  20242269.616   -25037080.054 9 -19495576.35648  20242273.042    20242280.1754
  20662631.501   -21392694.124 9 -16637583.52648  20662635.352    20662641.8734
  23107360.530    -4517191.781 8  -3508268.00746  23107358.166    23107366.7604
  21384159.622   -18642261.027 9 -14513950.92047  21384161.347    21384168.7084
  21470043.640   -15237460.701 8 -11851418.74847  21470045.970    21470056.0744
  23531155.171    -9060574.715 8  -7037974.75846  23531160.226    23531168.0114
 00  5 25  1 56 30.0000000  0  8 05 09 21 29 30 23 15 25
  22499638.411   -10714933.280 8  -8328958.55746  22499640.589    22499649.3134
  23302303.009    -4116525.011 8  -3182980.73746  23302304.469    23302312.0894
  20237352.681   -25062922.527 9 -19515713.34848  20237355.381    20237362.7474
  20659243.823   -21410494.663 9 -16651454.05948  20659247.829    20659254.3134
  23091048.319    -4602871.098 8  -3575030.96546  23091054.132    23091062.4114
  21394668.399   -18587026.611 8 -14470911.11047  21394672.071    21394679.7024
  21471868.971   -15227862.823 8 -11843939.88947  21471872.694    21471881.2694
  23513175.575    -9155074.913 8  -7111611.11746  23513176.812    23513184.7764
 00  5 25  1 57  0.0000000  0  8 05 09 21 29 30 23 15 25
  22494221.943   -10743402.072 8  -8351141.96946  22494223.323    22494231.7314
  23321761.724    -4014233.746 8  -3103273.12146  23321770.385    23321776.7944
  20232523.239   -25088304.290 9 -19535491.33248  20232525.311    20232532.4534
  20655898.023   -21428090.047 9 -16665164.70748  20655899.601    20655905.8074
  23074790.546    -4688315.379 8  -3641610.77746  23074795.299    23074803.0034
  21405254.175   -18531397.695 9 -14427563.93347  21405257.714    21405265.2944
  21473816.958   -15217631.932 8 -11835967.78247  21473820.015    21473828.1704
  23495232.237    -9249372.970 8  -7185090.03245  23495231.356    23495240.1014
 00  5 25  1 57 30.0000000  0  8 05 09 21 29 30 23 15 25
  22488901.969   -10771354.898 8  -8372923.33846  22488904.051    22488912.5384
  23341271.730    -3911766.966 8  -3023428.80846  23341268.698    23341276.1674
  20227780.578   -25113223.616 9 -19554908.96048  20227783.277    20227790.2374
  20652587.559   -21445480.725 9 -16678715.88748  20652590.451    20652596.9434
  23058572.007    -4773521.480 8  -3708004.98446  23058580.082    23058589.3754
  21415913.357   -18475374.719 9 -14383909.70947  21415918.684    21415926.4854
  21475885.180   -15206768.471 9 -11827502.76547  21475887.908    21475894.7354
  23477321.778    -9343467.635 8  -7258410.44745  23477325.820    23477334.3334
 00  5 25  1 58  0.0000000  0  8 05 09 21 29 30 23 15 25
  22483675.056   -10798790.085 8  -8394301.36546  22483682.955    22483691.9234
  23360802.848    -3809127.458 8  -2943450.01346  23360800.319    23360807.6864
  20223126.929   -25137678.615 9 -19573964.78848  20223129.599    20223136.5344
  20649317.151   -21462666.383 9 -16692107.30648  20649320.113    20649326.4034
  23042410.962    -4858486.128 8  -3774211.03946  23042411.818    23042420.3754
  21426651.588   -18418957.998 9 -14339948.64647  21426654.566    21426661.6434
  21478070.307   -15195273.213 9 -11818545.41747  21478075.093    21478082.8304
  23459456.863    -9437357.284 8  -7331571.10846  23459460.517    23459468.1934
 00  5 25  1 58 30.0000000  0  8 05 09 21 29 30 23 15 25
  22478556.368   -10825705.897 8  -8415274.68146  22478561.418    22478569.4314
  23380358.348    -3706317.425 8  -2863338.36846  23380364.216    23380371.7034
  20218560.924   -25161667.523 9 -19592657.42048  20218564.665    20218571.8574
  20646085.923   -21479647.056 9 -16705338.96348  20646088.558    20646095.2104
  23026288.850    -4943206.332 8  -3840226.67546  23026290.632    23026299.2274
  21437465.083   -18362147.845 9 -14295681.02647  21437465.068    21437472.6914
  21480379.302   -15183147.059 8 -11809096.44447  21480382.407    21480389.7794
  23441622.362    -9531040.601 8  -7404570.93446  23441632.221    23441641.1954
 00  5 25  1 59  0.0000000  0  8 05 09 21 29 30 23 15 25
  22473538.964   -10852100.779 8  -8435842.05846  22473539.342    22473547.0684
  23399960.073    -3603339.280 8  -2783095.69546  23399960.333    23399967.6374
  20214085.005   -25185188.360 9 -19610985.31948  20214088.710    20214095.8354
  20642893.312   -21496422.786 9 -16718410.93248  20642896.411    20642902.8494
  23010209.411    -5027678.785 8  -3906049.23746  23010216.094    23010224.2384
  21448350.039   -18304944.703 9 -14251107.18647  21448350.669    21448357.9214
  21482806.360   -15170390.955 9 -11799156.62747  21482809.989    21482817.3434
  23423840.352    -9624515.875 8  -7477408.64246  23423845.118    23423852.6694
 00  5 25  1 59 30.0000000  0  8 05 09 21 29 30 23 15 25
  22468612.691   -10877973.349 8  -8456002.44146  22468615.600    22468623.4694
  23419585.869    -3500195.520 8  -2702723.89146  23419588.622    23419595.2754
  20209699.318   -25208239.126 9 -19628946.95548  20209702.398    20209709.6144
  20639739.783   -21512993.887 9 -16731323.46748  20639743.034    20639749.2784
  22994176.327    -5111900.348 8  -3971676.25746  22994186.612    22994196.8264
  21459307.995   -18247349.014 8 -14206227.49847  21459311.090    21459318.6734
  21485355.997   -15157005.670 9 -11788726.54847  21485357.581    21485364.2914
  23406094.656    -9717782.114 8  -7550083.50946  23406096.642    23406105.0554
 00  5 25  2  0  0.0000000  0  8 05 09 21 29 30 23 15 25
  22463791.366   -10903322.097 8  -8475754.67246  22463791.320    22463800.1764
  23439237.029    -3396888.832 8  -2622225.06446  23439246.377    23439254.2204
  20205402.957   -25230818.234 9 -19646541.06948  20205405.699    20205412.8644
  20636625.858   -21529360.079 9 -16744076.33648  20636628.833    20636634.6234
  22978206.917    -5195867.841 8  -4037105.32846  22978208.628    22978217.5814
  21470343.490   -18189361.400 8 -14161042.35047  21470345.203    21470353.2914
  21488021.991   -15142992.019 9 -11777806.83847  21488024.363    21488031.8014
  23388388.437    -9810837.295 8  -7622593.92246  23388389.667    23388397.0984
 00  5 25  2  0 30.0000000  0  8 05 09 21 29 30 23 15 25
  22459064.578   -10928145.439 8  -8495097.50946  22459067.721    22459076.2454
  23458936.248    -3293421.765 8  -2541601.31646  23458935.306    23458942.7894
  20201195.275   -25252923.677 9 -19663766.08648  20201199.000    20201206.2744
  20633549.903   -21545521.543 9 -16756669.68148  20633553.489    20633559.2764
  22962279.812    -5279578.540 8  -4102334.34846  22962280.933    22962288.3354
  21481452.399   -18130981.909 8 -14115551.88047  21481454.446    21481462.5734
  21490805.128   -15128350.865 9 -11766398.14247  21490810.162    21490817.5294
  23370716.584    -9903680.171 8  -7694938.92346  23370720.585    23370728.9404
 00  5 25  2  1  0.0000000  0  8 05 09 21 29 30 23 15 25
  22454443.801   -10952441.955 8  -8514029.82546  22454444.277    22454452.6454
  23478647.739    -3189797.166 8  -2460854.90346  23478654.926    23478662.2694
  20197081.007   -25274554.039 9 -19680620.97748  20197083.071    20197090.0994
  20630514.259   -21561478.056 9 -16769103.28248  20630516.719    20630522.8974
  22946388.871    -5363028.971 8  -4167360.51246  22946399.884    22946408.1864
  21492636.602   -18072211.310 9 -14069756.65847  21492638.347    21492646.1794
  21493710.750   -15113083.040 8 -11754501.15547  21493715.526    21493723.6624
  23353093.145    -9996309.170 8  -7767117.21246  23353094.590    23353102.7624
 00  5 25  2  1 30.0000000  0  8 05 09 21 29 30 23 15 25
  22449919.037   -10976210.038 8  -8532550.35946  22449921.406    22449930.3654
  23498393.028    -3086017.099 8  -2379987.39346  23498403.097    23498410.5794
  20193055.335   -25295707.304 9 -19697103.99948  20193057.815    20193064.7464
  20627515.187   -21577229.817 9 -16781377.32148  20627519.072    20627525.5544
  22930564.792    -5446216.116 8  -4232181.55346  22930570.141    22930578.7004
  21503890.006   -18013049.979 8 -14023656.93047  21503896.401    21503904.2754
  21496738.308   -15097189.601 9 -11742116.65847  21496740.344    21496747.8534
  23335504.203   -10088723.045 8  -7839127.90046  23335507.351    23335516.0934
 00  5 25  2  2  0.0000000  0  8 05 09 21 29 30 23 15 25
  22445494.954   -10999448.410 8  -8550658.15046  22445499.499    22445508.4734
  23518180.312    -2982083.934 8  -2299000.37446  23518181.118    23518188.0044
  20189119.223   -25316381.896 9 -19713214.06048  20189123.438    20189130.4654
  20624558.907   -21592776.986 9 -16793491.98848  20624560.630    20624567.1934
  22914779.776    -5529136.661 8  -4296794.87146  22914790.630    22914798.7584
  21515224.027   -17953498.224 8 -13977253.01647  21515228.507    21515236.6194
  21499881.629   -15080671.560 9 -11729245.46147  21499883.072    21499891.3114
  23317962.264   -10180920.482 8  -7910969.90746  23317964.033    23317971.5694
 00  5 25  2  2 30.0000000  0  8 05 09 21 29 30 23 15 25
  22441171.778   -11022155.499 8  -8568352.00346  22441177.931    22441186.4574
  23537984.549    -2878000.683 8  -2217896.40846  23537987.332    23537994.1064
  20185278.608   -25336576.344 9 -19728949.99548  20185280.660    20185287.6364
  20621638.162   -21608119.247 9 -16805446.97748  20621641.139    20621647.6934
  22899063.111    -5611787.505 8  -4361198.03646  22899063.062    22899071.2554
  21526634.386   -17893556.575 8 -13930545.29947  21526635.515    21526643.2304
  21503141.673   -15063529.818 8 -11715888.26147  21503143.983    21503152.6454
  23300461.434   -10272899.948 8  -7982642.11446  23300461.234    23300468.0394
 00  5 25  2  3  0.0000000  0  8 05 09 21 29 30 23 15 25
  22436951.374   -11044329.719 8  -8585630.58146  22436957.902    22436966.7794
  23557813.511    -2773769.571 8  -2136677.33546  23557822.131    23557828.8734
  20181526.937   -25356288.368 9 -19744309.99548  20181529.466    20181536.7924
  20618757.232   -21623256.859 9 -16817242.48948  20618760.421    20618767.1924
  22883384.253    -5694165.742 8  -4425388.74146  22883386.619    22883394.6924
  21538115.038   -17833225.470 8 -13883534.11647  21538115.744    21538124.1634
  21506523.929   -15045765.500 8 -11702045.92047  21506525.526    21506534.2984
  23283003.589   -10364659.925 8  -8054143.28046  23282999.796    23283007.1904
 00  5 25  2  3 30.0000000  0  8 05 09 21 29 30 23 15 25
  22432837.311   -11065969.810 8  -8602492.97046  22432840.320    22432848.8374
  23577679.439    -2669392.933 8  -2055344.79646  23577684.022    23577690.8444
  20177866.602   -25375517.074 9 -19759293.42848  20177870.405    20177877.4204
  20615915.811   -21638189.475 9 -16828878.28648  20615918.492    20615925.3254
  22867754.366    -5776267.930 8  -4489364.40146  22867762.314    22867771.0214
  21549665.276   -17772505.475 8 -13836219.81147  21549670.060    21549677.8624
  21510022.832   -15027379.641 8 -11687719.26447  21510024.061    21510032.4794
  23265572.411   -10456198.885 8  -8125472.22446  23265579.952    23265587.7664
 00  5 25  2  4  0.0000000  0  9 05 09 21 11 29 30 23 15 25
  22428821.165   -11087074.281 8  -8618938.00146  22428824.631    22428833.1964
  23597571.192    -2564873.198 8  -1973900.76546  23597573.396    23597580.2314
  20174301.125   -25394260.255 9 -19773898.47548  20174303.743    20174310.4824
  24584218.457    -1786127.35017  -1374545.87155  24584220.693    24584227.9664
  20613112.817   -21652917.525 9 -16840354.65948  20613115.629    20613122.4524
  22852188.070    -5858091.081 8  -4553122.63746  22852193.025    22852200.2764
  21561294.482   -17711397.350 8 -13788603.15947  21561298.952    21561307.2224
  21513638.019   -15008373.347 9 -11672909.14747  21513641.343    21513649.7624
  23248198.746   -10547515.672 8  -8196628.04646  23248203.013    23248211.7794
 00  5 25  2  4 30.0000000  0  9 05 09 21 11 29 30 23 15 25
  22424903.768   -11107642.016 8  -8634964.74846  22424910.213    22424918.9164
  23617486.046    -2460213.105 8  -1892347.47446  23617489.833    23617496.4894
  20170827.331   -25412515.808 9 -19788123.58248  20170829.997    20170836.9184
  24572295.980    -1848797.461 7  -1423379.62445  24572295.547    24572302.3804
  20610348.010   -21667440.609 9 -16851671.32848  20610352.141    20610359.0024
  22836673.037    -5939632.311 8  -4616661.19546  22836676.281    22836684.6574
  21572997.722   -17649901.483 8 -13740684.37547  21573001.467    21573008.7564
  21517372.037   -14988747.807 9 -11657616.52047  21517375.924    21517384.0684
  23230867.160   -10638608.937 8  -8267609.67346  23230868.833    23230876.4084
 00  5 25  2  5  0.0000000  0  9 05 09 21 11 29 30 23 15 25
  22421092.116   -11127671.527 8  -8650572.13746  22421098.423    22421107.2504
  23637426.604    -2355415.021 8  -1810686.66746  23637431.212    23637439.1354
  20167446.686   -25430282.106 9 -19801967.50848  20167449.128    20167456.3104
  24560446.976    -1911040.349 8  -1471880.49545  24560450.891    24560458.6614
  20607624.932   -21681759.056 9 -16862828.54348  20607627.986    20607634.0884
  22821209.775    -6020888.365 8  -4679977.52946  22821212.848    22821221.6794
  21584775.118   -17588018.266 8 -13692463.70847  21584777.778    21584785.4164
  21521227.355   -14968504.046 9 -11641842.14847  21521228.975    21521236.0024
  23213575.695   -10729476.977 8  -8338415.82046  23213576.010    23213584.7774
 00  5 25  2  5 30.0000000  0  9 05 09 21 11 29 30 23 15 25
  22417382.398   -11147161.612 8  -8665759.19346  22417389.976    22417398.5824
  23657400.261    -2250481.251 8  -1728920.07745  23657399.661    23657407.9074
  20164158.047   -25447558.753 9 -19815429.90648  20164161.424    20164168.6434
  24548683.054    -1972854.231 7  -1520047.20145  24548688.093    24548695.3934
  20604937.098   -21695872.499 9 -16873826.00348  20604941.633    20604948.6484
  22805800.083    -6101856.102 8  -4743069.24846  22805805.345    22805813.8884
  21596625.773   -17525748.420 8 -13643941.83047  21596627.276    21596634.9284
  21525196.290   -14947643.127 9 -11625586.86347  21525198.353    21525205.9574
  23196325.174   -10820118.921 8  -8409045.77646  23196327.706    23196335.7934
 00  5 25  2  6  0.0000000  0  9 05 09 21 11 29 30 23 15 25
  22413785.333   -11166111.230 8  -8680525.14346  22413785.084    22413792.9264
  23677386.138    -2145414.132 8  -1647049.44746  23677394.140    23677400.4934
  20160963.412   -25464343.284 9 -19828508.82148  20160967.711    20160974.5154
  24537002.554    -2034237.133 7  -1567877.97045  24537007.119    24537013.3854
  20602290.079   -21709781.082 9 -16884663.83748  20602294.820    20602301.4314
  22790454.202    -6182532.219 8  -4805933.70846  22790454.103    22790461.5864
  21608547.832   -17463092.412 8 -13595119.00047  21608550.287    21608558.0804
  21529279.907   -14926166.330 9 -11608851.69647  21529284.252    21529292.6274
  23179119.836   -10910532.927 8  -8479498.15646  23179122.190    23179130.8534
 00  5 25  2  6 30.0000000  0  9 05 09 21 11 29 30 23 15 25
  22410278.562   -11184518.966 8  -8694868.81346  22410281.751    22410289.4544
  23697412.503    -2040216.443 8  -1565077.16545  23697412.948    23697418.9984
  20157862.924   -25480633.571 9 -19841202.42048  20157867.185    20157874.7264
  24525401.190    -2095187.100 7  -1615371.33345  24525409.578    24525415.1784
  20599683.089   -21723484.872 9 -16895342.07848  20599687.180    20599693.7574
  22775153.964    -6262913.787 8  -4868568.65246  22775157.206    22775165.7664
  21620543.587   -17400050.894 8 -13545995.78047  21620546.610    21620554.7674
  21533484.527   -14904074.957 8 -11591637.62647  21533488.511    21533496.0754
  23161960.254   -11000717.825 8  -8549772.01946  23161960.583    23161969.0264
 00  5 25  2  7  0.0000000  0  9 05 09 21 11 29 30 23 15 25
  22406878.432   -11202383.560 8  -8708789.22246  22406881.771    22406889.8254
  23717450.785    -1934890.411 8  -1483004.96845  23717455.500    23717462.1744
  20154858.741   -25496428.356 9 -19853509.99748  20154861.545    20154869.0214
  24513890.179    -2155702.380 7  -1662525.97145  24513892.912    24513900.2344
  20597113.675   -21736983.629 9 -16905860.56948  20597118.718    20597125.1784
  22759913.408    -6342997.912 8  -4930971.82146  22759917.212    22759925.5904
  21632615.013   -17336624.453 8 -13496572.62547  21632616.403    21632623.9174
  21537807.353   -14881370.393 9 -11573945.76147  21537809.024    21537816.4144
  23144833.839   -11090672.364 8  -8619866.35346  23144843.144    23144851.3094
 00  5 25  2  7 30.0000000  0  9 05 09 21 11 29 30 23 15 25
  22403586.554   -11219703.693 8  -8722285.43146  22403585.585    22403594.4074
  23737518.863    -1829438.425 8  -1400834.65745  23737522.419    23737528.7364
  20151947.875   -25511725.885 9 -19865430.15048  20151950.713    20151957.6704
  24502457.782    -2215781.533 7  -1709340.91645  24502459.306    24502466.0844
  20594585.765   -21750277.676 9 -16916219.60348  20594589.248    20594595.2694
  22744732.313    -6422781.221 8  -4993140.55546  22744734.489    22744743.3614
  21644757.604   -17272813.570 8 -13446849.89847  21644758.830    21644766.8724
  21542242.215   -14858053.697 8 -11555776.91647  21542245.433    21542253.6294
  23127764.127   -11180395.151 8  -8689780.11046  23127769.438    23127777.1594
 00  5 25  2  8  0.0000000  0  9 05 09 21 11 29 30 23 15 25
  22400392.244   -11236478.116 8  -8735356.38546  22400393.750    22400402.0344
  23757613.872    -1723862.673 8  -1318567.80546  23757613.317    23757619.0944
  20149131.675   -25526524.731 9 -19876961.67348  20149134.365    20149141.5124
  24491109.059    -2275422.611 7  -1755814.32345  24491112.545    24491117.8404
  20592094.801   -21763366.481 9 -16926418.56748  20592098.296    20592104.3754
  22729610.785    -6502260.833 8  -5055072.68346  22729611.124    22729618.8914
  21656971.726   -17208618.946 8 -13396828.15747  21656974.914    21656982.5894
  21546796.850   -14834125.957 8 -11537131.90047  21546799.500    21546806.9834
  23110737.772   -11269885.007 8  -8759512.37246  23110740.017    23110748.4914
 00  5 25  2  8 30.0000000  0  9 05 09 21 11 29 30 23 15 25
  22397303.465   -11252705.804 8  -8748001.29746  22397305.714    22397314.2784
  23777725.597    -1618165.707 8  -1236206.42945  23777726.112    23777732.6564
  20146410.317   -25540823.788 9 -19888103.76448  20146413.484    20146420.8684
  24479839.509    -2334623.940 7  -1801945.16945  24479845.864    24479850.4024
  20589645.745   -21776250.245 9 -16936457.84548  20589647.134    20589652.5514
  22714544.895    -6581433.447 8  -5116765.58146  22714545.308    22714553.4174
  21669263.299   -17144041.225 8 -13346507.88247  21669263.618    21669271.4104
  21551465.776   -14809588.940 8 -11518012.17947  21551468.690    21551476.9264
  23093749.730   -11359140.232 8  -8829061.81446  23093754.082    23093763.1804
 00  5 25  2  9  0.0000000  0  9 05 09 21 11 29 30 23 15 25
  22394320.847   -11268385.655 8  -8760219.30446  22394322.169    22394330.6544
  23797865.810    -1512349.961 8  -1153752.57845  23797863.148    23797868.4244
  20143785.206   -25554620.813 9 -19898854.77148  20143788.289    20143795.0654
  24468662.666    -2393383.637 7  -1847731.93745  24468662.559    24468669.3924
  20587231.753   -21788929.047 9 -16946337.43748  20587234.247    20587239.9434
  22699533.095    -6660296.109 8  -5178216.95246  22699536.882    22699546.4764
  21681624.683   -17079081.256 8 -13295889.74347  21681625.145    21681632.4294
  21556248.398   -14784443.943 8 -11498418.66247  21556253.122    21556261.6244
  23076807.649   -11448159.753 8  -8898427.56146  23076814.760    23076823.6424
 00  5 25  2  9 30.0000000  0  9 05 09 21 11 29 30 23 15 25
  22391439.264   -11283516.674 8  -8772009.67046  22391442.842    22391450.8274
  23818018.580    -1406418.106 8  -1071208.28945  23818020.936    23818026.2734
  20141255.992   -25567914.780 9 -19909213.63548  20141258.267    20141265.1724
  24457558.688    -2451700.146 7  -1893173.39445  24457567.449    24457575.1854
  20584855.560   -21801402.613 9 -16956057.07448  20584860.493    20584866.1944
  22684587.207    -6738845.738 8  -5239424.40546  22684590.673    22684598.2384
  21694052.784   -17013739.560 8 -13244974.18847  21694059.395    21694066.8604
  21561150.001   -14758692.276 8 -11478352.41647  21561152.776    21561162.1124
  23059918.338   -11536942.473 8  -8967608.80046  23059920.033    23059928.4914
 00  5 25  2 10  0.0000000  0  9 05 09 21 11 29 30 23 15 25
  22388665.402   -11298097.654 8  -8783371.48746  22388667.956    22388675.8664
  23838193.115    -1300372.039 8   -988574.95145  23838201.273    23838206.2074
  20138819.956   -25580704.326 9 -19919179.54348  20138824.353    20138831.6124
  24446551.882    -2509571.684 7  -1938268.04245  24446553.690    24446558.1264
  20582522.275   -21813671.003 9 -16965616.87048  20582525.732    20582531.9564
  22669700.286    -6817079.191 8  -5300385.51846  22669703.060    22669710.5414
  21706561.834   -16948016.777 8 -13193761.67547  21706566.472    21706573.7214
  21566163.525   -14732335.145 8 -11457814.39147  21566168.125    21566177.4664
  23043068.964   -11625486.836 8  -9036604.33446  23043070.561    23043078.9174
 00  5 25  2 10 30.0000000  0  9 05 09 21 11 29 30 23 15 25
  22385995.308   -11312127.057 8  -8794303.45146  22385998.151    22386006.2974
  23858396.727    -1194214.376 8   -905854.71146  23858402.256    23858408.0914
  20136482.405   -25592987.477 9 -19928750.80548  20136486.739    20136494.0224
  24435617.030    -2566996.701 7  -1983014.90745  24435626.913    24435632.9614
  20580226.700   -21825734.100 9 -16975016.68848  20580229.976    20580236.3754
  22654874.421    -6894993.281 8  -5361097.76746  22654876.038    22654884.3664
  21719142.585   -16881913.776 8 -13142252.89347  21719144.845    21719153.2074
  21571295.083   -14705374.066 8 -11436805.72947  21571299.322    21571307.4794
  23026261.694   -11713791.581 8  -9105413.13746  23026266.451    23026273.8954
 00  5 25  2 11  0.0000000  0  9 05 09 21 11 29 30 23 15 25
  22383432.605   -11325604.322 8  -8804805.18246  22383433.375    22383441.6704
  23878620.867    -1087947.093 8   -823049.01545  23878624.429    23878629.8634
  20134242.904   -25604762.949 9 -19937926.47248  20134246.141    20134253.1634
  24424783.162    -2623973.323 7  -2027412.23045  24424784.288    24424790.7004
  20577970.091   -21837591.940 9 -16984256.58848  20577973.466    20577980.0884
  22640107.313    -6972585.265 8  -5421559.01546  22640110.747    22640118.8974
  21731795.462   -16815431.360 8 -13090448.46347  21731796.093    21731804.2214
  21576542.480   -14677810.721 8 -11415327.79547  21576545.079    21576552.4924
  23009505.559   -11801855.136 8  -9174034.02146  23009509.032    23009515.9384
 00  5 25  2 11 30.0000000  0  9 05 09 21 11 29 30 23 15 25
  22380964.610   -11338528.272 8  -8814875.76046  22380974.057    22380982.8004
  23898862.898     -981572.881 8   -740160.00746  23898866.714    23898872.6394
  20132098.982   -25616028.792 9 -19946705.03448  20132102.514    20132109.4054
  24414020.619    -2680499.874 7  -2071458.87945  24414027.861    24414033.8954
  20575751.531   -21849244.356 9 -16993336.38748  20575755.813    20575762.9844
  22625407.652    -7049852.031 8  -5481766.84246  22625407.916    22625415.2254
  21744515.250   -16748570.008 8 -13038348.75047  21744519.786    21744527.5394
  21581899.715   -14649646.611 8 -11393381.76847  21581903.584    21581912.0594
  22992794.592   -11889676.336 8  -9242466.03446  22992797.229    22992804.3384
 00  5 25  2 12  0.0000000  0  9 05 09 21 11 29 30 23 15 25
  22378615.490   -11350898.255 8  -8824514.67946  22378620.447    22378629.1274
  23919123.211     -875094.106 8   -657189.59945  23919128.938    23919135.2714
  20130054.123   -25626784.183 9 -19955085.85448  20130055.662    20130062.9674
  24403348.833    -2736574.987 7  -2115153.81545  24403356.237    24403361.9924
  20573574.413   -21860691.208 9 -17002256.02548  20573578.060    20573584.6044
  22610764.038    -7126790.376 8  -5541718.75046  22610767.008    22610774.8724
  21757308.011   -16681330.602 8 -12985954.45047  21757315.184    21757322.4864
  21587374.602   -14620883.134 8 -11370968.68347  21587377.491    21587385.0264
  22976129.999   -11977254.152 8  -9310708.41646  22976131.079    22976139.3774
 00  5 25  2 12 30.0000000  0  9 05 09 21 11 29 30 23 15 25
  22376370.972   -11362713.089 8  -8833721.03046  22376372.554    22376379.5854
  23939411.933     -768512.772 8   -574139.21646  23939409.784    23939416.5904
  20128101.930   -25637027.543 9 -19963067.72948  20128106.216    20128113.6744
  24392767.352    -2792197.075 7  -2158495.71645  24392772.681    24392779.4064
  20571435.979   -21871932.421 9 -17011015.37748  20571438.695    20571445.2814
  22596183.756    -7203397.487 8  -5601412.55346  22596188.725    22596196.4774
  21770179.743   -16613713.912 8 -12933266.17147  21770181.897    21770190.4404
  21592961.257   -14591521.764 8 -11348089.68747  21592964.272    21592972.9184
  22959506.935   -12064587.194 8  -9378760.08446  22959512.011    22959519.5564
 00  5 25  2 13  0.0000000  0  9 05 09 21 11 29 30 23 15 25
  22374228.093   -11373971.615 8  -8842493.86946  22374229.889    22374236.9384
  23959704.568     -661831.475 8   -491010.90946  23959710.525    23959717.6084
  20126251.927   -25646757.714 9 -19970649.73448  20126255.040    20126262.0844
  24382274.469    -2847364.377 7  -2201483.35645  24382274.763    24382280.4954
  20569334.485   -21882968.111 9 -17019614.60048  20569338.544    20569345.1554
  22581670.076    -7279670.498 8  -5660846.00346  22581674.870    22581681.6464
  21783119.443   -16545720.642 8 -12880284.45247  21783120.538    21783128.8254
  21598663.314   -14561564.041 8 -11324745.96447  21598665.632    21598674.5684
  22942932.535   -12151673.961 8  -9446619.82046  22942938.522    22942947.9174
 00  5 25  2 13 30.0000000  0  9 05 09 21 11 29 30 23 15 25
  22372190.187   -11384673.070 8  -8850832.64746  22372192.512    22372200.8914
  23980027.564     -555052.344 8   -407806.35546  23980029.690    23980037.4034
  20124497.439   -25655972.470 9 -19977830.01648  20124501.337    20124508.3404
  24371861.504    -2902074.799 7  -2244114.78945  24371864.334    24371870.1644
  20567273.970   -21893797.992 9 -17028053.43848  20567277.496    20567284.1194
  22567225.992    -7355605.867 8  -5720016.36846  22567225.037    22567232.1274
  21796125.026   -16477351.576 8 -12827009.92047  21796130.943    21796139.1864
  21604477.696   -14531011.857 8 -11300939.03847  21604479.938    21604488.1324
  22926412.976   -12238513.041 8  -9514286.56046  22926414.068    22926422.7464
 00  5 25  2 14  0.0000000  0  9 05 09 21 11 29 30 23 15 25
  22370260.903   -11394816.534 8  -8858736.63646  22370262.735    22370271.4574
  24000365.837     -448177.409 8   -324527.04646  24000367.531    24000374.4374
  20122843.996   -25664670.992 9 -19984608.02848  20122846.120    20122853.1104
  24361534.518    -2956327.429 7  -2286389.51845  24361537.792    24361545.7074
  20565253.695   -21904422.137 9 -17036331.97448  20565255.727    20565262.2624
  22552836.742    -7431200.674 8  -5778921.34946  22552839.375    22552847.0434
  21809208.499   -16408607.554 8 -12773443.20047  21809212.595    21809220.5754
  21610404.556   -14499866.717 8 -11276670.14747  21610406.760    21610415.2544
  22909937.384   -12325103.520 8  -9581759.58946  22909936.716    22909944.7724
 00  5 25  2 14 30.0000000  0  9 05 09 21 11 29 30 23 15 25
  22368437.812   -11404401.027 8  -8866205.07046  22368438.496    22368447.1934
  24020712.638     -341209.671 8   -241175.60845  24020722.467    24020729.4664
  20121287.936   -25672851.834 9 -19990982.70548  20121289.426    20121296.6224
  24351293.190    -3010120.382 7  -2328306.07845  24351302.017    24351311.1394
  20563270.164   -21914840.383 9 -17044450.08948  20563273.613    20563279.6924
  22538515.256    -7506452.142 8  -5837558.77346  22538518.977    22538526.6764
  21822361.086   -16339489.458 8 -12719584.99847  21822365.615    21822373.3384
  21616443.146   -14468130.249 8 -11251940.49247  21616446.027    21616454.4454
  22893501.931   -12411444.173 8  -9649037.92646  22893507.192    22893514.3164
 00  5 25  2 15  0.0000000  0  9 05 09 21 11 29 30 23 15 25
  22366719.058   -11413426.044 8  -8873237.52046  22366721.409    22366728.8954
  24041089.991     -234151.124 8   -157753.36145  24041094.811    24041101.9564
  20119828.059   -25680513.339 9 -19996952.68848  20119831.322    20119838.4704
  24341134.127                                    24341149.547    24341161.1394
  20561327.460   -21925052.582 9 -17052407.65248  20561330.398    20561336.2434
  22524262.517    -7581357.162 8  -5895926.25946  22524265.016    22524272.7924
  21835586.074   -16269997.990 8 -12665435.84347  21835588.778    21835597.3834
  21622593.809   -14435803.886 8 -11226751.13847  21622597.615    21622605.2254
  22877121.071   -12497533.835 8  -9716120.71546  22877124.079    22877132.1824
 00  5 25  2 15 30.0000000  0  8 05 09 21 29 30 23 15 25
  22365105.687   -11421890.528 8  -8879833.23646  22365111.322    22365118.7884
  24061490.828     -127004.075 8    -74262.19445  24061484.938    24061490.9264
  20118469.018   -25687654.552 9 -20002517.28648  20118472.533    20118479.2324
  20559423.171   -21935058.661 9 -17060204.59848  20559426.358    20559432.1174
  22510073.541    -7655912.996 8  -5954021.63646  22510077.302    22510085.2664
  21848882.644   -16200134.016 8 -12610996.44647  21848883.566    21848892.0814
  21628856.678   -14402889.480 8 -11201103.55747  21628860.754    21628868.9484
  22860785.873   -12583371.206 8  -9783006.93546  22860790.514    22860798.4554
 00  5 25  2 16  0.0000000  0  9 05 09 21 11 29 30 23 15 25
  22363599.530   -11429793.825 8  -8885991.62046  22363606.691    22363614.7414
  24081891.279      -19770.579 8      9296.37945  24081890.471    24081897.2254
  20117210.016   -25694274.148 9 -20007675.51748  20117212.840    20117219.9714
  24321112.319      -30968.23817
  20557556.844   -21944858.475 9 -17067840.79948  20557561.186    20557567.6264
  22495955.314    -7730116.324 8  -6011842.33246  22495957.514    22495964.3904
  21862247.143   -16129898.329 8 -12556267.39047  21862249.424    21862257.0454
  21635232.629   -14369388.776 8 -11174999.11647  21635235.109    21635243.9884
  22844504.095   -12668955.219 8  -9849695.70646  22844504.502    22844511.3744
 00  5 25  2 16 30.0000000  0  9 05 09 21 11 29 30 23 15 25
  22362206.932   -11437134.968 8  -8891711.97546  22362209.252    22362218.5464
  24102301.012       87547.500 8     92920.92045  24102311.804    24102318.2984
  20116050.432   -25700370.751 9 -20012426.11548  20116052.796    20116059.8304
  24311232.208      -82907.980 7    -51686.44254  24311234.587    24311244.4634
  20555733.556   -21954451.896 9 -17075316.16648  20555735.935    20555742.0104
  22481899.506    -7803964.276 8  -6069386.12346  22481904.011    22481911.7954
  21875681.215   -16059291.840 8 -12501249.40247  21875685.400    21875693.2794
  21641717.814   -14335303.782 8 -11148439.39447  21641721.482    21641730.0854
  22828264.616   -12754284.284 8  -9916185.84646  22828266.845    22828275.2004
 00  5 25  2 17  0.0000000  0  9 05 09 21 11 29 30 23 15 25
  22360919.469   -11443913.167 8  -8896993.68346  22360920.439    22360928.7154
  24122752.318      194947.578 8    176609.34345  24122749.459    24122756.3094
  20114989.516   -25705942.903 9 -20016767.89848  20114992.388    20114999.1594
  24301449.055     -134380.579 7    -91795.02744  24301443.332    24301448.0834
  20553945.547   -21963838.915 9 -17082630.68848  20553949.337    20553955.8644
  22467915.530    -7877453.738 8  -6126650.56146  22467919.699    22467926.8264
  21889190.955   -15988315.446 8 -12445943.17347  21889191.147    21889199.7844
  21648314.589   -14300635.728 8 -11121425.34347  21648318.900    21648326.6224
  22812077.503   -12839357.661 8  -9982476.69746  22812078.649    22812084.4264
 00  5 25  2 17 30.0000000  0  9 05 09 21 11 29 30 23 15 25
  22359734.637   -11450127.779 8  -8901836.21546  22359737.972    22359745.4274
  24143207.311      302427.246 8    260359.68245  24143201.399    24143208.6934
  20114028.016   -25710989.471 9 -20020700.31748  20114032.072    20114039.0094
  24291735.553     -185384.343 7   -131538.20144  24291738.861    24291742.5634
  20552198.730   -21973019.442 9 -17089784.36548  20552202.089    20552208.9444
  22454003.162    -7950582.276 8  -6183633.76346  22454003.855    22454011.0684
  21902765.025   -15916970.132 8 -12390349.48247  21902768.192    21902776.6194
  21655024.010   -14265386.649 8 -11093958.52347  21655027.227    21655034.3024
  22795932.502   -12924173.948 8 -10048567.26546  22795938.148    22795944.8974
 00  5 25  2 18  0.0000000  0  9 05 09 21 11 29 30 23 15 25
  22358658.284   -11455778.025 8  -8906239.00446  22358661.695    22358670.2834
  24163667.444      409984.419 7    344170.53045  24163668.432    24163676.6424
  20113169.498   -25715509.245 9 -20024222.22048  20113171.995    20113179.1754
  24282122.421     -235918.297 7   -170915.31444  24282121.353    24282125.4714
  20550490.589   -21981993.273 9 -17096776.97348  20550494.538    20550501.2054
  22440151.812    -8023346.361 8  -6240332.99946  22440157.236    22440164.5404
  21916413.306   -15845256.668 8 -12334468.93447  21916414.900    21916423.6024
  21661841.201   -14229558.364 8 -11066040.41747  21661844.602    21661852.7204
  22779842.868   -13008731.948 8 -10114456.54546  22779847.750    22779853.8294
 00  5 25  2 18 30.0000000  0  9 05 09 21 11 29 30 23 15 25
  22357695.120   -11460863.425 8  -8910201.64446  22357693.738    22357702.3304
  24184141.167      517616.733 7    428039.92245  24184150.120    24184158.1824
  20112408.707   -25719500.995 9 -20027332.71948  20112411.987    20112419.5354
  24272595.973     -285980.611 7   -209924.80644  24272593.454    24272599.2674
  20548822.001   -21990760.236 9 -17103608.39648  20548826.187    20548832.7304
  22426374.102    -8095743.025 8  -6296745.94446  22426380.397    22426388.1234
  21930126.099   -15773175.978 8 -12278302.21747  21930131.294    21930140.1044
  21668769.582   -14193152.717 8 -11037672.41047  21668772.209    21668780.6014
  22763800.623   -13093030.535 8 -10180143.72146  22763805.114    22763812.6534
 00  5 25  2 19  0.0000000  0  9 05 09 21 11 29 30 23 15 25
  22356828.912   -11465383.188 8  -8913723.51946  22356834.176    22356842.0374
  24204632.564      625322.084 7    511966.18945  24204645.604    24204652.7674
  20111750.244   -25722963.253 9 -20030030.64848  20111753.460    20111760.6584
  24263157.484     -335570.519 7   -248566.29245  24263159.357    24263163.7284
  20547192.739   -21999320.422 9 -17110278.69248  20547197.370    20547203.7424
  22412671.695    -8167769.662 8  -6352870.51046  22412674.119    22412681.9064
  21943913.476   -15700729.023 8 -12221850.12346  21943917.137    21943926.4494
  21675806.796   -14156171.351 8 -11008855.71847  21675809.382    21675817.9924
  22747808.748   -13177068.803 8 -10245628.01546  22747812.677    22747821.6664
 00  5 25  2 19 30.0000000  0  9 05 09 21 11 29 30 23 15 25
  22356078.706   -11469336.578 8  -8916804.07646  22356081.704    22356089.9594
  24225151.802      733098.615 7    595947.93645  24225155.221    24225162.3594
  20111191.502   -25725894.846 9 -20032315.00848  20111195.564    20111202.8984
  24253807.584     -384686.084 7   -286838.33945  24253811.143    24253819.5474
  20545604.342   -22007673.426 9 -17116787.55548  20545608.051    20545614.4144
  22399031.717    -8239423.340 8  -6408704.48446  22399038.920    22399046.4534
  21957768.269   -15627916.769 8 -12165113.36146  21957773.233    21957781.3994
  21682955.233   -14118616.564 9 -10979592.27447  21682956.848    21682964.1794
  22731868.542   -13260845.213 8 -10310908.26846  22731870.304    22731879.0634
 00  5 25  2 20  0.0000000  0  9 05 09 21 11 29 30 23 15 25
  22355436.840   -11472723.016 8  -8919442.85446  22355438.204    22355445.5034
  24245678.648      840943.779 8    679983.10545  24245678.728    24245685.3984
  20110735.946   -25728294.608 9 -20034184.88948  20110738.822    20110745.9904
  24244555.014     -433325.740 7   -324739.34345  24244556.516    24244562.7374
  20544055.666   -22015819.177 9 -17123134.88948  20544057.976    20544064.2714
  22385471.568    -8310701.139 8  -6464245.57246  22385475.246    22385482.6194
  21971692.573   -15554740.127 8 -12108092.66847  21971698.304    21971707.0404
  21690207.445   -14080490.101 8 -10949883.36647  21690211.270    21690219.2714
  22715969.596   -13344358.516 8 -10375983.51446  22715978.782    22715987.2024
 00  5 25  2 20 30.0000000  0  9 05 09 21 11 29 30 23 15 25
  22354898.946   -11475541.974 8  -8921639.42446  22354901.622    22354909.7614
  24266212.123      948855.603 8    764070.27445  24266213.189    24266219.3744
  20110381.863   -25730161.543 9 -20035639.68548  20110383.714    20110390.7604
  24235386.058     -481488.695 7   -362268.95845  24235390.439    24235394.6644
  20542544.649   -22023757.359 9 -17129320.50148  20542547.516    20542553.8694
  22371979.007    -8381599.913 8  -6519491.31546  22371983.007    22371991.0104
  21985689.003   -15481200.232 8 -12050788.89447  21985692.926    21985700.8814
  21697569.799   -14041794.102 8 -10919730.70247  21697574.860    21697583.7164
  22700137.800   -13427607.677 8 -10440852.93546  22700137.744    22700144.7414
 00  5 25  2 21  0.0000000  0  9 05 09 21 11 29 30 23 15 25
  22354472.730   -11477792.962 8  -8923393.43246  22354472.960    22354480.8104
  24286754.599     1056831.811 8    848207.58145  24286760.284    24286765.9874
  20110126.348   -25731494.271 9 -20036678.14648  20110129.844    20110137.2344
  24226310.435     -529173.164 7   -399425.68245  24226316.625    24226320.8304
  20541073.565   -22031488.352 9 -17135344.65248  20541076.494    20541082.8004
  22358556.342    -8452117.075 8  -6574439.69746  22358563.968    22358572.2344
  21999755.766   -15407298.029 8 -11993202.81947  21999756.167    21999764.4414
  21705042.088   -14002530.103 8 -10889135.37747  21705046.320    21705055.1814
  22684347.243   -13510591.502 8 -10505515.58646  22684346.427    22684353.1844
 00  5 25  2 21 30.0000000  0  9 05 09 21 11 29 30 23 15 25
  22354152.564   -11479475.440 8  -8924704.44346  22354152.446    22354160.3904
  24307313.857     1164869.928 8    932393.11445  24307319.651    24307325.6204
  20109974.355   -25732291.960 9 -20037299.67748  20109978.086    20109985.2044
  24217327.666     -576378.025 7   -436208.70245  24217333.442    24217339.0204
  20539641.171   -22039011.405 9 -17141206.75448  20539644.757    20539651.0784
  22345213.819    -8522249.401 8  -6629088.20746  22345219.080    22345226.5814
  22013889.920   -15333034.383 8 -11935335.10346  22013888.005    22013896.4884
  21712624.832   -13962700.332 8 -10858099.21147  21712626.507    21712634.3024
  22668605.566   -13593308.926 8 -10569970.68546  22668606.071    22668612.2954
 00  5 25  2 22  0.0000000  0  9 05 09 21 11 29 30 23 15 25
  22353935.389   -11480588.924 8  -8925572.06946  22353940.505    22353949.3514
  24327881.088     1272968.422 8   1016625.76745  24327889.370    24327895.8824
  20109926.539   -25732553.253 9 -20037503.25448  20109928.588    20109935.6914
  24208436.562     -623102.051 7   -472617.05745  24208441.891    24208445.9964
  20538249.750   -22046326.885 9 -17146907.14648  20538252.360    20538259.1844
  22331943.634    -8591994.202 8  -6683434.73246  22331947.124    22331954.4504
  22028081.311   -15258410.296 8 -11877186.52046  22028088.164    22028096.9444
  21720308.939   -13922306.849 8 -10826623.78047  21720311.844    21720320.5314
  22652912.071   -13675758.686 8 -10634217.19646  22652915.710    22652922.9114
 00  5 25  2 22 30.0000000  0  9 05 09 21 11 29 30 23 15 25
  22353831.961   -11481132.760 8  -8925995.83846  22353837.759    22353845.3434
  24348470.383     1381124.864 8   1100903.45245  24348471.158    24348476.6184
  20109978.983   -25732277.303 9 -20037288.27548  20109981.091    20109988.2094
  24199641.347     -669343.833 7   -508649.61645  24199642.997    24199649.2884
  20536896.111   -22053434.126 9 -17152445.24048  20536899.638    20536906.3234
  22318746.508    -8661348.947 8  -6737477.34446  22318749.001    22318756.3274
  22042355.591   -15183426.737 8 -11818757.81846  22042357.135    22042366.2584
  21728100.195   -13881351.592 8 -10794710.59547  21728104.926    21728114.3804
  22637271.374   -13757939.853 8 -10698254.41446  22637276.731    22637284.5094
 00  5 25  2 23  0.0000000  0  9 05 09 21 11 29 30 23 15 25
  22353837.710   -11481106.548 8  -8925975.41946  22353842.531    22353850.2834
  24369052.761     1489337.056 8   1185224.67445  24369062.711    24369069.2654
  20110132.458   -25731462.890 9 -20036653.62448  20110135.927    20110143.0274
  24190936.146     -715102.115 8   -544305.38045  24190937.726    24190940.4034
  20535583.263   -22060333.272 9 -17157821.21048  20535587.160    20535593.2484
  22305619.787    -8730310.070 8  -6791213.22846  22305625.453    22305633.3354
  22056691.889   -15108084.849 8 -11760049.90146  22056694.417    22056702.9214
  21736000.656   -13839836.803 8 -10762361.41247  21736005.575    21736013.8024
  22621684.409   -13839851.816 8 -10762081.86346  22621689.400    22621697.1074
 00  5 25  2 23 30.0000000  0  9 05 09 21 11 29 30 23 15 25
  22353951.890   -11480509.886 8  -8925510.44446  22353955.771    22353963.0784
  24389669.908     1597603.036 8   1269587.81545  24389666.076    24389671.5554
  20110389.507   -25730109.045 9 -20035598.76848  20110393.673    20110400.4984
  24182315.070     -760375.378 7   -579583.22145  24182318.575    24182326.0474
  20534311.664   -22067024.064 9 -17163034.80448  20534313.993    20534320.0574
  22292572.836    -8798874.834 8  -6844640.25646  22292577.895    22292586.3574
  22071097.101   -15032385.745 8 -11701063.63946  22071099.861    22071107.9744
  21744009.714   -13797764.357 8 -10729577.72747  21744012.017    21744020.0444
  22606150.249   -13921493.000 8 -10825698.32246  22606154.108    22606161.2504
 00  5 25  2 24  0.0000000  0  9 05 09 21 11 29 30 23 15 25
  22354173.629   -11479342.725 8  -8924600.93246  22354177.649    22354186.2994
  24410277.273     1705920.476 8   1353990.96945  24410278.184    24410283.8754
  20110751.930   -25728214.545 9 -20034122.48448  20110754.181    20110761.0674
  24173791.469     -805162.762 7   -614482.46545  24173797.125    24173802.5784
  20533076.935   -22073506.462 9 -17168086.03048  20533080.756    20533086.6874
  22279604.903    -8867040.906 8  -6897756.61646  22279607.093    22279614.6044
  22085567.098   -14956330.396 8 -11641799.76846  22085572.494    22085580.5094
  21752123.131   -13755136.403 8 -10696361.16347  21752124.525    21752132.8124
  22590669.823   -14002862.304 8 -10889102.93446  22590670.067    22590677.3924
 00  5 25  2 24 30.0000000  0  9 05 09 21 11 29 30 23 15 25
  22354503.900   -11477604.416 8  -8923246.37246  22354507.968    22354516.9574
  24430893.100     1814287.698 8   1438432.89845  24430899.783    24430905.6554
  20111215.066   -25725778.332 9 -20032224.11548  20111217.588    20111225.1604
  24165366.836     -849463.184 7   -649002.25545  24165366.278    24165372.6344
  20531882.694   -22079779.925 9 -17172974.43848  20531886.832    20531892.9964
  22266712.727    -8934805.214 8  -6950559.93946  22266712.064    22266718.8884
  22100111.031   -14879920.155 8 -11582259.36546  22100112.948    22100120.9394
  21760334.726   -13711954.966 8 -10662713.29247  21760340.901    21760349.7334
  22575234.131   -14083958.958 8 -10952295.06446  22575237.598    22575245.3204
 00  5 25  2 25  0.0000000  0  9 05 09 21 11 29 30 23 15 25
  22354945.864   -11475294.522 8  -8921446.45346  22354947.811    22354956.4724
  24451521.967     1922702.466 7   1522912.00545  24451529.658    24451536.7124
  20111782.365   -25722799.606 9 -20029903.08048  20111784.401    20111791.9964
  24157020.229     -893275.161 7   -683141.41945  24157030.142    24157034.8404
  20530728.118   -22085844.644 9 -17177700.19948  20530732.405    20530739.0864
  22253888.624    -9002164.798 8  -7003047.89146  22253893.497    22253901.1984
  22114715.119   -14803155.940 8 -11522443.14946  22114720.394    22114728.8834
  21768660.451   -13668222.427 8 -10628636.01147  21768663.551    21768672.1744
  22559854.507   -14164781.612 8 -11015273.71046  22559857.759    22559865.9524
 00  5 25  2 25 30.0000000  0  9 05 09 21 11 29 30 23 15 25
  22355497.308   -11472412.754 8  -8919200.91046  22355496.464    22355503.9274
  24472174.640     2031162.552 8   1607426.40245  24472168.745    24472176.7624
  20112450.695   -25719277.371 9 -20027158.51748  20112454.719    20112462.0294
  24148784.239     -936597.505 7   -716899.20145  24148783.199    24148792.2634
  20529615.484   -22091700.439 9 -17182263.16048  20529618.338    20529624.6174
  22241150.014    -9069117.023 8  -7055218.40947  22241152.709    22241160.7514
  22129385.334   -14726038.793 8 -11462351.92146  22129394.828    22129403.0674
  21777087.012   -13623940.879 8 -10594130.92447  21777090.537    21777097.9614
  22544527.207   -14245329.261 8 -11078038.06446  22544530.346    22544537.6724
 00  5 25  2 26  0.0000000  0  9 05 09 21 11 29 30 23 15 25
  22356150.774   -11468958.747 8  -8916509.44046  22356153.571    22356161.6414
  24492809.123     2139665.871 7   1691974.33345  24492816.612    24492823.1944
  20113226.091   -25715210.966 9 -20023989.99548  20113228.861    20113236.1784
  24140634.041     -979429.265 7   -750274.65245  24140636.491    24140639.8334
  20528540.333   -22097346.837 9 -17186662.96848  20528543.805    20528550.2344
  22228492.203    -9135659.390 8  -7107069.57047  22228490.218    22228498.1704
  22144131.222   -14648569.719 8 -11401986.46746  22144137.576    22144145.1234
  21785618.360   -13579112.435 8 -10559199.68347  21785620.528    21785628.6284
  22529248.896   -14325600.691 8 -11140587.20546  22529255.286    22529261.3944
 00  5 25  2 26 30.0000000  0  9 05 09 21 11 29 30 23 15 25
  22356915.114   -11464932.301 8  -8913371.92146  22356920.139    22356928.3764
  24513461.180     2248210.536 7   1776554.54645  24513471.829    24513478.6214
  20114101.009   -25710598.800 9 -20020396.08248  20114106.212    20114113.5574
  24132566.763    -1021769.082 7   -783266.68145  24132578.421    24132584.8334
  20527505.758   -22102783.941 9 -17190899.69648  20527509.362    20527515.6044
  22215904.518    -9201788.491 8  -7158598.71047  22215906.431    22215913.8194
  22158948.241   -14570750.080 8 -11341347.83446  22158946.985    22158954.0084
  21794251.459   -13533739.190 8 -10523843.88647  21794254.619    21794262.4754
  22514027.565   -14405594.731 8 -11202920.19646  22514032.457    22514039.4234
 00  5 25  2 27  0.0000000  0  9 05 09 21 11 29 30 23 15 25
  22357794.783   -11460333.123 8  -8909788.10846  22357795.043    22357803.2974
  24534130.805     2356794.544 7   1861165.54045  24534134.214    24534141.3714
  20115084.988   -25705440.220 9 -20016376.34548  20115088.100    20115095.4084
  24124612.940    -1063616.176 7   -815874.89745  24124614.993    24124620.2134
  20526510.906   -22108011.331 9 -17194972.99248  20526514.340    20526520.5084
  22203396.127    -9267501.900 8  -7209803.93647  22203401.559    22203408.7724
  22173818.043   -14492580.930 8 -11280436.87646  22173822.244    22173829.5254
  21802987.234   -13487823.563 8 -10488065.48547  21802992.151    21803000.4234
  22498856.989   -14485310.747 8 -11265036.51646  22498861.548    22498870.0054
 00  5 25  2 27 30.0000000  0  9 05 09 21 11 29 30 23 15 25
  22358780.266   -11455161.039 8  -8905757.90346  22358779.576    22358787.2974
  24554797.175     2465415.744 7   1945805.42145  24554803.522    24554811.7304
  20116170.129   -25699734.409 9 -20011930.24548  20116173.995    20116181.0344
  24116738.076    -1104968.987 7   -848097.88545  24116744.104    24116750.0884
  20525555.480   -22113028.780 9 -17198882.67448  20525559.798    20525565.5484
  22190970.667    -9332796.696 8  -7260682.97946  22190976.067    22190983.4814
  22188757.359   -14414063.447 8 -11219254.48046  22188762.667    22188771.5914
  21811829.973   -13441367.913 8 -10451866.26847  21811832.701    21811839.6684
  22483740.716   -14564747.631 8 -11326935.35346  22483745.601    22483753.6964
 00  5 25  2 28  0.0000000  0  9 05 09 21 11 29 30 23 15 25
  22359867.009   -11449415.540 8  -8901280.86146  22359872.866    22359879.8924
  24575481.088     2574072.406 7   2030473.06845  24575480.668    24575488.6574
  20117361.417   -25693480.692 9 -20007057.37648  20117364.042    20117371.2864
  24108965.288    -1145826.918 7   -879935.33145  24108971.207    24108978.1564
  20524641.483   -22117836.255 9 -17202628.72748  20524644.989    20524651.2564
  22178626.930    -9397670.283 8  -7311233.79547  22178631.221    22178639.1414
  22203761.676   -14335198.735 8 -11157801.52046  22203769.624    22203778.9494
  21820771.841   -13394374.338 8 -10415247.88747  21820775.103    21820782.2924
  22468683.594   -14643904.661 8 -11388616.09246  22468682.634    22468690.7714
 00  5 25  2 28 30.0000000  0  9 05 09 21 11 29 30 23 15 25
  22361068.064   -11443096.756 8  -8896357.08546  22361075.097    22361082.5704
  24596157.380     2682761.922 7   2115166.21445  24596165.333    24596170.7984
  20118655.955   -25686677.747 9 -20001756.36848  20118658.520    20118665.6424
  24101286.271    -1186188.340 7   -911385.83145  24101290.986    24101298.0724
  20523767.453   -22122433.223 9 -17206210.73348  20523770.032    20523776.5494
  22166363.149    -9462119.778 8  -7361454.14547  22166367.201    22166374.4514
  22218835.601   -14255988.033 8 -11096078.96846  22218843.035    22218851.9234
  21829816.298   -13346845.010 8 -10378212.04247  21829819.696    21829827.6644
  22453672.943   -14722780.254 8 -11450077.56146  22453673.887    22453681.2824
 00  5 25  2 29  0.0000000  0  9 05 09 21 11 29 30 23 15 25
  22362383.922   -11436204.547 8  -8890986.48846  22362386.462    22362394.9044
  24616854.757     2791482.760 7   2199883.77045  24616853.253    24616861.3214
  20120055.760   -25679325.174 9 -19996027.06248  20120057.520    20120064.6324
  24093704.519    -1226052.915 7   -942449.21545  24093703.565    24093710.4034
  20522931.180   -22126819.937 9 -17209628.97148  20522935.075    20522941.9534
  22154181.006    -9526142.591 8  -7411342.02547  22154183.665    22154190.8844
  22233978.792   -14176432.542 8 -11034087.73346  22233982.707    22233990.9304
  21838963.535   -13298782.413 8 -10340760.70847  21838965.809    21838973.9934
  22438715.774   -14801373.716 8 -11511319.16146  22438718.343    22438724.8484
 00  5 25  2 29 30.0000000  0  9 05 09 21 11 29 30 23 15 25
  22363802.284   -11428738.532 8  -8885168.79246  22363807.138    22363815.0514
  24637540.415     2900232.735 7   2284623.86545  24637548.167    24637554.5844
  20121558.366   -25671421.790 9 -19989868.60248  20121561.564    20121568.7724
  24086208.316    -1265419.084 7   -973124.18145  24086213.863    24086218.4074
  20522137.813   -22130995.926 9 -17212882.96548  20522140.626    20522146.9214
  22142081.792    -9589735.845 8  -7460895.17947  22142082.190    22142089.1894
  22249189.178   -14096533.378 8 -10971828.71546  22249187.004    22249196.1024
  21848207.306   -13250188.764 8 -10302895.54947  21848212.265    21848220.4864
  22423809.527   -14879684.296 8 -11572340.34546  22423815.730    22423822.8184
 00  5 25  2 30  0.0000000  0  9 05 09 21 11 29 30 23 15 25
  22365335.764   -11420698.885 8  -8878904.08046  22365337.179    22365345.6444
  24658245.786     3009010.334 7   2369385.69245  24658247.857    24658255.8664
  20123167.238   -25662967.124 9 -19983280.58248  20123170.509    20123177.7044
  24078813.768    -1304285.975 7  -1003410.08145  24078817.720    24078823.1204
  20521381.841   -22134961.017 9 -17215972.65248  20521385.965    20521392.1154
  22130059.822    -9652897.123 8  -7510111.73547  22130063.329    22130070.0354
  22264453.694   -14016291.775 8 -10909302.89046  22264456.839    22264465.8764
  21857557.552   -13201066.412 8 -10264618.43147  21857560.542    21857568.6164
  22408964.436   -14957710.442 8 -11633139.90746  22408967.302    22408974.1124
 00  5 25  2 30 30.0000000  0  8 05 21 11 29 30 23 15 25
  22366974.018   -11412085.492 8  -8872192.29646  22366976.859    22366984.2314
  20124880.648   -25653960.069 9 -19976262.08448  20124884.586    20124891.4834
  24071514.599    -1342652.657 8  -1033306.24745  24071518.115    24071522.7494
  20520668.807   -22138714.931 9 -17218897.78648  20520671.704    20520677.5964
  22118121.198    -9715623.662 8  -7558989.53147  22118126.625    22118133.7244
  22279791.510   -13935708.921 8 -10846511.11746  22279791.345    22279799.6894
  21867005.944   -13151417.785 8 -10225931.22047  21867008.302    21867016.3674
  22394169.266   -15035451.583 8 -11693717.37546  22394173.727    22394181.0954
 00  5 25  2 31  0.0000000  0  8 05 21 11 29 30 23 15 25
  22368718.284   -11402898.278 8  -8865033.39146  22368723.581    22368732.6774
  20126701.454   -25644400.440 9 -19968813.01748  20126703.513    20126710.7324
  24064308.892    -1380517.910 8  -1062811.62845  24064311.826    24064317.1654
  20519994.417   -22142257.377 9 -17221658.12448  20519997.680    20520003.6154
  22106268.698    -9777912.863 8  -7607526.52647  22106273.524    22106280.0754
  22295188.829   -13854786.134 8 -10783454.47046  22295190.215    22295198.8564
  21876551.776   -13101245.167 8 -10186835.67847  21876555.757    21876563.7134
  22379432.234   -15112906.700 8 -11754071.98646  22379435.040    22379442.2164
 00  5 25  2 31 30.0000000  0  8 05 21 11 29 30 23 15 25
  22370576.579   -11393137.118 8  -8857427.25846  22370580.727    22370589.7234
  20128625.457   -25634287.558 9 -19960932.94648  20128628.417    20128635.3314
  24057204.475    -1417881.111 8  -1091925.86045  24057201.075    24057204.7364
  20519359.053   -22145588.444 9 -17224253.76948  20519363.732    20519370.0084
  22094501.030    -9839761.821 8  -7655720.49647  22094504.300    22094510.4114
  22310649.389   -13773524.529 8 -10720133.83546  22310653.206    22310662.6314
  21886199.290   -13050551.224 8 -10147333.91747  21886201.936    21886211.3534
  22364745.866   -15190074.910 8 -11814203.01446  22364750.218    22364757.2684
 00  5 25  2 32  0.0000000  0  8 05 21 11 29 30 23 15 25
  22372546.977   -11382802.113 8  -8849373.97646  22372548.830    22372555.6334
  20130654.729   -25623620.041 9 -19952620.62548  20130658.214    20130665.1314
  24050179.868    -1454741.103 7  -1120647.98145  24050188.082    24050192.2344
  20518768.084   -22148707.416 9 -17226684.12848  20518770.801    20518776.5234
  22082814.655    -9901168.045 8  -7703569.45647  22082818.887    22082825.4094
  22326178.261   -13691925.537 8 -10656550.27546  22326181.479    22326190.3264
  21895943.070   -12999338.172 8 -10107427.65647  21895948.085    21895956.2944
  22350117.589   -15266955.443 8 -11874109.88347  22350119.867    22350128.0204
 00  5 25  2 32 30.0000000  0  8 05 21 11 29 30 23 15 25
  22374621.343   -11371893.022 8  -8840873.32746  22374624.909    22374631.9594
  20132790.363   -25612397.222 9 -19943875.55048  20132793.327    20132800.8694
  24043262.502    -1491097.013 7  -1148977.27945  24043267.937    24043274.7494
  20518212.490   -22151614.365 9 -17228949.22948  20518216.919    20518223.4584
  22071213.160    -9962128.870 8  -7751071.35547  22071217.746    22071225.0614
  22341766.619   -13609990.223 8 -10592704.67346  22341773.057    22341782.9164
  21905785.602   -12947608.624 8 -10067118.92347  21905791.085    21905800.3104
  22335542.389   -15343547.193 8 -11933791.71147  22335545.064    22335553.6564
 00  5 25  2 33  0.0000000  0  8 05 21 11 29 30 23 15 25
  22376803.258   -11360410.039 8  -8831925.49746  22376808.905    22376817.8214
  20135034.684   -25600618.758 9 -19934697.58048  20135035.013    20135042.3674
  24036449.790    -1526948.343 7  -1176913.45345  24036446.728    24036452.7294
  20517700.904   -22154308.979 9 -17231048.89848  20517703.981    20517710.4894
  22059696.496   -10022641.587 8  -7798224.09347  22059702.293    22059710.3004
  22357420.023   -13527720.011 8 -10528598.07546  22357429.162    22357437.4834
  21915732.121   -12895364.729 8 -10026409.42247  21915733.040    21915741.8374
  22321023.392   -15419848.862 8 -11993247.51047  22321025.588    22321033.2414
 00  5 25  2 33 30.0000000  0  8 05 21 11 29 30 23 15 25
  22379096.736   -11348353.216 8  -8822530.53946  22379103.570    22379111.8964
  20137380.261   -25588283.737 9 -19925085.83448  20137381.946    20137389.5804
  24029716.441    -1562293.937 7  -1204455.51545  24029720.967    24029726.4804
  20517227.731   -22156790.976 9 -17232982.89448  20517232.049    20517237.9664
  22048270.623   -10082703.777 8  -7845025.75847  22048273.487    22048280.5764
  22373141.825   -13445116.239 8 -10464231.57946  22373147.598    22373157.0294
  21925769.209   -12842609.331 8  -9985301.33047  21925771.896    21925781.1204
  22306558.268   -15495859.851 8 -12052476.79747  22306560.908    22306568.5284
 00  5 25  2 34  0.0000000  0  8 05 21 11 29 30 23 15 25
  22381506.120   -11335722.839 8  -8812688.63246  22381507.757    22381515.0854
  20139832.148   -25575391.481 9 -19915039.92548  20139835.237    20139842.8734
  24023085.354    -1597133.140 7  -1231603.06745  24023089.224    24023098.8204
  20516797.705   -22159060.179 9 -17234751.07948  20516800.028    20516806.1514
  22036925.355   -10142312.840 8  -7891474.34947  22036930.328    22036937.5014
  22388930.075   -13362180.331 8 -10399606.28946  22388929.816    22388939.1244
  21935903.001   -12789344.683 8  -9943796.39946  21935907.722    21935917.0634
  22292146.649   -15571579.069 8 -12111478.74547  22292152.111    22292159.2974
 00  5 25  2 34 30.0000000  0  8 05 21 11 29 30 23 15 25
  22384018.144   -11322519.056 8  -8802399.91446  22384019.839    22384027.7954
  20142390.911   -25561942.021 9 -19904559.85248  20142394.715    20142402.0974
  24016550.162    -1631464.792 7  -1258355.07345  24016557.175    24016565.4704
  20516405.592   -22161116.358 9 -17236353.28448  20516408.623    20516414.9804
  22025670.338   -10201466.116 8  -7937567.76947  22025673.576    22025681.2634
  22404777.478   -13278913.529 8 -10334723.15446  22404775.380    22404784.1934
  21946138.683   -12735573.489 8  -9901896.77646  21946139.982    21946149.3854
  22277795.646   -15647005.893 8 -12170252.86447  22277799.141    22277806.0504
 00  5 25  2 35  0.0000000  0  8 05 21 11 29 30 23 15 25
  22386638.434   -11308741.791 8  -8791664.32646  22386641.128    22386649.9614
  20145057.699   -25547934.576 9 -19893645.02348  20145060.372    20145068.0114
  24010111.559    -1665288.089 7  -1284710.89445  24010120.474    24010127.5834
  20516055.251   -22162959.005 9 -17237789.08748  20516057.944    20516064.5634
  22014503.331   -10260161.146 8  -7983304.12847  22014503.945    22014511.3164
  22420676.326   -13195317.136 8 -10269583.17446  22420682.975    22420692.4794
  21956467.139   -12681298.113 8  -9859604.26146  21956469.268    21956476.5264
  22263497.003   -15722139.373 8 -12228798.38247  22263501.181    22263508.5944
 00  5 25  2 35 30.0000000  0  8 05 21 11 29 30 23 15 25
  22389369.131   -11294391.193 8  -8780481.99346  22389372.317    22389380.7304
  20147829.088   -25533368.426 9 -19882294.83548  20147832.249    20147839.7364
  24003778.934    -1698602.265 7  -1310670.00245  24003781.312    24003790.1234
  20515744.989   -22164588.198 9 -17239058.59348  20515747.791    20515754.2394
  22003421.695   -10318395.137 8  -8028681.21547  22003422.317    22003430.0994
  22436651.749   -13111392.440 8 -10204187.38746  22436654.337    22436662.6954
  21966890.633   -12626521.242 8  -9816920.97046  21966893.266    21966900.5574
  22249257.655   -15796978.696 8 -12287114.68447  22249259.808    22249267.3624
 00  5 25  2 36  0.0000000  0  8 05 21 11 29 30 23 15 25
  22392205.779   -11279467.525 8  -8768853.08846  22392212.009    22392220.4684
  20150708.363   -25518243.092 9 -19870508.92248  20150710.618    20150718.0454
  23997535.192    -1731406.904 7  -1336232.10945  23997538.072    23997546.0564
  20515474.425   -22166003.332 9 -17240161.31648  20515478.716    20515485.1554
  21992426.083   -10376165.570 8  -8073697.09347  21992428.793    21992436.1504
  22452679.856   -13027140.856 8 -10138536.88646  22452686.480    22452694.9184
  21977409.136   -12571245.303 8  -9773848.85346  21977411.509    21977419.2284
  22235072.751   -15871522.866 8 -12345201.04547  22235074.777    22235082.0044
 00  5 25  2 36 30.0000000  0  8 05 21 11 29 30 23 15 25
  22395158.754   -11263971.080 8  -8756777.88346  22395160.869    22395168.4974
  20153691.478   -25502557.814 9 -19858286.62248  20153695.349    20153702.7254
  23991387.055    -1763701.049 7  -1361396.48045  23991392.256    23991400.1004
  20515247.448   -22167204.298 9 -17241097.12048  20515250.665    20515256.5324
  21981522.960   -10433470.156 8  -8118349.97547  21981524.555    21981532.1184
  22468777.305   -12942563.778 8 -10072632.73046  22468780.876    22468790.1094
  21988022.679   -12515472.833 8  -9730389.81146  21988024.260    21988032.6714
  22220940.962   -15945771.164 8 -12403056.81547  22220946.092    22220952.8534
 00  5 25  2 37  0.0000000  0  8 05 21 11 29 30 23 15 25
  22398216.739   -11247902.044 8  -8744256.50046  22398219.228    22398226.4984
  20156781.543   -25486312.284 9 -19845627.80448  20156786.945    20156794.4994
  23985342.440    -1795484.090 7  -1386162.54945  23985344.065    23985350.8944
  20515060.162   -22168190.786 9 -17241865.78248  20515062.890    20515068.3094
  21970706.567   -10490306.304 8  -8162637.82147  21970709.527    21970716.1794
  22484937.556   -12857662.587 8 -10006476.04746  22484937.086    22484946.3034
  21998729.208   -12459206.601 8  -9686545.98946  21998732.245    21998739.3694
  22206868.656   -16019722.602 8 -12460681.28647  22206873.333    22206880.5824
 00  5 25  2 37 30.0000000  0  8 05 21 11 29 30 23 15 25
  22401383.729   -11231260.654 8  -8731289.13746  22401386.487    22401392.6274
  20159981.669   -25469506.102 9 -19832532.13848  20159984.943    20159992.4614
  23979381.883    -1826755.089 7  -1410529.59045  23979392.963    23979401.6004
  20514912.208   -22168962.543 9 -17242467.12648  20514915.415    20514921.5044
  21959979.462   -10546671.566 9  -8206558.70047  21959983.375    21959990.3964
  22501149.257   -12772438.466 8  -9940067.74846  22501154.742    22501164.1114
  22009527.901   -12402449.283 8  -9642319.52546  22009532.145    22009539.7494
  22192853.076   -16093376.193 8 -12518073.64847  22192857.161    22192864.5024
 00  5 25  2 38  0.0000000  0  8 05 21 11 29 30 23 15 25
  22404658.555   -11214047.043 8  -8717875.87446  22404661.105    22404669.1824
  20163287.351   -25452138.574 9 -19818998.91248  20163290.236    20163297.2474
  23973540.251    -1857513.623 7  -1434497.36045  23973540.131    23973549.3674
  20514806.321   -22169519.423 9 -17242901.06548  20514809.626    20514815.5684
  21949341.972   -10602563.584 9  -8250110.86747  21949347.056    21949354.1094
  22517430.916   -12686893.037 8  -9873409.04846  22517433.668    22517442.5214
  22020424.578   -12345203.569 8  -9597712.47646  22020425.553    22020434.4424
  22178896.292   -16166731.545 8 -12575233.61447  22178898.259    22178904.9074
 00  5 25  2 38 30.0000000  0  8 05 21 11 29 30 23 15 25
  22408040.560   -11196261.859 8  -8704017.23246  22408045.120    22408052.9814
  20166699.262   -25434209.186 9 -19805027.78248  20166701.698    20166708.9994
  23967784.408    -1887758.972 7  -1458065.25445  23967785.836    23967793.8454
  20514741.095   -22169860.826 9 -17243167.10948  20514744.567    20514751.0304
  21938799.199   -10657979.940 9  -8293292.40947  21938802.160    21938809.1174
  22533771.206   -12601027.844 8  -9806501.19546  22533773.214    22533782.7694
  22031410.621   -12287472.110 8  -9552726.94746  22031411.681    22031418.7254
  22164994.695   -16239788.045 8 -12632160.70147  22164996.060    22165003.1654
 00  5 25  2 39  0.0000000  0  8 05 21 11 29 30 23 15 25
  22411535.865   -11177905.192 8  -8689713.27346  22411538.266    22411547.4404
  20170216.190   -25415718.501 9 -19790619.52448  20170220.213    20170227.8834
  23962127.248    -1917490.410 7  -1481232.65045  23962129.592    23962136.7024
  20514718.042   -22169986.750 9 -17243265.23148  20514720.675    20514727.1314
  21928343.632   -10712917.944 9  -8336101.17947  21928347.510    21928354.2344
  22550169.739   -12514844.138 8  -9739345.15946  22550174.117    22550183.0984
  22042486.612   -12229257.558 8  -9507364.95746  22042490.396    22042496.2434
  22151148.027   -16312544.186 8 -12688853.76247  22151151.011    22151158.0584
 00  5 25  2 39 30.0000000  0  8 05 21 11 29 30 23 15 25
  22415135.256   -11158977.455 8  -8674964.33246  22415140.338    22415148.0954
  20173841.607   -25396665.497 9 -19775773.07348  20173846.046    20173853.2474
  23956570.320    -1946707.556 8  -1503999.35945  23956570.480    23956576.8844
  20514734.252   -22169896.688 9 -17243195.07348  20514737.884    20514744.0324
  21917981.709   -10767375.292 9  -8378535.42347  21917984.749    21917990.7794
  22566631.620   -12428343.313 8  -9671942.02746  22566633.907    22566643.6544
  22053656.710   -12170562.625 8  -9461628.65946  22053659.869    22053665.8024
  22137358.745   -16384999.095 8 -12745312.08747  22137363.541    22137370.5604
 00  5 25  2 40  0.0000000  0  8 05 21 11 29 30 23 15 25
  22418850.114   -11139479.182 8  -8659770.81946  22418850.671    22418858.2034
  20177575.962   -25377049.412 9 -19760487.79948  20177578.982    20177586.1244
  23951108.291    -1975409.498 8  -1526364.53145  23951107.678    23951114.9284
  20514793.614   -22169590.398 9 -17242956.38948  20514796.215    20514802.2464
  21907708.661   -10821349.530 9  -8420593.20247  21907713.420    21907720.0584
  22583150.386   -12341526.811 8  -9604292.90446  22583154.376    22583163.4994
  22064916.243   -12111389.966 8  -9415520.12246  22064919.700    22064926.2864
  22123630.721   -16457152.355 8 -12801535.37347  22123632.647    22123640.0894
 00  5 25  2 40 30.0000000  0  8 05 21 11 29 30 23 15 25
  22422669.596   -11119410.611 8  -8644132.90846  22422669.036    22422676.9244
  20181416.339   -25356870.259 9 -19744763.82548  20181419.047    20181426.5954
  23945739.040    -2003595.832 7  -1548327.95245  23945742.889    23945750.4434
  20514891.283   -22169067.459 9 -17242548.88548  20514895.710    20514901.9254
  21897532.825   -10874838.159 8  -8462272.61047  21897534.412    21897541.8324
  22599729.486   -12254396.151 8  -9536398.98546  22599735.286    22599744.3414
  22076267.159   -12051742.091 8  -9369041.25446  22076270.000    22076278.0944
  22109953.195   -16529003.186 8 -12857522.98947  22109959.706    22109967.4754
 00  5 25  2 41  0.0000000  0  8 05 21 11 29 30 23 15 25
  22426593.354   -11098772.169 8  -8628050.93046  22426596.445    22426604.7024
  20185363.367   -25336127.760 9 -19728600.81148  20185366.013    20185373.3574
  23940468.340    -2031265.894 7  -1569889.02545  23940478.108    23940485.8784
  20515033.482   -22168327.909 9 -17241972.58248  20515036.758    20515042.7454
  21887447.527   -10927838.950 9  -8503571.82747  21887448.912    21887456.2924
  22616376.125   -12166952.872 8  -9468261.44946  22616375.075    22616384.1074
  22087707.146   -11991622.048 8  -9322194.48946  22087710.234    22087718.4024
  22096342.673   -16600550.716 8 -12913274.24747  22096344.744    22096352.0064
 00  5 25  2 41 30.0000000  0  8 05 21 11 29 30 23 15 25
  22430633.795   -11077564.379 8  -8611525.32646  22430633.250    22430640.5684
  20189416.580   -25314821.890 9 -19711998.78248  20189420.278    20189427.8804
  23935309.593    -2058419.299 7  -1591047.60645  23935310.901    23935317.9404
  20515215.094   -22167371.141 9 -17241227.05448  20515218.223    20515224.4234
  21877452.675   -10980349.499 8  -8544489.06647  21877456.375    21877463.7194
  22633070.371   -12079198.364 8  -9399881.43346  22633074.853    22633083.2934
  22099236.104   -11931032.434 8  -9274981.81546  22099239.790    22099248.6114
  22082787.287   -16671794.426 8 -12968788.79647  22082787.355    22082795.1764
 00  5 25  2 42  0.0000000  0  8 05 21 11 29 30 23 15 25
  22434774.849   -11055787.795 8  -8594556.49946  22434777.009    22434784.3774
  20193578.145   -25292951.995 9 -19694957.37448  20193582.035    20193589.5244
  23930233.562    -2085055.370 7  -1611803.03545  23930242.125    23930248.1894
  20515436.389   -22166196.931 9 -17240312.05248  20515441.838    20515447.5874
  21867554.034   -11032367.641 8  -8585022.61247  21867557.620    21867564.5114
  22649835.117   -11991134.252 8  -9331260.14846  22649832.651    22649841.6874
  22110856.563   -11869976.031 8  -9227405.39846  22110858.201    22110866.4384
  22069284.162   -16742733.493 8 -13024065.95447  22069287.535    22069295.9044
 00  5 25  2 42 30.0000000  0  8 05 21 11 29 30 23 15 25
  22439026.420   -11033442.887 8  -8577144.82147  22439029.568    22439036.6124
  20197850.251   -25270517.681 9 -19677476.18848  20197851.194    20197858.7904
  23925263.661    -2111173.913 7  -1632155.27245  23925272.575    23925279.0804
  20515703.998   -22164805.029 9 -17239227.48448  20515707.100    20515712.5804
  21857748.025   -11083890.989 8  -8625170.56047  21857753.184    21857759.9274
  22666644.480   -11902761.925 8  -9262398.67746  22666649.344    22666657.8174
  22122562.443   -11808455.808 8  -9179467.58246  22122565.124    22122573.7154
  22055845.245   -16813366.913 8 -13079104.93047  22055846.736    22055854.3634
 00  5 25  2 43  0.0000000  0  7 05 21 11 29 30 23 25
  22443384.326   -11010530.222 8  -8559290.74246  22443388.275    22443396.1964
  20202225.317   -25247518.957 9 -19659555.16448  20202227.838    20202235.3764
  23920396.583    -2136774.254 7  -1652103.68445  23920401.159    23920408.5724
  20516010.673   -22163194.872 9 -17237972.76748  20516013.221    20516019.1424
  21848042.377   -11134917.366 8  -8664931.30547  21848042.835    21848049.7914
  22683527.412   -11814082.798 8  -9193298.15946  22683524.311    22683532.8954
  22042461.512   -16883694.593 8 -13133905.67547  22042463.899    22042471.3414
 00  5 25  2 43 30.0000000  0  8 05 21 11 29 30 23 15 25
  22447850.668   -10987050.238 8  -8540994.59546  22447856.689    22447864.6374
  20206709.928   -25223955.945 9 -19641194.39648  20206711.686    20206719.3004
  23915623.526    -2161855.879 8  -1671647.85745  23915629.371    23915635.3484
  20516357.724   -22161366.383 9 -17236547.96448  20516360.756    20516367.0784
  21838424.288   -11185444.240 9  -8704302.86147  21838428.180    21838435.0174
  22700450.294   -11725098.733 8  -9123960.04546  22700457.032    22700467.2264
  22146243.586       59152.06018     32912.70156  22146241.243    22146254.2404
  22029136.979   -16953714.857 8 -13188466.85047  22029139.733    22029146.5684
 00  5 25  2 44  0.0000000  0  8 05 21 11 29 30 23 15 25
  22452432.912   -10963003.686 8  -8522256.95046  22452432.660    22452439.5404
  20211298.887   -25199828.207 9 -19622393.55148  20211303.110    20211310.7524
  23910950.857    -2186418.767 8  -1690787.90045  23910954.306    23910961.5974
  20516746.978   -22159319.145 9 -17234952.71148  20516750.549    20516756.8114
  21828906.569   -11235469.374 9  -8743283.42547  21828908.721    21828915.3754
  22717449.778   -11635810.959 8  -9054385.27346  22717448.366    22717457.8444
  22158206.269      122047.124 8     81921.79546  22158211.415    22158219.3584
  22015871.809   -17023427.372 8 -13242788.25547  22015874.168    22015881.4444
 00  5 25  2 44 30.0000000  0  8 05 21 11 29 30 23 15 25
  22457114.962   -10938391.082 8  -8503078.23146  22457116.517    22457123.3214
  20215999.500   -25175135.459 9 -19603152.41948  20216002.227    20216009.2424
  23906370.881    -2210462.148 8  -1709523.08345  23906378.616    23906385.3284
  20517177.398   -22157052.598 9 -17233186.50848  20517181.940    20517188.2944
  21819483.380   -11284990.784 9  -8781871.44547  21819484.880    21819491.3024
  22734489.860   -11546221.068 8  -8984575.07846  22734496.927    22734506.2584
  22170261.436      185394.684 8    131283.51146  22170265.168    22170273.7194
  22002664.453   -17092831.545 8 -13296869.41547  22002666.695    22002673.6674
 00  5 25  2 45  0.0000000  0  8 05 21 11 29 30 23 15 25
  22461899.081   -10913213.091 8  -8483458.96646  22461907.213    22461914.9774
  20220803.401   -25149877.598 9 -19583470.82448  20220808.265    20220815.6374
  23901900.454    -2233985.624 7  -1727853.09645  23901902.230    23901909.8644
  20517650.354   -22154566.694 9 -17231249.43348  20517654.932    20517661.3024
  21810154.084   -11334005.941 9  -8820065.02047  21810157.496    21810164.3254
  22751598.181   -11456330.754 8  -8914530.77546  22751603.485    22751612.6244
  22182404.610      249192.207 8    180995.82346  22182406.201    22182413.8874
  21989513.347   -17161926.766 8 -13350709.81047  21989518.181    21989525.2864
 00  5 25  2 45 30.0000000  0  8 05 21 11 29 30 23 15 25
  22466801.578   -10887470.396 8  -8463399.65846  22466805.355    22466813.4684
  20225718.057   -25124054.364 9 -19563348.75448  20225722.221    20225729.6404
  23897515.239    -2256988.841 7  -1745777.75645  23897524.157    23897531.6384
  20518165.708   -22151861.258 9 -17229141.28648  20518169.478    20518176.1974
  21800925.055   -11382512.706 8  -8857862.44647  21800926.739    21800933.8624
  22768764.150   -11366141.485 8  -8844253.55246  22768765.919    22768774.4304
  22194628.555      313436.590 8    231056.34046  22194631.117    22194639.3184
  21976420.459   -17230712.481 8 -13404309.05347  21976428.805    21976435.2354
 00  5 25  2 46  0.0000000  0  8 05 21 11 29 30 23 15 25
  22471808.776   -10861163.511 8  -8442900.71346  22471812.395    22471819.2284
  20230739.942   -25097665.650 9 -19542786.11948  20230743.822    20230750.9014
  23893247.372    -2279471.568 8  -1763296.80645  23893246.857    23893254.3674
  20518722.332   -22148935.622 9 -17226861.59548  20518726.397    20518732.8414
  21791791.000   -11430508.964 8  -8895262.04147  21791793.395    21791800.4734
  22785982.085   -11275654.799 8  -8773744.53746  22785985.034    22785992.9544
  22206935.522      378124.847 8    281462.73346  22206940.487    22206948.8184
  21963395.845   -17299187.661 9 -13457666.29747  21963398.474    21963405.3994
 00  5 25  2 46 30.0000000  0  8 05 21 11 29 30 23 15 25
  22476918.327   -10834293.190 8  -8421962.72746  22476924.814    22476932.0114
  20235871.326   -25070712.001 9 -19521783.29648  20235873.015    20235880.2484
  23889061.885    -2301433.652 7  -1780410.16545  23889066.126    23889074.6524
  20519320.701   -22145789.636 9 -17224410.18848  20519325.055    20519331.6804
  21782754.805   -11477992.996 9  -8932262.53947  21782757.617    21782764.2574
  22803258.074   -11184872.396 8  -8703005.08346  22803260.257    22803268.5594
  22219330.071      443254.089 8    332212.73846  22219334.192    22219343.8774
  21950423.934   -17367351.607 9 -13510780.99547  21950427.073    21950434.0434
 00  5 25  2 47  0.0000000  0  7 05 21 11 29 30 23 25
  22482142.077   -10806860.009 8  -8400586.15546  22482145.345    22482151.7834
  20241106.132   -25043193.435 9 -19500340.42748  20241109.833    20241116.8304
  23884990.341    -2322874.680 8  -1797117.54845  23884987.401    23884994.0464
  20519961.088   -22142422.841 9 -17221786.72848  20519965.549    20519972.0334
  21773814.640   -11524962.075 8  -8968861.76647  21773819.332    21773826.8074
  22820586.143   -11093795.723 8  -8632036.34846  22820591.833    22820600.6184
  21937510.664   -17435203.585 9 -13563652.63947  21937515.085    21937522.7524
 00  5 25  2 47 30.0000000  0  8 05 21 11 29 30 23 15 25
  22487470.448   -10778864.985 8  -8378771.76346  22487473.010    22487479.3524
  20246451.364   -25015109.277 9 -19478456.71248  20246453.986    20246460.9714
  23880996.307    -2343794.357 7  -1813418.63145  23881004.833    23881012.9844
  20520645.069   -22138834.806 9 -17218990.87448  20520648.652    20520654.7014
  21764976.697   -11571414.189 8  -9005058.16447  21764979.566    21764986.8424
  22837977.562   -11002426.523 8  -8560839.67346  22837978.804    22837987.4174
  22244364.457       62120.38018     34812.98856  22244371.850    22244382.0524
  21924659.513   -17502743.220 9 -13616280.90447  21924663.468    21924670.2304
 00  5 25  2 48  0.0000000  0  8 05 21 11 29 30 23 15 25
  22492902.291   -10750308.785 8  -8356520.09446  22492906.570    22492913.9064
  20251902.525   -24986459.487 9 -19456132.08148  20251905.743    20251912.8534
  23877118.362    -2364192.420 8  -1829313.26645  23877124.736    23877132.1174
  20521370.269   -22135025.290 9 -17216022.44848  20521373.579    20521379.6464
  21756236.808   -11617347.156 8  -9040850.03147  21756239.411    21756246.1744
  22855418.477   -10910766.398 8  -8489416.31546  22855421.201    22855430.2684
  22257012.028      128555.505 8     86580.63546  22257013.782    22257022.3124
  21911866.480   -17569969.776 9 -13668665.19047  21911869.915    21911876.7064
 00  5 25  2 48 30.0000000  0  8 05 21 11 29 30 23 15 25
  22498443.292   -10721192.198 8  -8333831.77546  22498447.397    22498454.0554
  20257461.410   -24957244.804 9 -19433367.53048  20257465.443    20257472.5474
  23873340.245    -2384068.629 8  -1844801.25945  23873342.288    23873349.4174
  20522136.931   -22130993.983 9 -17212881.16148  20522140.687    20522146.8014
  21747593.691   -11662759.259 8  -9076236.06647  21747597.202    21747604.6044
  22872923.577   -10818816.828 8  -8417767.42846  22872918.640    22872927.6514
  22269732.969      195420.185 8    138682.97346  22269736.708    22269744.7504
  21899134.153   -17636882.813 9 -13720805.19247  21899136.668    21899143.8484
 00  5 25  2 49  0.0000000  0  8 05 21 11 29 30 23 15 25
  22504093.324   -10691516.138 8  -8310707.52946  22504095.113    22504101.8074
  20263129.446   -24927464.752 9 -19410162.14048  20263132.132    20263139.6154
  23869657.551    -2403423.122 8  -1859882.70145  23869659.635    23869665.9234
  20522945.937   -22126740.220 9 -17209566.52548  20522949.944    20522956.3014
  21739048.453   -11707647.923 8  -9111214.23147  21739055.121    21739062.7724
  22890467.816   -10726579.400 8  -8345894.21746  22890470.603    22890478.9284
  22282536.543      262711.339 8    191117.63046  22282541.314    22282550.2784
  21886459.592   -17703481.642 9 -13772700.38247  21886463.670    21886471.1364
 00  5 25  2 49 30.0000000  0  8 05 21 11 29 30 23 15 25
  22509847.286   -10661281.253 8  -8287147.78746  22509848.078    22509854.6294
  20268904.956   -24897119.813 9 -19386516.77348  20268906.547    20268914.1424
  23866072.841    -2422255.447 8  -1874557.28245  23866074.998    23866083.2074
  20523798.235   -22122263.902 9 -17206078.44248  20523801.552    20523808.2384
  21730609.052   -11752011.230 9  -9145782.96747  21730613.279    21730620.3374
  22908071.168   -10634055.952 8  -8273798.11646  22908077.133    22908086.5354
  22295425.006      330425.921 8    243882.24546  22295427.229    22295437.1354
  21873847.212   -17769765.767 8 -13824350.33647  21873850.391    21873857.7364
 00  5 25  2 50  0.0000000  0  8 05 21 11 29 30 23 15 25
  22515704.812   -10630488.455 8  -8263153.30046  22515707.389    22515715.4434
  20274785.040   -24866209.856 9 -19362431.14848  20274788.645    20274796.1174
  23862588.481    -2440565.340 8  -1888824.81245  23862591.229    23862599.5314
  20524692.212   -22117564.749 9 -17202416.75848  20524696.207    20524702.3064
  21722267.130   -11795847.258 9  -9179940.83847  21722271.661    21722278.6064
  22925738.090   -10541248.157 8  -8201480.48146  22925738.455    22925747.9274
  22308390.300      398560.605 8    296974.12346  22308394.131    22308402.6694
  21861294.704   -17835734.337 8 -13875754.40347  21861296.618    21861303.9204
 00  5 25  2 50 30.0000000  0  8 05 21 11 29 30 23 15 25
  22521672.761   -10599138.805 8  -8238724.93446  22521673.188    22521680.3394
  20280776.032   -24834734.795 9 -19337905.23648  20280778.313    20280785.6984
  23859207.415    -2458352.754 7  -1902685.10045  23859206.424    23859214.3334
  20525629.190   -22112642.135 9 -17198580.92048  20525632.904    20525638.7664
  21714025.837   -11839153.891 9  -9213686.24747  21714030.013    21714037.2384
  22943450.206   -10448157.746 8  -8128942.62846  22943452.922    22943462.2734
  22321435.974      467112.732 8    350391.29246  22321439.484    22321446.9864
  21848798.714   -17901386.935 8 -13926912.25547  21848803.514    21848810.4984
 00  5 25  2 51  0.0000000  0  8 05 21 11 29 30 23 15 25
  22527742.510   -10567232.886 8  -8213863.06646  22527743.976    22527752.0194
  20286870.839   -24802694.762 9 -19312938.92448  20286875.000    20286882.7564
  23855918.187    -2475617.743 7  -1916138.30845  23855920.719    23855929.1584
  20526608.259   -22107495.960 9 -17194570.89848  20526611.692    20526618.1724
  21705887.740   -11881929.337 9  -9247017.70147  21705890.359    21705898.0544
  22961222.788   -10354786.481 8  -8056185.91246  22961221.423    22961230.6434
  22334557.582      536079.074 8    404131.23546  22334562.640    22334570.9974
  21836365.734   -17966722.914 8 -13977823.38947  21836370.376    21836377.7734
 00  5 25  2 51 30.0000000  0  8 05 21 11 29 30 23 15 25
  22533917.275   -10534771.904 8  -8188568.72346  22533921.768    22533928.7934
  20293075.976   -24770089.876 9 -19287532.45248  20293079.853    20293087.2304
  23852727.429    -2492360.097 7  -1929184.39845  23852735.661    23852742.6044
  20527630.072   -22102125.532 9 -17190386.14848  20527634.032    20527640.2904
  21697848.402   -11924171.584 9  -9279933.68647  21697852.512    21697859.4614
  22979030.636   -10261136.028 8  -7983211.68346  22979041.925    22979051.2414
  22347762.419      605456.980 8    458191.92046  22347765.226    22347772.5724
  21823995.856   -18031741.777 9 -14028487.40947  21823998.282    21824004.6044
 00  5 25  2 52  0.0000000  0  8 05 21 11 29 30 23 15 25
  22540200.557   -10501756.751 8  -8162842.52846  22540204.413    22540211.0614
  20299387.055   -24736920.850 9 -19261686.41348  20299391.426    20299398.7704
  23849648.728    -2508579.633 8  -1941822.99845  23849649.386    23849655.0004
  20528696.266   -22096530.606 9 -17186026.44248  20528698.816    20528705.0834
  21689910.941   -11965878.740 9  -9312432.76647  21689915.578    21689922.5524
  22996910.681   -10167207.841 8  -7910021.00646  22996915.664    22996925.6954
  22361040.790      675243.269 8    512570.80046  22361044.660    22361053.2484
  21811684.101   -18096442.703 8 -14078903.71447  21811685.102    21811692.6454
 00  5 25  2 52 30.0000000  0  8 05 21 11 29 30 23 15 25
  22546586.716   -10468188.431 8  -8136685.31146  22546591.785    22546598.8884
  20305806.527   -24703187.870 9 -19235401.04048  20305810.661    20305818.0904
  23846654.672    -2524276.500 7  -1954054.35145  23846661.611    23846668.9684
  20529803.486   -22090711.003 9 -17181491.67748  20529806.403    20529812.4334
  21682077.474   -12007048.712 9  -9344513.21347  21682081.186    21682087.7194
  23014840.967   -10073003.818 8  -7836615.39246  23014842.778    23014852.6454
  22374398.493      745434.845 8    567265.45046  22374401.887    22374410.8944
  21799431.297   -18160825.339 9 -14129071.95547  21799433.976    21799440.6604
 00  5 25  2 53  0.0000000  0  8 05 21 11 29 30 23 15 25
  22553077.634   -10434067.893 8  -8110097.78446  22553084.655    22553091.4574
  20312336.139   -24668890.791 9 -19208676.07048  20312337.495    20312344.4394
  23843766.946    -2539450.696 7  -1965878.48845  23843773.869    23843780.7524
  20530954.466   -22084665.971 9 -17176781.26048  20530956.367    20530962.6574
  21674346.073   -12047679.495 9  -9376173.56647  21674349.609    21674355.8784
  23032816.962    -9978525.453 8  -7762996.01846  23032821.426    23032831.5504
  22387834.537      816029.029 8    622273.86546  22387836.044    22387845.2224
  21787241.282   -18224888.977 9 -14178991.61147  21787243.273    21787249.9124
 00  5 25  2 53 30.0000000  0  8 05 21 11 29 30 23 15 25
  22559679.197   -10399396.144 8  -8083080.75146  22559681.717    22559689.3274
  20318967.396   -24634030.602 9 -19181512.25948  20318970.843    20318978.3734
  23840979.800    -2554102.035 8  -1977295.06045  23840986.011    23840994.1114
  20532147.052   -22078395.435 9 -17171895.09648  20532149.848    20532156.0884
  21666717.972   -12087769.418 9  -9407412.44747  21666720.219    21666726.8574
  23050845.979    -9883774.433 8  -7689164.20746  23050851.519    23050862.8444
  22401339.678      887022.390 8    677593.33846  22401344.922    22401353.2044
  21775109.687   -18288633.376 9 -14228662.55047  21775113.075    21775119.7204
 00  5 25  2 54  0.0000000  0  8 05 21 11 29 30 23 15 25
  22566379.877   -10364174.171 8  -8055634.94746  22566384.121    22566391.7514
  20325709.133   -24598607.120 9 -19153909.52348  20325711.625    20325719.3904
  23838293.574    -2568230.581 8  -1988304.32645  23838297.604    23838305.3494
  20533382.772   -22071898.848 9 -17166832.84548  20533385.804    20533392.3564
  21659190.792   -12127316.527 9  -9438228.34447  21659194.665    21659201.5744
  23068932.028    -9788752.788 8  -7615121.52346  23068933.198    23068943.6914
  22414928.673      958411.987 8    733221.54946  22414930.813    22414938.0454
  21763042.690   -18352057.964 9 -14278084.28747  21763043.769    21763050.5664
 00  5 25  2 54 30.0000000  0  8 05 21 11 29 30 23 15 25
  22573186.664   -10328402.943 8  -8027761.16746  22573191.385    22573198.8754
  20332556.654   -24562620.780 9 -19125868.26848  20332559.873    20332567.0774
  23835708.773    -2581836.461 8  -1998906.27245  23835707.951    23835716.4294
  20534661.670   -22065175.961 9 -17161594.24948  20534665.130    20534671.4714
  21651768.807   -12166318.945 8  -9468619.80347  21651772.860    21651779.5304
  23087066.059    -9693462.288 8  -7540869.29946  23087066.876    23087077.7134
  22428588.734     1030194.583 8    789156.00746  22428591.019    22428598.7814
  21751031.991   -18415162.128 9 -14327256.33247  21751035.764    21751041.8264
 00  5 25  2 55  0.0000000  0  8 05 21 11 29 30 23 15 25
  22580100.295   -10292083.813 8  -7999460.44846  22580102.845    22580110.1764
  20339512.934   -24526071.257 9 -19097388.17548  20339515.150    20339522.1534
  23833221.059    -2594919.729 8  -2009100.97945  23833218.721    23833226.9294
  20535984.610   -22058226.118 9 -17156178.79548  20535987.961    20535993.8464
  21644452.973   -12204774.871 9  -9498585.43847  21644455.439    21644461.7504
  23105244.583    -9597904.491 8  -7466408.82745  23105250.622    23105260.6834
  22442320.309     1102367.061 8    845394.23446  22442324.399    22442333.5994
  21739085.187   -18477945.486 9 -14376178.43547  21739087.680    21739094.8654
 00  5 25  2 55 30.0000000  0  8 05 21 11 29 30 23 15 25
  22587115.659   -10255217.622 8  -7970733.47346  22587118.483    22587126.0294
  20346573.250   -24488959.192 9 -19068469.66348  20346577.077    20346584.4734
  23830825.225    -2607480.648 8  -2018888.71545  23830827.889    23830836.8854
  20537350.322   -22051049.113 9 -17150586.32648  20537353.561    20537359.7524
  21637241.838   -12242682.525 9  -9528123.86347  21637242.056    21637248.4144
  23123481.155    -9502081.121 8  -7391741.40145  23123486.097    23123495.8314
  22456129.313     1174926.261 8    901933.80946  22456131.882    22456140.9884
  21727199.238   -18540407.271 9 -14424849.93147  21727202.220    21727208.8514
 00  5 25  2 56  0.0000000  0  8 05 21 11 29 30 23 15 25
  22594234.947   -10217805.443 8  -7941581.04346  22594238.108    22594244.8754
  20353742.888   -24451285.052 9 -19039113.28248  20353746.053    20353753.6274
  23828537.173    -2619519.070 8  -2028269.33645  23828537.796    23828545.0384
  20538758.535   -22043644.501 9 -17144816.52448  20538762.598    20538768.9844
  21630128.080   -12280040.014 9  -9557233.56747  21630132.792    21630139.5384
  23141770.912    -9405993.931 8  -7316868.40445  23141770.471    23141779.9624
  22470011.110     1247869.109 8    958772.32146  22470012.429    22470021.3014
  21715374.304   -18602546.816 9 -14473270.30947  21715377.545    21715384.1574
 00  5 25  2 56 30.0000000  0  8 05 21 11 29 30 23 15 25
  22601461.475   -10179848.603 8  -7912004.17846  22601460.346    22601467.9734
  20361017.299   -24413049.786 9 -19009319.59348  20361022.187    20361029.5034
  23826344.151    -2631035.230 8  -2037242.96045  23826346.889    23826355.0424
  20540211.805   -22036011.881 9 -17138869.07448  20540214.947    20540221.4834
  21623124.604   -12316845.884 9  -9585913.46547  21623128.453    21623135.1044
  23160110.107    -9309644.739 8  -7241791.23645  23160105.636    23160115.0594
  22483961.859     1321192.575 8   1015907.41346  22483965.575    22483974.6284
  21703610.653   -18664364.141 9 -14521439.62447  21703613.565    21703620.2754
 00  5 25  2 57  0.0000000  0  8 05 21 11 29 30 23 15 25
  22608784.207   -10141348.293 8  -7882003.84846  22608787.036    22608793.9324
  20368403.214   -24374253.129 9 -18979088.50647  20368405.020    20368412.3784
  23824250.689    -2642029.049 8  -2045809.57645  23824255.397    23824261.8474
  20541707.952   -22028150.760 9 -17132743.52748  20541710.877    20541717.1814
  21616226.477   -12353098.234 9  -9614162.01147  21616229.714    21616236.9104
  23178482.481    -9213035.587 8  -7166511.55145  23178489.382    23178500.1734
  22497986.333     1394893.478 8   1073336.64646  22497990.736    22497998.6224
  21691907.605   -18725858.930 9 -14569357.58847  21691911.602    21691917.6044
 00  5 25  2 57 30.0000000  0  8 05 21 11 29 30 23 15 25
  22616216.180   -10102305.848 8  -7851581.09446  22616215.949    22616222.4464
  20375891.802   -24334895.674 9 -18948420.27648  20375894.696    20375901.8804
  23822259.354    -2652501.044 8  -2053969.57145  23822261.979    23822269.3554
  20543247.079   -22020060.599 9 -17126439.49548  20543250.248    20543256.7924
  21609434.164   -12388795.340 9  -9641977.92947  21609437.217    21609443.5614
  23196915.225    -9116167.911 7  -7091030.42145  23196922.688    23196933.0404
  22512083.343     1468968.866 8   1131057.69446  22512087.214    22512094.4374
  21680267.688   -18787030.378 9 -14617023.63847  21680270.649    21680277.7154
 00  5 25  2 58  0.0000000  0  8 05 21 11 29 30 23 15 25
  22623744.344   -10062722.590 8  -7820736.96246  22623748.166    22623755.4844
  20383487.388   -24294978.133 9 -18917315.74248  20383490.726    20383498.2054
  23820361.063    -2662451.518 8  -2061723.12845  23820369.258    23820376.2064
  20544829.957   -22011741.256 9 -17119956.86548  20544833.569    20544839.9064
  21602746.615   -12423935.640 9  -9669359.96147  21602749.942    21602756.7604
  23215398.207    -9019043.667 7  -7015349.36145  23215404.907    23215416.2204
  22526252.609     1543415.430 8   1189067.97846  22526253.629    22526261.0684
  21668686.920   -18847878.280 9 -14664437.58947  21668692.060    21668698.8594
 00  5 25  2 58 30.0000000  0  8 05 21 11 29 30 23 15 25
  22631381.711   -10022599.333 8  -7789472.00746  22631383.891    22631390.5144
  20391190.757   -24254500.880 9 -18885775.08747  20391193.416    20391200.7694
  23818571.315    -2671880.459 8  -2069070.29145  23818575.997    23818582.0334
  20546456.541   -22003192.139 9 -17113295.16648  20546459.946    20546466.5164
  21596168.904   -12458517.232 9  -9696306.65847  21596169.071    21596176.4084
  23233932.777    -8921664.495 7  -6939469.64345  23233936.336    23233946.2354
  22540485.943     1618230.016 8   1247365.01646  22540489.717    22540498.5174
  21657172.245   -18908402.145 9 -14711599.00747  21657174.559    21657181.3174
 00  5 25  2 59  0.0000000  0  8 05 21 11 29 30 23 15 25
  22639121.106    -9981937.518 8  -7757787.38846  22639121.529    22639127.6334
  20398997.847   -24213464.758 9 -18853798.90047  20399002.050    20399009.7234
  23816876.585    -2680788.121 8  -2076011.30845  23816878.856    23816887.0694
  20548127.072   -21994412.926 9 -17106454.22048  20548130.822    20548137.4234
  21589690.894   -12492538.617 9  -9722816.80247  21589695.339    21589702.4364
  23252511.347    -8824032.265 7  -6863392.74245  23252514.862    23252525.2844
  22554798.467     1693409.381 8   1305946.29946  22554796.490    22554805.4694
  21645715.147   -18968601.229 9 -14758507.26547  21645718.854    21645725.5524
 00  5 25  2 59 30.0000000  0  8 05 21 11 29 30 23 15 25
  22646958.159    -9940738.341 8  -7725684.09946  22646961.922    22646968.2984
  20406914.188   -24171869.644 9 -18821387.03048  20406917.056    20406924.7364
  23815279.584    -2689174.842 8  -2082546.37745  23815283.460    23815290.8924
  20549841.173   -21985403.251 9 -17099433.69648  20549845.426    20549851.9214
  21583325.635   -12525997.854 9  -9748888.91447  21583328.148    21583335.0074
  23271143.554    -8726149.000 8  -6787120.22345  23271141.685    23271152.2134
  22569165.105     1768950.326 8   1364809.31246  22569171.178    22569180.2104
  21634320.623   -19028475.155 9 -14805162.24147  21634325.398    21634332.2214
 00  5 25  3  0  0.0000000  0  8 05 21 11 29 30 23 15 25
  22654906.231    -9899002.909 8  -7693162.93246  22654903.437    22654910.6014
  20414936.146   -24129716.646 9 -18788540.55248  20414938.824    20414946.3254
  23813783.048    -2697040.807 8  -2088675.66645  23813786.632    23813793.2044
  20551601.421   -21976162.540 9 -17092233.13948  20551604.128    20551610.5144
  21577066.587   -12558893.374 9  -9774521.75547  21577068.449    21577074.9744
  23289810.772    -8628016.657 8  -6710653.59845  23289815.105    23289823.9094
  22583610.925     1844849.775 8   1423951.67846  22583614.732    22583623.8274
  21622990.800   -19088023.758 9 -14851563.72447  21622993.939    21623000.5294
 00  5 25  3  0 30.0000000  0  8 05 21 11 29 30 23 15 25
  22662945.388    -9856732.962 8  -7660225.24246  22662946.731    22662954.6134
  20423063.743   -24087006.479 9 -18755259.89648  20423066.260    20423073.6684
  23812381.461    -2704386.507 8  -2094399.54345  23812388.974    23812394.7614
  20553403.940   -21966690.489 9 -17084852.29748  20553406.473    20553412.7774
  21570912.562   -12591224.092 9  -9799714.51947  21570916.267    21570922.7634
  23308528.381    -8529636.764 7  -6633994.07745  23308536.568    23308546.8844
  22598123.202     1921104.489 8   1483370.90746  22598126.062    22598133.2414
  21611721.079   -19147246.516 9 -14897711.30047  21611723.567    21611731.1944
 00  5 25  3  1  0.0000000  0  8 05 21 11 29 30 23 15 25
  22671089.106    -9813929.610 8  -7626871.95346  22671092.095    22671098.7414
  20431296.041   -24043739.789 9 -18721545.61648  20431299.657    20431307.0724
  23811086.927    -2711212.238 8  -2099718.28745  23811090.160    23811096.0844
  20555249.898   -21956986.624 9 -17077290.83748  20555252.758    20555259.5554
  21564867.868   -12622988.548 9  -9824466.04847  21564871.539    21564878.2064
  23327300.185    -8431011.251 7  -6557143.18945  23327305.580    23327316.1514
  22612701.738     1997711.366 8   1543064.55346  22612703.203    22612711.0464
  21600512.557   -19206143.102 9 -14943604.70947  21600515.977    21600523.5364
 00  5 25  3  1 30.0000000  0  8 05 21 11 29 30 23 15 25
  22679336.826    -9770594.285 8  -7593104.07946  22679338.554    22679345.1264
  20439636.284   -23999916.929 9 -18687397.97547  20439638.798    20439646.2064
  23809880.309    -2717518.437 8  -2104632.17745  23809888.843    23809894.7884
  20557141.109   -21947050.663 9 -17069548.51648  20557143.323    20557150.4384
  21558933.033   -12654184.692 9  -9848774.71847  21558935.041    21558941.8834
  23346126.751    -8332141.931 7  -6480102.35345  23346119.728    23346128.7504
  22627341.391     2074667.051 8   1603030.00346  22627347.083    22627355.7984
  21589367.356   -19264713.102 9 -14989243.63847  21589370.847    21589377.8024
 00  5 25  3  2  0.0000000  0  8 05 21 11 29 30 23 15 25
  22687688.266    -9726728.239 8  -7558922.73346  22687685.927    22687691.9584
  20448081.572   -23955538.437 9 -18652817.30447  20448083.964    20448091.1324
  23808785.933    -2723305.421 8  -2109141.53845  23808788.215    23808794.7124
  20559074.462   -21936881.802 9 -17061624.70148  20559078.958    20559085.5214
  21553104.027   -12684811.078 9  -9872639.41247  21553107.111    21553114.0594
  23364968.935    -8233030.692 7  -6402872.98345  23364980.862    23364990.9404
  22642054.621     2151968.422 8   1663264.79346  22642057.293    22642065.8774
  21578282.735   -19322956.063 9 -15034627.72447  21578287.453    21578294.3684
 00  5 25  3  2 30.0000000  0  8 05 21 11 29 30 23 15 25
  22696131.548    -9682332.833 8  -7524328.83746  22696134.876    22696140.9394
  20456631.334   -23910605.189 9 -18617804.43747  20456634.235    20456641.6794
  23807786.662    -2728573.695 8  -2113246.72045  23807788.120    23807792.0294
  20561055.382   -21926480.030 9 -17053519.42048  20561058.349    20561064.7254
  21547387.037   -12714866.359 9  -9896059.12047  21547388.337    21547394.7744
  23383889.381    -8133679.493 7  -6325456.59645  23383886.131    23383894.8434
  22656830.131     2229612.104 8   1723766.32146  22656832.518    22656840.9354
  21567262.402   -19380871.883 9 -15079756.87947  21567266.408    21567272.8524
 00  5 25  3  3  0.0000000  0  8 05 21 11 29 30 23 15 25
  22704684.406    -9637409.320 8  -7489323.47046  22704682.630    22704689.8824
  20465285.909   -23865117.918 9 -18582359.95747  20465290.100    20465297.3214
  23806883.831    -2733323.564 8  -2116947.88045  23806884.211    23806888.5534
  20563079.169   -21915844.615 9 -17045232.06948  20563081.851    20563088.5734
  21541773.906   -12744349.102 9  -9919032.66847  21541777.543    21541784.2714
  23402827.875    -8034090.338 7  -6247854.80445  23402837.153    23402845.0524
  22671667.765     2307595.048 8   1784532.21846  22671672.152    22671681.2654
  21556304.362   -19438460.253 9 -15124630.91747  21556307.780    21556314.4934
 00  5 25  3  3 30.0000000  0  8 05 21 11 29 30 23 15 25
  22713328.622    -9591959.487 8  -7453907.99746  22713331.400    22713338.7354
  20474047.453   -23819076.784 9 -18546483.65547  20474051.429    20474058.6964
  23806072.134    -2737555.499 8  -2120245.47245  23806078.044    23806083.7534
  20565147.008   -21904975.130 9 -17036762.34748  20565150.308    20565156.6514
  21536273.171   -12773257.918 9  -9941558.99947  21536276.349    21536283.4704
  23421839.763    -7934264.827 7  -6170068.82045  23421833.276    23421843.3554
  22686575.804     2385914.023 8   1845559.96846  22686575.844    22686584.4164
  21545409.573   -19495720.667 9 -15169249.40047  21545411.525    21545418.2864
 00  5 25  3  4  0.0000000  0  8 05 21 11 29 30 23 15 25
  22722076.963    -9545984.645 8  -7418083.41046  22722080.452    22722087.4174
  20482913.754   -23772482.574 9 -18510176.35947  20482917.903    20482925.6174
  23805370.635    -2741269.989 8  -2123139.88945  23805369.971    23805376.2374
  20567260.459   -21893871.440 9 -17028110.12248  20567263.596    20567269.6414
  21530881.673   -12801591.215 9  -9963636.88447  21530884.736    21530891.5514
  23440876.431    -7834205.012 7  -6092100.25745  23440875.215    23440887.0844
  22701544.315     2464565.678 8   1906846.92746  22701542.292    22701551.8734
  21534574.619   -19552652.709 9 -15213611.98747  21534577.717    21534584.3234
 00  5 25  3  4 30.0000000  0  8 05 21 11 29 30 23 15 25
  22730922.474    -9499486.330 8  -7381850.88146  22730928.561    22730934.9884
  20491888.861   -23725336.847 9 -18473439.40747  20491889.410    20491896.8074
  23804763.084    -2744467.584 8  -2125631.51945  23804761.619    23804767.0914
  20569418.483   -21882532.703 9 -17019274.74948  20569421.003    20569427.1074
  21525600.943   -12829347.636 9  -9985265.24047  21525602.334    21525609.2434
  23459948.667    -7733912.698 7  -6013950.61544  23459959.993    23459970.7304
  22716568.995     2543546.933 8   1968390.70146  22716572.450    22716580.7424
  21523803.623   -19609256.582 9 -15257718.87247  21523806.492    21523813.1924
 00  5 25  3  5  0.0000000  0  8 05 21 11 29 30 23 15 25
  22739875.731    -9452465.848 8  -7345211.47546  22739875.986    22739882.5584
  20500963.933   -23677639.969 9 -18436273.05747  20500966.000    20500973.4644
  23804248.812    -2747148.834 8  -2127720.80245  23804251.371    23804258.4694
  20571620.549   -21870958.714 9 -17010256.04948  20571623.621    20571629.9524
  21520427.266   -12856525.938 9 -10006443.11647  21520430.420    21520437.2524
  23479075.209    -7633390.073 7  -5935621.42544  23479089.550    23479100.9364
  22731662.923     2622854.604 8   2030188.82946  22731664.169    22731672.8964
  21513096.189   -19665531.406 9 -15301569.35347  21513097.587    21513104.1674
 00  5 25  3  5 30.0000000  0  8 05 21 11 29 30 23 15 25
  22748917.270    -9404924.899 8  -7308166.52646  22748922.774    22748929.8854
  20510143.230   -23629392.769 9 -18398677.87847  20510147.253    20510154.5674
  23803833.669    -2749314.096 8  -2129408.05445  23803839.029    23803845.8444
  20573868.256   -21859148.916 9 -17001053.60948  20573870.656    20573877.2114
  21515368.401   -12883124.789 9 -10027169.46747  21515369.313    21515376.0084
  23498265.194    -7532638.848 7  -5857114.09044  23498259.451    23498267.3004
  22746813.310     2702485.296 8   2092238.67146  22746817.580    22746826.2754
  21502450.215   -19721476.815 9 -15345163.17947  21502451.707    21502457.9574
 00  5 25  3  6  0.0000000  0  8 05 21 11 29 30 23 15 25
  22758062.164    -9356864.893 8  -7270717.11046  22758068.623    22758075.6404
  20519431.273   -23580596.673 9 -18360654.95247  20519433.100    20519440.4794
  23803523.143    -2750963.987 8  -2130693.69245  23803524.607    23803532.9244
  20576161.043   -21847102.853 9 -16991667.02748  20576163.427    20576169.4274
  21510413.194   -12909142.914 9 -10047443.31347  21510418.132    21510424.7224
  23517464.980    -7431660.911 7  -5778430.10345  23517476.919    23517487.6254
  22762028.737     2782435.748 8   2154537.67246  22762031.600    22762040.5724
  21491865.704   -19777092.421 9 -15388500.00747  21491868.074    21491874.9204
 00  5 25  3  6 30.0000000  0  8 05 21 11 29 30 23 15 25
  22767311.854    -9308287.561 8  -7232864.59746  22767312.807    22767319.2524
  20528820.948   -23531252.458 9 -18322204.99547  20528822.905    20528830.8054
  23803304.492    -2752099.265 8  -2131578.35445  23803309.306    23803316.0804
  20578495.696   -21834820.175 9 -16982096.10248  20578500.309    20578506.7314
  21505574.929   -12934579.257 9 -10067263.83047  21505577.598    21505584.1864
  23536734.730    -7330458.423 7  -5699571.22144  23536736.766    23536746.5554
  22777301.893     2862702.607 8   2217083.27446  22777305.818    22777314.5324
  21481345.004   -19832378.299 9 -15431579.88247  21481347.446    21481354.2094
 00  5 25  3  7  0.0000000  0  8 05 21 11 29 30 23 15 25
  22776649.542    -9259194.406 8  -7194610.08846  22776654.214    22776661.5004
  20538314.893   -23481360.392 9 -18283328.15247  20538317.287    20538324.6364
  23803189.398    -2752720.564 8  -2132062.49545  23803191.166    23803198.4214
  20580877.510   -21822300.295 9 -16972340.33548  20580882.901    20580889.1554
  21500846.058   -12959432.063 9 -10086629.62847  21500848.282    21500855.0884
  23556023.863    -7229033.156 7  -5620538.67844  23556035.802    23556047.5524
  22792637.983     2943282.676 8   2279872.90346  22792639.654    22792648.5904
  21470883.401   -19887334.144 9 -15474402.60047  21470889.227    21470896.6934
 00  5 25  3  7 30.0000000  0  8 05 21 11 29 30 23 15 25
  22786090.703    -9209586.740 8  -7155954.69546  22786093.849    22786100.7284
  20547910.823   -23430921.473 9 -18244025.13347  20547915.354    20547922.9764
  23803167.114    -2752828.463 8  -2132146.63545  23803169.757    23803178.1944
  20583307.474   -21809542.970 9 -16962399.53848  20583310.569    20583316.8454
  21496228.062   -12983700.285 9 -10105539.90847  21496229.990    21496236.9364
  23575380.708    -7127386.966 7  -5541334.00344  23575378.185    23575387.2334
  22808030.986     3024172.417 8   2342903.85046  22808032.947    22808041.8184
  21460491.388   -19941959.700 9 -15516967.94647  21460494.665    21460501.3274
 00  5 25  3  8  0.0000000  0  8 05 21 11 29 30 23 15 25
  22795630.433    -9159466.358 8  -7116899.77546  22795631.610    22795637.4994
  20557613.676   -23379936.701 9 -18204296.75647  20557617.187    20557624.9304
  23803245.219    -2752423.413 8  -2131831.07045  23803247.858    23803255.3924
  20585779.521   -21796547.519 9 -16952273.20048  20585783.189    20585789.5664
  21491721.523   -13007382.810 9 -10123993.82547  21491723.256    21491730.2414
  23594764.332    -7025521.810 7  -5461958.70744  23594760.580    23594776.0884
  22823482.568     3105368.771 8   2406173.67746  22823484.522    22823492.5134
  21450157.989   -19996254.633 9 -15559275.64347  21450162.624    21450169.3584
 00  5 25  3  8 30.0000000  0  8 05 21 11 29 30 23 15 25
  22805258.361    -9108834.867 8  -7077446.61046  22805266.428    22805272.8174
  20567419.298   -23328407.611 9 -18164144.32247  20567422.787    20567430.7964
  23803420.164    -2751506.166 8  -2131116.37845  23803423.040    23803430.2964
  20588298.365   -21783313.732 9 -16941961.13148  20588301.651    20588307.8044
  21487324.408   -13030478.091 9 -10141990.13947  21487328.435    21487335.3604
  23614194.490    -6923439.890 7  -5382414.53744  23614187.978    23614198.8294
  22838988.324     3186868.614 8   2469679.99046  22838992.894    22839001.6774
  21439891.013   -20050218.698 9 -15601325.51447  21439893.587    21439899.9964
 00  5 25  3  9  0.0000000  0  8 05 21 11 29 30 23 15 25
  22814995.566    -9057693.894 8  -7037596.44846  22814999.046    22815005.3714
  20577329.081   -23276334.858 9 -18123568.26847  20577332.397    20577340.1024
  23803689.907    -2750077.478 8  -2130003.13545  23803694.509    23803701.4274
  20590861.652   -21769840.822 9 -16931462.76248  20590865.521    20590872.0884
  21483044.983   -13052985.405 9 -10159528.32147  21483045.799    21483052.1894
  23633649.578    -6821143.052 7  -5302702.89544  23633654.682    23633663.2114
  22854551.610     3268668.688 8   2533420.25146  22854557.167    22854566.8294
  21429684.413   -20103851.933 9 -15643117.60747  21429687.599    21429694.2464
 00  5 25  3  9 30.0000000  0  8 05 21 11 29 30 23 15 25
  22824822.572    -9006045.188 8  -6997350.64846  22824825.520    22824832.7934
  20587341.169   -23223718.942 9 -18082568.85947  20587344.973    20587352.0124
  23804063.047    -2748138.004 8  -2128491.90645  23804063.109    23804070.4134
  20593472.322   -21756128.512 9 -16920777.83148  20593474.820    20593481.4104
  21478872.271   -13074903.310 9 -10176607.18347  21478875.014    21478881.4294
  23653151.526    -6718633.307 7  -5222825.32444  23653161.953    23653172.4404
  22870178.071     3350765.611 8   2597391.83446  22870179.560    22870189.8904
  21419540.586   -20157153.990 9 -15684651.68047  21419543.843    21419551.1204
 00  5 25  3 10  0.0000000  0  8 05 21 11 29 30 23 15 25
  22834748.275    -8953890.384 8  -6956710.46346  22834751.649    22834757.4734
  20597458.646   -23170561.021 9 -18041147.07147  20597460.531    20597467.4854
  23804524.671    -2745688.618 8  -2126583.30045  23804529.283    23804536.0084
  20596126.228   -21742176.227 9 -16909905.91148  20596129.980    20596136.4884
  21474809.544   -13096230.719 9 -10193225.91647  21474816.136    21474823.0424
  23672693.779    -6615912.513 7  -5142783.27144  23672711.327    23672720.0404
  22885855.219     3433156.089 8   2661592.14446  22885858.904    22885868.8524
  21409460.127   -20210124.402 9 -15725927.28347  21409464.236    21409471.3404
 00  5 25  3 10 30.0000000  0  8 05 21 11 29 30 23 15 25
  22844767.014    -8901231.030 8  -6915677.16246  22844772.334    22844777.8564
  20607675.037   -23116862.440 9 -17999304.01947  20607679.004    20607686.0124
  23805089.064    -2742730.136 8  -2124278.05145  23805091.453    23805098.2734
  20598827.534   -21727983.786 9 -16898846.85748  20598830.764    20598837.2174
  21470868.239   -13116966.636 9 -10209383.76347  21470870.477    21470876.9114
  23692297.193    -6512982.630 7  -5062578.35144  23692296.152    23692306.2144
  22901583.035     3515836.575 8   2726018.46746  22901592.565    22901603.1974
  21399444.024   -20262763.205 9 -15766944.49347  21399447.803    21399454.5634
 00  5 25  3 11  0.0000000  0  8 05 21 11 29 30 23 15 25
  22854882.434    -8848069.059 8  -6874252.20146  22854888.681    22854894.3934
  20617995.411   -23062624.455 9 -17957040.68847  20618000.222    20618007.8894
  23805744.639    -2739263.257 8  -2121576.67445  23805751.314    23805757.6084
  20601573.800   -21713550.528 9 -16887600.15048  20601577.323    20601583.5194
  21467035.015   -13137110.409 9 -10225080.19247  21467037.521    21467044.1384
  23711917.966    -6409845.901 7  -4982212.20444  23711920.926    23711934.7144
  22917382.710     3598803.854 8   2790668.24346  22917382.218    22917390.9154
  21389491.744   -20315070.083 9 -15807703.06947  21389494.079    21389500.6154
 00  5 25  3 11 30.0000000  0  8 05 21 11 29 30 23 15 25
  22865096.392    -8794405.876 8  -6832436.69046  22865100.841    22865105.9884
  20628420.014   -23007848.396 9 -17914358.05147  20628423.681    20628430.9044
  23806501.937    -2735288.726 8  -2118479.70645  23806507.673    23806514.3824
  20604365.760   -21698875.793 9 -16876165.27348  20604369.827    20604375.8274
  21463315.304   -13156660.459 9 -10240313.98947  21463317.124    21463323.5214
  23731588.925    -6306504.165 7  -4901686.33744  23731589.951    23731599.0984
  22933214.405     3682054.641 8   2855538.91946  22933222.836    22933232.0664
  21379599.976   -20367044.788 9 -15848202.79547  21379603.549    21379610.3534
 00  5 25  3 12  0.0000000  0  8 05 21 11 29 30 23 15 25
  22875404.705    -8740243.331 8  -6790232.05846  22875407.537    22875413.4514
  20638948.339   -22952534.791 9 -17871256.53247  20638949.880    20638957.0794
  23807357.806    -2730807.390 8  -2114987.85745  23807361.660    23807367.5854
  20607204.122   -21683959.578 9 -16864542.22948  20607208.032    20607214.1984
  21459704.638   -13175615.879 9 -10255084.42947  21459709.678    21459716.4864
  23751294.265    -6202959.344 7  -4821002.22644  23751289.093    23751303.0604
  22949115.287     3765585.490 8   2920627.85446  22949119.049    22949128.1954
  21369773.252   -20418687.562 9 -15888443.92747  21369776.311    21369782.7894
 00  5 25  3 12 30.0000000  0  8 05 21 11 29 30 23 15 25
  22885806.193    -8685583.432 8  -6747639.88746  22885808.869    22885815.3054
  20649574.802   -22896684.740 9 -17827737.02547  20649577.631    20649584.6554
  23808306.284    -2725820.331 8  -2111101.91145  23808309.262    23808317.3764
  20610089.766   -21668801.003 9 -16852730.33748  20610092.716    20610098.9024
  21456212.734   -13193975.867 9 -10269390.87147  21456215.543    21456222.4744
  23771025.710    -6099213.677 7  -4740161.67944  23771034.610    23771045.6504
  22965062.440     3849393.307 8   2985932.59846  22965067.327    22965075.9614
  21360009.525   -20469997.691 9 -15928425.80047  21360012.591    21360018.4994
 00  5 25  3 13  0.0000000  0  8 05 21 11 29 30 23 15 25
  22896297.735    -8630427.684 8  -6704661.33746  22896304.343    22896310.8234
  20660303.748   -22840299.565 9 -17783800.52947  20660307.020    20660314.6954
  23809350.093    -2720328.189 8  -2106822.39945  23809355.526    23809362.5044
  20613021.401   -21653399.739 9 -16840729.33448  20613023.508    20613029.6884
  21452831.283   -13211739.265 9 -10283232.45147  21452835.343    21452842.1404
  23790816.760    -5995269.168 7  -4659166.07944  23790814.659    23790826.4054
  22981067.883     3933474.758 8   3051450.52646  22981067.351    22981076.9454
  21350307.849   -20520975.244 9 -15968148.55547  21350311.634    21350317.8364
 00  5 25  3 13 30.0000000  0  8 05 21 11 29 30 23 15 25
  22906889.857    -8574777.821 8  -6661297.72446  22906893.695    22906900.6334
  20671137.870   -22783380.769 9 -17739448.23647  20671138.656    20671146.0254
  23810491.002    -2714332.103 8  -2102150.21345  23810495.163    23810503.5244
  20615996.349   -21637755.371 9 -16828538.90748  20616000.249    20616006.6494
  21449566.942   -13228905.371 9 -10296608.61747  21449569.543    21449575.5324
  23810637.432    -5891127.450 7  -4578016.85944  23810631.552    23810643.8804
  22997117.226     4017826.361 8   3117178.98746  22997118.856    22997128.0884
  21340672.140   -20571620.315 9 -16007612.21347  21340673.899    21340680.5614
 00  5 25  3 14  0.0000000  0  8 05 21 11 29 30 23 15 25
  22917573.666    -8518635.762 8  -6617550.62346  22917577.267    22917584.6204
  20682069.850   -22725929.300 9 -17694680.92347  20682071.217    20682078.7994
  23811725.156    -2707832.745 8  -2097085.87345  23811732.696    23811740.8284
  20619020.255   -21621867.512 9 -16816158.77348  20619023.897    20619030.1684
  21446418.124   -13245473.076 9 -10309518.47747  21446416.407    21446422.7194
  23830481.970    -5786790.767 7  -4496715.66144  23830486.147    23830499.9094
  23013220.176     4102445.032 8   3183115.55546  23013220.621    23013230.0994
  21331096.542   -20621932.324 9 -16046816.32947  21331100.104    21331106.7504
 00  5 25  3 14 30.0000000  0  8 05 21 11 29 30 23 15 25
  22928351.359    -8462003.414 8  -6573421.49846  22928353.700    22928360.7794
  20693102.332   -22667945.926 9 -17649499.08247  20693104.849    20693112.6714
  23813067.061    -2700831.084 8  -2091630.12245  23813065.445    23813072.8264
  20622088.988   -21605735.446 9 -16803588.32748  20622093.680    20622099.9424
  21443374.886   -13261441.499 9 -10321961.34847  21443377.496    21443384.1074
  23850375.720    -5682261.295 7  -4415264.25444  23850379.569    23850390.3484
  23029375.054     4187327.103 8   3249257.37246  23029374.245    23029383.4904
  21321586.894   -20671911.342 9 -16085760.99147  21321589.447    21321595.7144
 00  5 25  3 15  0.0000000  0  8 05 21 11 29 30 23 15 25
  22939225.870    -8404882.515 8  -6528911.67946  22939224.457    22939229.8694
  20704236.505   -22609432.469 9 -17603904.21847  20704239.665    20704247.4904
  23814490.308    -2693328.195 8  -2085783.80545  23814493.295    23814500.9384
  20625210.142   -21589358.872 9 -16790827.36248  20625210.239    20625216.1974
  21440452.256   -13276809.750 9 -10333936.59447  21440453.556    21440459.5354
  23870284.803    -5577541.072 7  -4333664.15744  23870303.742    23870314.6364
  23045571.278     4272469.393 8   3315601.94446  23045575.953    23045585.1834
  21312135.063   -20721557.419 9 -16124446.21747  21312141.779    21312148.7194
 00  5 25  3 15 30.0000000  0  7 05 21 11 29 30 15 25
  22950182.916    -8347274.936 8  -6484022.66246  22950186.576    22950192.9214
  20715475.168   -22550390.381 9 -17557897.51047  20715475.383    20715482.8144
  23816011.124    -2685324.820 8  -2079547.49445  23816017.250    23816024.1264
  20628371.005   -21572737.348 9 -16777875.54348  20628373.123    20628379.3534
  21437640.413   -13291577.362 9 -10345443.81747  21437642.988    21437649.3214
  23061823.039     4357868.497 8   3382146.66946  23061827.730    23061835.7164
  21302755.908   -20770870.299 9 -16162871.80047  21302757.876    21302764.5284
 00  5 25  3 16  0.0000000  0  7 05 21 11 29 30 15 25
  22961241.014    -8289182.484 8  -6438755.81946  22961241.089    22961247.6444
  20726805.832   -22490820.913 9 -17511479.81747  20726811.069    20726818.8794
  23817637.416    -2676822.089 8  -2072922.09445  23817633.837    23817642.1944
  20631577.549   -21555870.147 9 -16764732.26248  20631582.760    20631589.0644
  21434945.532   -13305743.321 9 -10356482.20347  21434947.477    21434953.4924
  23078120.901     4443521.115 8   3448888.91946  23078126.644    23078135.5714
  21293431.974   -20819849.999 9 -16201037.78447  21293437.249    21293444.0504
 00  5 25  3 16 30.0000000  0  7 05 21 11 29 30 15 25
  22972387.933    -8230607.018 8  -6393112.58946  22972387.243    22972394.5644
  20738243.330   -22430724.815 9 -17464651.78647  20738246.771    20738254.5244
  23819339.113    -2667821.242 8  -2065908.50545  23819347.108    23819355.8004
  20634834.812   -21538757.199 9 -16751397.49848  20634839.133    20634845.5884
  21432361.255   -13319306.861 9 -10367051.16047  21432366.091    21432372.3124
  23094472.310     4529424.084 8   3515826.26046  23094474.078    23094482.1704
  21284176.582   -20868495.931 9 -16238943.68047  21284180.225    21284187.0904
 00  5 25  3 17  0.0000000  0  7 05 21 11 29 30 15 25
  22983626.233    -8171550.592 8  -6347094.55346  22983625.687    22983632.8574
  20749780.497   -22370103.481 9 -17417414.47547  20749783.021    20749790.1894
  23821153.408    -2658323.030 8  -2058507.41445  23821154.424    23821162.6884
  20638139.659   -21521397.551 9 -16737870.52648  20638142.476    20638148.9364
  21429895.403   -13332266.898 9 -10377149.87247  21429899.599    21429906.2954
  23110866.619     4615573.985 8   3582956.00146  23110867.625    23110876.0644
  21274983.638   -20916808.231 9 -16276589.59547  21274986.807    21274993.7864
 00  5 25  3 17 30.0000000  0  7 05 21 11 29 30 15 25
  22994947.829    -8112015.151 8  -6300703.29346  22994953.939    22994961.6794
  20761417.862   -22308958.483 9 -17369769.06847  20761418.429    20761425.4584
  23823049.547    -2648328.803 8  -2050719.77545  23823055.189    23823064.5924
  20641490.575   -21503790.995 9 -16724151.11148  20641492.779    20641499.2594
  21427543.663   -13344622.966 9 -10386777.93647  21427548.497    21427554.9444
  23127305.828     4701967.398 8   3650275.46146  23127306.826    23127316.9624
  21265852.850   -20964787.081 9 -16313975.66447  21265856.721    21265863.5524
 00  5 25  3 18  0.0000000  0  7 05 21 11 29 30 15 25
  23006372.096    -8052002.482 8  -6253940.15246  23006374.552    23006380.8004
  20773151.371   -22247291.412 9 -17321716.88647  20773153.240    20773160.4544
  23825046.855    -2637839.427 8  -2042546.34445  23825053.651    23825060.0744
  20644887.494   -21485936.795 9 -16710238.74948  20644890.844    20644897.1224
  21425309.575   -13356374.587 9 -10395935.00847  21425312.417    21425318.8304
  23143784.749     4788601.092 8   3717782.16445  23143792.170    23143802.6354
  21256787.321   -21012432.676 9 -16351102.08847  21256790.163    21256796.9584
 00  5 25  3 18 30.0000000  0  7 05 21 11 29 30 15 25
  23017877.567    -7991514.774 8  -6206806.86846  23017885.691    23017891.3484
  20784984.321   -22185103.510 9 -17273258.81347  20784987.158    20784994.7834
  23827137.094    -2626856.070 8  -2033987.94745  23827143.354    23827150.2574
  20648332.912   -21467834.979 9 -16696133.45948  20648335.734    20648341.8564
  21423187.291   -13367520.932 9 -10404620.43547  21423191.197    21423197.5974
  23160324.589     4875471.731 8   3785473.52745  23160323.733    23160332.4704
  21247786.374   -21059744.525 9 -16387968.41847  21247786.819    21247793.7214
 00  5 25  3 19  0.0000000  0  7 05 21 11 29 30 15 25
  23029487.821    -7930553.595 8  -6159304.59246  23029485.345    23029492.5064
  20796917.881   -22122395.810 9 -17224395.72747  20796920.146    20796927.9904
  23829324.042    -2615379.842 8  -2025045.47145  23829328.273    23829333.6544
  20651824.985   -21449484.641 9 -16681834.47948  20651827.628    20651833.5874
  21421182.005   -13378061.207 9 -10412833.59147  21421185.415    21421191.9134
  23176895.295     4962575.849 8   3853346.82645  23176899.861    23176906.6714
  21238842.398   -21106722.459 9 -16424574.59847  21238846.721    21238853.4084
 00  5 25  3 19 30.0000000  0  7 05 21 11 29 30 15 25
  23041169.601    -7869120.803 8  -6111434.91346  23041175.920    23041182.8534
  20808949.263   -22059170.139 9 -17175129.00247  20808951.721    20808959.0864
  23831601.018    -2603411.947 8  -2015719.93645  23831604.643    23831613.2444
  20655363.729   -21430885.484 9 -16667341.61948  20655366.827    20655373.0144
  21419292.658   -13387994.943 9 -10420574.12247  21419295.211    21419301.5364
  23193510.126     5049910.007 8   3921399.38245  23193519.251    23193526.4754
  21229967.282   -21153366.351 9 -16460920.44247  21229970.889    21229977.4104
 00  5 25  3 20  0.0000000  0  7 05 21 11 29 30 15 25
  23052947.989    -7807218.584 8  -6063199.36046  23052955.639    23052962.5344
  20821077.474   -21995427.943 9 -17125459.78847  20821081.568    20821089.3564
  23833969.852    -2590953.612 8  -2006012.20145  23833975.190    23833983.0734
  20658950.673   -21412036.927 9 -16652654.40948  20658953.465    20658959.7894
  21417519.091   -13397321.766 9 -10427841.76047  21417520.412    21417526.3814
  23210176.337     5137470.894 8   3989628.58145  23210181.152    23210188.8404
  21221155.538   -21199676.475 9 -16497006.22447  21221158.501    21221164.7364
 00  5 25  3 20 30.0000000  0  7 05 21 11 29 30 15 25
  23064821.600    -7744849.062 8  -6014599.73746  23064823.552    23064830.6674
  20833303.797   -21931170.786 9 -17075389.30847  20833308.893    20833317.0484
  23836431.378    -2578005.837 8  -1995923.09845  23836437.967    23836446.9314
  20662583.684   -21392938.659 9 -16637772.66148  20662587.269    20662594.1184
  21415855.464   -13406040.602 9 -10434635.64847  21415860.597    21415866.9304
  23226890.147     5225255.327 8   4058031.99345  23226885.755    23226894.3264
  21212405.565   -21245652.867 9 -16532831.99247  21212409.441    21212415.7094
 00  5 25  3 21  0.0000000  0  7 05 21 11 29 30 15 25
  23076776.978    -7682014.537 8  -5965637.78146  23076780.393    23076787.1394
  20845631.360   -21866399.832 9 -17024918.47247  20845634.635    20845642.6764
  23838989.542    -2564569.897 8  -1985453.62345  23838996.307    23839004.1304
  20666265.076   -21373589.959 9 -16622695.75748  20666269.575    20666275.7294
  21414315.514   -13414151.292 9 -10440955.64347  21414317.504    21414324.1744
  23243631.017     5313259.905 8   4126606.94046  23243632.791    23243641.3904
  21203718.909   -21291295.416 9 -16568397.59847  21203723.639    21203730.5024
 00  5 25  3 21 30.0000000  0  7 05 21 11 29 30 15 25
  23088827.293    -7618716.823 8  -5916314.83646  23088825.939    23088832.7034
  20858054.813   -21801116.931 9 -16974048.71147  20858057.517    20858065.1784
  23841640.588    -2550647.279 8  -1974604.84645  23841645.371    23841652.4274
  20669995.549   -21353990.541 9 -16607423.52348  20669999.479    20670005.4574
  21412885.630   -13421653.503 9 -10446801.48947  21412889.568    21412896.5654
  23260415.331     5401481.315 8   4195350.85646  23260421.115    23260428.5944
  21195099.660   -21336603.958 9 -16603702.91947  21195101.816    21195108.5444
 00  5 25  3 22  0.0000000  0  7 05 21 11 29 30 15 25
  23100953.141    -7554957.736 8  -5866632.47446  23100958.588    23100965.3994
  20870574.981   -21735323.549 9 -16922781.16447  20870577.559    20870585.5764
  23844385.503    -2536239.061 8  -1963377.75545  23844389.275    23844393.7744
  20673773.531   -21334139.938 9 -16591955.52848  20673776.713    20673782.9384
  21411572.792   -13428546.386 9 -10452172.56647  21411577.843    21411584.5054
  23277245.260     5489916.115 8   4264261.01045  23277249.934    23277256.7834
  21186538.170   -21381578.843 9 -16638748.24047  21186543.570    21186549.9564
 00  5 25  3 22 30.0000000  0  7 05 21 11 29 30 15 25
  23113175.812    -7490739.441 8  -5816592.20246  23113179.644    23113185.6424
  20883192.341   -21669021.102 9 -16871116.96447  20883194.830    20883202.3294
  23847219.096    -2521346.643 8  -1951773.35145  23847221.632    23847228.3184
  20677599.693   -21314037.429 9 -16576291.22848  20677602.377    20677608.2124
  21410378.979   -13434829.523 9 -10457068.49147  21410382.532    21410388.8864
  23294113.978     5578560.947 8   4333334.84445  23294118.037    23294124.8854
  21178046.638   -21426219.745 9 -16673533.35647  21178048.717    21178055.1064
 00  5 25  3 23  0.0000000  0  7 05 21 11 29 30 15 25
  23125481.218    -7426064.005 8  -5766195.75946  23125486.682    23125492.8714
  20895906.391   -21602211.086 9 -16819057.24247  20895908.427    20895916.0404
  23850144.580    -2505971.061 8  -1939792.47445  23850147.602    23850154.0684
  20681471.979   -21293682.659 9 -16560430.36448  20681475.719    20681481.6004
  21409298.834   -13440502.655 9 -10461489.08847  21409302.592    21409309.5244
  23311024.629     5667412.360 8   4402569.70245  23311025.803    23311034.5404
  21169612.186   -21470526.731 9 -16708058.23547  21169617.241    21169624.0294
 00  5 25  3 23 30.0000000  0  7 05 21 11 29 30 15 25
  23137875.604    -7360933.603 8  -5715444.78046  23137880.645    23137887.7124
  20908715.689   -21534895.413 9 -16766603.52347  20908717.967    20908726.1614
  23853158.602    -2490113.873 8  -1927436.37045  23853163.497    23853172.8104
  20685394.952   -21273075.209 9 -16544372.60948  20685396.990    20685403.1994
  21408336.149   -13445565.180 9 -10465433.86247  21408339.234    21408345.8414
  23327968.488     5756467.189 8   4471963.02045  23327971.152    23327982.4384
  21161245.761   -21514499.951 9 -16742323.03447  21161249.186    21161255.9724
 00  5 25  3 24  0.0000000  0  7 05 21 11 29 30 15 25
  23150356.647    -7295350.287 8  -5664340.91446  23150360.371    23150367.6474
  20921619.781   -21467075.588 9 -16713756.95147  20921623.394    20921631.6934
  23856270.402    -2473776.137 8  -1914705.74745  23856274.108    23856282.9444
  20689364.743   -21252214.548 9 -16528117.56748  20689367.053    20689373.0174
  21407490.617   -13450016.857 9 -10468902.66647  21407492.642    21407498.7574
  23344948.103     5845722.146 8   4541512.26445  23344956.465    23344965.8614
  21152941.516   -21558139.503 9 -16776327.87647  21152944.908    21152951.3804
 00  5 25  3 24 30.0000000  0  7 05 21 11 29 30 15 25
  23162925.465    -7229315.991 8  -5612885.68046  23162926.750    23162933.4194
  20934623.557   -21398752.775 9 -16660518.43447  20934625.183    20934632.8164
  23859471.955    -2456959.550 8  -1901602.03645  23859474.782    23859482.5384
  20693382.150   -21231100.267 9 -16511664.90448  20693384.358    20693390.6014
  21406759.492   -13453857.422 9 -10471895.28347  21406761.553    21406768.0954
  23361979.160     5935173.654 8   4611214.66945  23361979.612    23361988.2124
  21144702.968   -21601445.352 9 -16810072.66147  21144704.517    21144710.4804
 00  5 25  3 25  0.0000000  0  7 05 21 11 29 30 15 25
  23175572.897    -7162832.853 8  -5561080.63646  23175578.316    23175584.5194
  20947721.040   -21329929.433 9 -16606889.89547  20947722.227    20947729.5664
  23862760.659    -2439665.360 8  -1888126.13045  23862764.857    23862773.8494
  20697448.571   -21209731.753 9 -16495014.11648  20697450.710    20697456.8024
  21406139.499   -13457086.389 9 -10474411.35547  21406146.786    21406153.7414
  23379036.078     6024818.415 8   4681067.63345  23379039.514    23379045.8274
  21136520.989   -21644417.492 9 -16843557.42747  21136526.629    21136533.3174
 00  5 25  3 25 30.0000000  0  7 05 21 11 29 30 15 25
  23188309.308    -7095903.185 8  -5508927.61646  23188313.900    23188320.3424
  20960911.574   -21260606.642 9 -16552872.14947  20960913.936    20960921.1864
  23866143.068    -2421894.677 8  -1874278.83945  23866145.047    23866154.2774
  20701561.244   -21188108.729 9 -16478165.02248  20701565.580    20701571.5234
  21405645.957   -13459703.314 9 -10476450.48247  21405648.827    21405655.8484
  23396128.153     6114653.071 8   4751068.60145  23396134.516    23396142.0894
  21128412.684   -21687055.926 9 -16876782.15448  21128413.506    21128419.5404
 00  5 25  3 26  0.0000000  0  7 05 21 11 29 30 15 25
  23201127.210    -7028528.921 8  -5456428.22146  23201134.669    23201141.0304
  20974196.292   -21190786.381 9 -16498466.76847  20974199.804    20974208.1384
  23869615.257    -2403649.013 8  -1860061.42745  23869618.820    23869625.8244
  20705727.076   -21166230.444 9 -16461116.98248  20705729.300    20705734.9394
  21405265.588   -13461708.366 9 -10478012.82247  21405267.191    21405273.8284
  23413265.108     6204674.430 8   4821215.04846  23413264.125    23413273.0254
  21120359.612   -21729360.877 9 -16909747.04948  21120363.435    21120369.3824
 00  5 25  3 26 30.0000000  0  7 05 21 11 29 30 15 25
  23214034.505    -6960712.268 8  -5403584.04346  23214039.869    23214046.1894
  20987577.913   -21120470.558 9 -16443675.27047  20987581.213    20987588.7294
  23873174.442    -2384930.126 8  -1845475.27845  23873180.749    23873189.2614
  20709936.579   -21144096.654 9 -16443869.88048  20709940.863    20709946.9154
  21404995.973   -13463101.102 9 -10479098.04447  21405002.171    21405008.9414
  23430422.835     6294879.203 8   4891504.43645  23430428.075    23430439.1504
  21112372.331   -21771332.321 9 -16942452.09148  21112375.960    21112382.4174
 00  5 25  3 27  0.0000000  0  7 05 21 11 29 30 15 25
  23227025.108    -6892455.320 8  -5350396.79146  23227029.000    23227034.8194
  21001051.786   -21049660.497 9 -16388498.63047  21001055.316    21001063.3974
  23876830.936    -2365739.305 8  -1830521.32945  23876833.459    23876840.1604
  20714197.657   -21121706.764 9 -16426423.21648  20714201.044    20714207.7774
  21404851.865   -13463881.367 9 -10479706.03247  21404853.901    21404860.0144
  23447623.345     6385263.776 8   4961933.88545  23447628.255    23447638.7264
  21104448.879   -21812970.208 9 -16974897.13848  21104452.376    21104459.0184
 00  5 25  3 27 30.0000000  0  7 05 21 11 29 30 15 25
  23240099.279    -6823760.417 8  -5296868.32646  23240101.535    23240108.0384
  21014620.052   -20978358.108 9 -16332938.37247  21014623.441    21014631.3714
  23880572.093    -2346078.018 8  -1815200.83545  23880575.551    23880581.5174
  20718505.315   -21099060.290 9 -16408776.62548  20718510.947    20718517.1884
  21404818.821   -13464049.068 9 -10479836.69047  21404821.742    21404828.3344
  23464862.795     6475824.802 8   5032500.78846  23464863.150    23464871.0044
  21096590.328   -21854274.823 9 -17007082.48448  21096592.725    21096599.2124
 00  5 25  3 28  0.0000000  0  7 05 21 11 29 30 15 25
  23253250.490    -6754629.742 8  -5243000.28346  23253256.275    23253263.1744
  21028278.541   -20906565.521 8 -16276996.13647  21028285.085    21028293.3854
  23884402.971    -2325948.001 8  -1799515.12345  23884406.300    23884413.6204
  20722866.976   -21076156.852 9 -16390929.82448  20722869.358    20722875.5954
  21404904.350   -13463603.605 9 -10479489.55347  21404906.507    21404913.7464
  23482131.311     6566559.046 8   5103202.75045  23482128.830    23482136.8094
  21088792.201   -21895246.284 9 -17039008.28448  21088795.906    21088802.2604
 00  5 25  3 28 30.0000000  0  7 05 21 11 29 30 15 25
  23266488.364    -6685065.439 8  -5188794.30446  23266493.421    23266500.7584
  21042036.825   -20834284.227 9 -16220673.08747  21042040.412    21042047.7844
  23888324.852    -2305350.482 8  -1783465.13645  23888325.088    23888331.8034
  20727272.271   -21052995.813 9 -16372882.25848  20727276.793    20727282.8674
  21405106.594   -13462545.015 9 -10478664.63447  21405107.966    21405114.6954
  23499418.136     6657463.224 8   5174037.12545  23499427.359    23499435.4894
  21081058.907   -21935884.854 9 -17070674.70748  21081062.399    21081068.8634
 00  5 25  3 29  0.0000000  0  7 05 21 11 29 30 15 25
  23279809.413    -6615069.801 8  -5134252.28546  23279813.505    23279820.3424
  21055884.029   -20761516.224 9 -16163970.78747  21055887.755    21055895.3484
  23892331.257    -2284287.057 8  -1767052.11045  23892333.774    23892340.0094
  20731731.193   -21029576.792 9 -16354633.64148  20731733.463    20731739.2094
  21405422.584   -13460873.307 9 -10477361.95647  21405426.091    21405432.7894
  23516752.020     6748534.022 8   5245001.28745  23516757.238    23516765.8514
  21073388.716   -21976190.377 9 -17102081.61148  21073392.610    21073399.2084
 00  5 25  3 29 30.0000000  0  7 05 21 11 29 30 15 25
  23293211.925    -6544645.286 8  -5079376.06546  23293215.131    23293222.2474
  21069825.238   -20688263.067 9 -16106890.46147  21069827.231    21069834.5374
  23896425.285    -2262759.278 8  -1750277.18745  23896429.196    23896436.0344
  20736234.863   -21005899.302 9 -16336183.65948  20736238.793    20736244.8344
  21405858.271   -13458588.505 9 -10475581.54447  21405860.805    21405867.5884
  23534115.021     6839767.895 8   5316092.52645  23534117.940    23534127.2634
  21065782.876   -22016163.080 9 -17133229.13548  21065786.068    21065792.5204
 00  5 25  3 30  0.0000000  0  7 05 21 11 29 30 15 25
  23306694.468    -6473793.828 8  -5024167.14546  23306697.205    23306704.4774
  21083851.639   -20614526.368 8 -16049433.32147  21083858.404    21083866.1904
  23900606.447    -2240768.916 8  -1733141.81945  23900613.260    23900621.4344
  20740790.105   -20981962.970 9 -16317532.02448  20740793.914    20740799.9244
  21406407.213   -13455690.535 9 -10473323.36447  21406412.206    21406419.0414
  23551501.578     6931161.872 8   5387308.53245  23551509.422    23551519.9954
  21058240.628   -22055803.175 9 -17164117.50648  21058242.674    21058249.0824
 00  5 25  3 30 30.0000000  0  7 05 21 11 29 30 15 25
  23320254.768    -6402517.613 8  -4968627.27046  23320259.625    23320268.2464
  21097979.661   -20540307.679 9 -15991600.64647  21097982.013    21097989.8934
  23904882.328    -2218317.245 8  -1715647.06045  23904886.693    23904894.6244
  20745392.613   -20957767.197 9 -16298678.17648  20745398.107    20745404.3644
  21407076.101   -13452179.362 9 -10470587.35147  21407080.271    21407087.1224
  23568933.392     7022712.555 8   5458646.65545  23568932.731    23568941.2134
  21050759.149   -22095110.652 9 -17194746.66448  21050762.666    21050768.9984
 00  5 25  3 31  0.0000000  0  7 05 21 11 29 30 15 25
  23333899.509    -6330818.815 8  -4912758.08646  23333904.587    23333911.3534
  21112192.280   -20465609.764 9 -15933394.51647  21112196.802    21112205.0854
  23909245.390    -2195406.167 8  -1697794.25345  23909246.002    23909254.6224
  20750049.322   -20933311.602 9 -16279621.85248  20750051.887    20750058.0774
  21407862.183   -13448054.829 9 -10467373.38547  21407864.623    21407871.7814
  23586377.608     7114416.437 8   5530104.14245  23586382.424    23586391.1914
  21043342.798   -22134085.654 9 -17225116.76948  21043346.081    21043352.1634
 00  5 25  3 31 30.0000000  0  7 05 21 11 29 30 15 25
  23347627.260    -6258699.757 8  -4856561.38446  23347629.383    23347635.5304
  21126499.802   -20390434.338 9 -15874816.33647  21126502.686    21126510.0864
  23913690.681    -2172036.622 8  -1679584.24145  23913693.992    23913701.4824
  20754750.612   -20908595.712 9 -16260362.78748  20754754.944    20754761.0104
  21408765.421   -13443316.957 9 -10463681.51247  21408766.781    21408773.5974
  23603858.940     7206270.206 8   5601678.44745  23603862.497    23603872.2134
  21035987.555   -22172728.546 9 -17255228.08548  21035992.421    21035998.8094
 00  5 25  3 32  0.0000000  0  7 05 21 11 29 30 15 25
  23361434.044    -6186162.836 8  -4800039.14146  23361432.384    23361439.3124
  21140898.572   -20314783.118 9 -15815867.38547  21140898.521    21140906.3474
  23918223.363    -2148210.700 8  -1661018.64445  23918227.648    23918235.8464
  20759505.623   -20883618.712 9 -16240900.20248  20759508.273    20759514.1034
  21409781.850   -13437965.841 9 -10459511.78647  21409785.288    21409791.9594
  23621359.066     7298270.628 7   5673366.96845  23621367.904    23621379.3974
  21028698.813   -22211039.081 9 -17285080.39648  21028702.218    21028708.7854
 00  5 25  3 32 30.0000000  0  7 05 21 11 29 30 15 25
  23375305.196    -6113210.359 8  -4743193.08346  23375314.750    23375320.4264
  21155381.029   -20238657.870 9 -15756549.05747  21155384.670    21155392.1794
  23922844.023    -2123930.291 8  -1642098.79945  23922848.319    23922854.5834
  20764304.540   -20858380.598 9 -16221234.16848  20764310.582    20764317.1724
  21410913.534   -13432001.772 9 -10454864.43047  21410919.894    21410926.6034
  23638904.514     7390414.241 8   5745167.06745  23638901.579    23638913.4784
  21021472.835   -22249017.764 9 -17314674.13248  21021475.292    21021481.9494
 00  5 25  3 33  0.0000000  0  7 05 21 11 29 30 15 25
  23389269.947    -6039844.785 8  -4686025.15746  23389275.619    23389282.3594
  21169955.554   -20162061.080 9 -15696863.28147  21169960.304    21169968.3744
  23927547.529    -2099196.993 8  -1622826.11345  23927555.020    23927561.6314
  20769160.151   -20832880.583 9 -16201364.01248  20769163.409    20769169.4504
  21412166.407   -13425424.708 9 -10449739.37847  21412171.545    21412178.1984
  23656463.149     7482697.752 8   5817076.21945  23656463.765    23656472.9584
  21014308.139   -22286664.832 9 -17344009.45448  21014311.153    21014318.0364
 00  5 25  3 33 30.0000000  0  7 05 21 11 29 30 15 25
  23403315.950    -5966068.236 8  -4628536.95146  23403315.676    23403321.4314
  21184622.296   -20084994.388 9 -15636811.38447  21184626.157    21184633.5474
  23932340.599    -2074012.444 8  -1603201.79645  23932346.882    23932353.5474
  20774062.341   -20807118.397 9 -16181289.60648  20774065.876    20774071.8704
  21413536.861   -13418234.862 9 -10444136.86547  21413539.924    21413546.2184
  23674041.260     7575117.854 8   5889091.82245  23674051.167    23674058.2134
  21007206.023   -22323980.439 9 -17373086.50248  21007210.350    21007217.0774
 00  5 25  3 34  0.0000000  0  7 05 21 11 29 30 15 25
  23417430.955    -5891883.018 8  -4570730.28946  23417431.614    23417438.1164
  21199376.232   -20007459.932 9 -15576394.98347  21199380.117    21199388.2864
  23937226.029    -2048378.329 8  -1583227.16745  23937225.752    23937232.2614
  20779015.249   -20781093.286 9 -16161010.31048  20779018.091    20779024.6094
  21415019.565   -13410432.198 9 -10438056.80547  21415024.461    21415030.7764
  23691665.615     7667671.270 8   5961211.27545  23691663.230    23691672.9424
  21000168.173   -22360964.688 9 -17401905.34148  21000172.200    21000178.4654
 00  5 25  3 34 30.0000000  0  7 05 21 11 29 30 15 25
  23431622.576    -5817291.291 8  -4512606.92046  23431625.750    23431632.4444
  21214219.622   -19929459.587 8 -15515615.56147  21214223.145    21214231.1144
  23942186.430    -2022296.558 8  -1562903.76445  23942189.170    23942196.6584
  20784017.925   -20754805.275 9 -16140526.17648  20784020.783    20784027.0644
  21416623.954   -13402017.020 9 -10431499.48447  21416625.980    21416632.5314
  23709296.311     7760354.799 8   6033432.11045  23709301.097    23709311.6884
  20993193.432   -22397617.527 9 -17430465.93948  20993197.264    20993203.6054
 00  5 25  3 35  0.0000000  0  7 05 21 11 29 30 15 25
  23445896.012    -5742295.492 8  -4454168.64546  23445897.102    23445903.9654
  21229150.788   -19850995.535 8 -15454474.77847  21229154.433    21229162.3584
  23947235.802    -1995768.668 8  -1542232.67945  23947235.875    23947245.2684
  20789068.317   -20728253.578 9 -16119836.57148  20789073.105    20789079.3384
  21418340.571   -13392989.529 9 -10424465.04547  21418343.762    21418350.2804
  23726953.843     7853165.029 7   6105751.68545  23726960.674    23726972.7904
  20986282.767   -22433939.365 9 -17458768.59348  20986285.728    20986291.7464
 00  5 25  3 35 30.0000000  0  7 05 21 11 29 30 15 25
  23460245.704    -5666897.952 8  -4395417.34946  23460245.315    23460251.3424
  21244173.625   -19772069.517 9 -15392974.03647  21244173.892    21244181.6494
  23952367.751    -1968796.322 8  -1521215.28445  23952369.831    23952377.5764
  20794173.394   -20701437.694 9 -16098941.07348  20794175.821    20794182.2694
  21420173.483   -13383349.994 9 -10416953.67447  21420177.897    21420184.4654
  23744640.678     7946098.480 8   6178167.25445  23744646.298    23744657.3554
  20979432.892   -22469930.492 9 -17486813.59148  20979436.322    20979442.9934
 00  5 25  3 36  0.0000000  0  7 05 21 11 29 30 15 25
  23474664.461    -5591101.107 8  -4336354.89446  23474668.796    23474675.9434
  21259280.155   -19692683.010 8 -15331114.47847  21259280.403    21259288.7154
  23957585.579    -1941381.585 8  -1499853.16545  23957585.497    23957594.7124
  20799325.646   -20674357.266 9 -16077839.47948  20799329.370    20799335.9514
  21422125.467   -13373098.590 9 -10408965.53447  21422128.796    21422135.1024
  23762350.823     8039152.101 8   6250676.44745  23762353.648    23762364.3124
  20972647.031   -22505590.925 9 -17514600.88348  20972650.602    20972657.0814
 00  5 25  3 36 30.0000000  0  7 05 21 11 29 30 15 25
  23489159.546    -5514907.223 8  -4276983.07746  23489167.209    23489174.8204
  21274471.630   -19612838.935 8 -15268898.37247  21274474.232    21274482.3164
  23962886.166    -1913526.123 8  -1478147.60945  23962887.772    23962894.8934
  20804530.739   -20647011.812 9 -16056531.33748  20804533.160    20804539.5774
  21424194.348   -13362235.955 9 -10400501.10447  21424195.758    21424202.2174
  23780080.759     8132322.624 8   6323276.78845  23780084.839    23780093.4514
  20965923.334   -22540921.306 9 -17542131.02348  20965927.400    20965934.1394
 00  5 25  3 37  0.0000000  0  7 05 21 11 29 30 15 25
  23503737.389    -5438318.652 8  -4217303.66546  23503742.254    23503748.8384
  21289752.170   -19532539.144 8 -15206327.14647  21289754.766    21289762.6944
  23968270.900    -1885231.777 8  -1456100.12145  23968271.340    23968278.9344
  20809784.146   -20619400.942 9 -16035016.37648  20809787.284    20809793.2254
  21426377.747   -13350762.360 9 -10391560.61747  21426379.249    21426385.9914
  23797828.228     8225606.717 8   6395965.61145  23797835.869    23797845.4314
  20959263.505   -22575922.249 9 -17569404.44748  20959266.759    20959273.4854
 00  5 25  3 37 30.0000000  0  7 05 21 11 29 30 15 25
  23518392.832    -5361337.978 8  -4157318.74546  23518391.867    23518398.0454
  21305118.654   -19451785.973 9 -15143402.65347  21305121.912    21305129.8824
  23973738.551    -1856500.559 8  -1433712.14445  23973737.949    23973746.9394
  20815088.648   -20591523.999 9 -16013294.11148  20815092.216    20815098.0984
  21428676.844   -13338677.736 9 -10382143.97147  21428678.774    21428685.3104
  23815602.206     8319000.799 7   6468740.12145  23815607.264    23815617.5044
  20952663.621   -22610593.722 9 -17596421.15748  20952669.039    20952675.5404
 00  5 25  3 38  0.0000000  0  7 05 21 11 29 30 15 25
  23533114.749    -5283967.122 8  -4097029.79746  23533115.144    23533120.9414
  21320571.740   -19370581.146 9 -15080126.20947  21320574.496    21320582.1034
  23979284.578    -1827334.147 8  -1410985.08345  23979288.154    23979296.4274
  20820443.433   -20563380.848 9 -15991364.41747  20820447.513    20820453.8824
  21431091.131   -13325982.908 9 -10372251.85347  21431094.120    21431100.8114
  23833394.381     8412501.896 7   6541597.98245  23833398.665    23833410.4604
  20946131.519   -22644935.278 9 -17623180.76248  20946134.112    20946140.5144
 00  5 25  3 38 30.0000000  0  7 05 21 11 29 30 15 25
  23547913.199    -5206208.813 8  -4036438.95346  23547912.190    23547918.0114
  21336109.977   -19288926.987 9 -15016499.63947  21336112.591    21336120.7814
  23984917.727    -1797734.462 7  -1387920.47745  23984920.766    23984928.7174
  20825850.999   -20534970.710 9 -15969226.65847  20825853.672    20825860.1284
  21433624.786   -13312678.201 9 -10361884.50347  21433626.371    21433632.3644
  23851209.876     8506106.690 7   6614536.63945  23851211.331    23851224.6464
  20939659.321   -22678947.510 9 -17649683.76348  20939661.934    20939667.9404
 00  5 25  3 39  0.0000000  0  7 05 21 11 29 30 15 25
  23562774.693    -5128065.431 8  -3975548.08746  23562780.935    23562788.3784
  21351732.688   -19206826.133 9 -14952524.99147  21351736.277    21351744.1064
  23990632.522    -1767703.319 8  -1364519.64445  23990635.796    23990644.0664
  20831307.056   -20506293.339 9 -15946880.67047  20831310.608    20831317.3344
  21436269.542   -13298763.776 9 -10351042.03947  21436274.193    21436280.5354
  23869040.965     8599811.624 7   6687553.39545  23869043.936    23869055.2094
  20933247.103   -22712630.972 9 -17675930.54948  20933252.246    20933258.0114
 00  5 25  3 39 30.0000000  0  7 05 21 11 29 30 15 25
  23577720.800    -5049539.418 8  -3914359.05546  23577724.366    23577730.9864
  21367440.996   -19124280.390 9 -14888203.66947  21367444.089    21367452.3064
  23996432.931    -1737242.701 8  -1340784.19845  23996433.430    23996440.3174
  20836814.006   -20477348.005 9 -15924325.88447  20836818.580    20836824.9974
  21439034.097   -13284240.212 9 -10339724.92047  21439037.445    21439044.6314
  23886891.302     8693613.766 8   6760645.87345  23886893.724    23886905.0104
  20926900.156   -22745986.005 9 -17701921.46448  20926904.447    20926911.0594
 00  5 25  3 40  0.0000000  0  7 05 21 11 29 30 15 25
  23592735.090    -4970633.212 8  -3852873.74346  23592739.705    23592746.7504
  21383230.988   -19041291.516 8 -14823537.06347  21383236.059    21383244.0194
  24002307.311    -1706354.508 8  -1316715.55645  24002309.499    24002316.8894
  20842376.262   -20448134.698 9 -15901562.30947  20842378.155    20842384.4304
  21441915.517   -13269107.925 9 -10327933.47547  21441917.320    21441923.6274
  23904761.197     8787509.505 8   6833811.28845  23904763.588    23904772.5754
  20920618.137   -22779012.398 9 -17727656.29348  20920619.933    20920626.2674
 00  5 25  3 40 30.0000000  0  7 05 21 11 29 30 15 25
  23607825.019    -4891349.031 8  -3791093.88646  23607826.988    23607834.4544
  21399112.172   -18957861.968 8 -14758527.06847  21399112.329    21399120.6464
  24008265.549    -1675040.643 8  -1292315.13845  24008268.065    24008275.5804
  20847985.640   -20418652.778 9 -15878589.39347  20847988.497    20847994.3834
  21444911.515   -13253367.391 9 -10315668.06947  21444912.767    21444918.5374
  23922647.002     8881495.852 8   6907047.28645  23922647.617    23922657.2984
  20914392.350   -22811710.448 9 -17753135.28548  20914397.514    20914404.3224
 00  5 25  3 41  0.0000000  0  7 05 21 11 29 30 15 25
  23622981.749    -4811689.373 8  -3729021.45346  23622986.236    23622992.9854
  21415067.300   -18873993.730 8 -14693175.24247  21415071.890    21415079.9154
  24014307.312    -1643303.019 8  -1267584.61845  24014308.632    24014314.7084
  20853645.957   -20388901.676 9 -15855406.71647  20853649.878    20853656.1794
  21448021.411   -13237019.300 9 -10302929.21447  21448023.469    21448029.8534
  23940543.215     8975569.491 8   6980351.34645  23940549.491    23940560.0454
  20908233.626   -22844080.740 9 -17778358.88948  20908237.780    20908244.3774
 00  5 25  3 41 30.0000000  0  7 05 21 11 29 30 15 25
  23638215.126    -4731656.678 8  -3666658.29746  23638216.021    23638223.6114
  21431112.187   -18789689.435 8 -14627483.64147  21431114.435    21431122.7374
  24020422.544    -1611143.742 8  -1242525.46845  24020428.670    24020436.3964
  20859358.016   -20358881.082 9 -15832014.09247  20859362.730    20859369.2764
  21451246.249   -13220064.474 9 -10289717.62647  21451249.770    21451256.1264
  23958466.287     9069727.295 7   7053720.95245  23958466.861    23958476.0174
  20902137.936   -22876123.765 9 -17803327.52148  20902140.660    20902146.6444
 00  5 25  3 42  0.0000000  0  7 05 21 11 29 30 15 25
  23653507.202    -4651253.453 8  -3604006.46746  23653516.303    23653523.5114
  21447235.609   -18704951.396 8 -14561454.06447  21447240.118    21447247.2984
  24026626.856    -1578564.751 8  -1217139.35845  24026627.136    24026636.1634
  20865122.324   -20328590.486 9 -15808411.05347  20865126.791    20865132.9394
  21454586.664   -13202503.225 9 -10276033.49947  21454591.871    21454597.6604
  23976401.050     9163966.215 7   7127153.74445  23976399.225    23976409.8174
  20896101.609   -22907839.725 9 -17828041.25648  20896105.161    20896111.2594
 00  5 25  3 42 30.0000000  0  7 05 21 11 29 30 15 25
  23668888.213    -4570482.172 8  -3541067.83746  23668885.823    23668893.5944
  21463445.206   -18619781.589 8 -14495088.04947  21463447.027    21463455.4204
  24032903.416    -1545568.257 8  -1191427.87845  24032905.873    24032915.9024
  20870941.565   -20298029.733 9 -15784597.53447  20870942.483    20870948.3994
  21458048.864   -13184335.867 9 -10261877.05247  21458048.848    21458054.6044
  23994330.974     9258282.629 7   7200646.93445  23994344.912    23994358.8814
  20890129.466   -22939228.937 9 -17852500.38948  20890131.918    20890138.3424
 00  5 25  3 43  0.0000000  0  7 05 21 11 29 30 15 25
  23684323.760    -4489345.213 8  -3477844.28646  23684325.475    23684333.8224
  21479732.591   -18534182.565 8 -14428387.58447  21479736.481    21479744.3364
  24039263.099    -1512155.996 8  -1165392.40745  24039265.422    24039273.7024
  20876805.045   -20267197.986 9 -15760572.79647  20876809.560    20876815.5654
  21461619.130   -13165563.068 9 -10247248.85247  21461620.800    21461627.3494
  24012307.532     9352673.516 8   7274198.13045  24012310.152    24012319.9084
  20884217.356   -22970291.999 9 -17876705.34748  20884220.681    20884227.0694
 00  5 25  3 43 30.0000000  0  7 05 21 11 29 30 15 25
  23699833.620    -4407845.073 8  -3414337.68846  23699834.814    23699842.6224
  21496103.448   -18448156.339 8 -14361354.22847  21496106.434    21496114.3504
  24045701.779    -1478330.056 7  -1139034.61445  24045700.877    24045709.5954
  20882724.504   -20236094.995 9 -15736336.72847  20882728.290    20882734.0784
  21465303.881   -13146185.865 9 -10232149.68747  21465308.171    21465315.0394
  24030282.900     9447135.443 7   7347804.69445  24030286.427    24030296.0244
  20878368.184   -23001028.714 9 -17900656.01948  20878371.566    20878377.9654
